     2.10           OBSERVATION DATA    G (GPS)             RINEX VERSION / TYPE
teqc 2005May6 SOPAC 20050707 00:40:37UTC                    PGM / RUN BY / DATE
Linux 2.4.20-8|Pentium IV|gcc|Linux|486/DX+                 COMMENT
BIT 2 OF LLI FLAGS DATA COLLECTED UNDER A/S CONDITION       COMMENT
B 1079                                                      MARKER NAME
B107                                                        MARKER NUMBER
Bob Dawson                                                  OBSERVER / AGENCY
0220240563 TRIMBLE 5700 2.01                                REC # / TYPE / VERS
11910056 TRM41249.00 NONE                                   ANT # / TYPE
 -2645839.0000 -4148568.0000  4044955.0000                  APPROX POSITION XYZ
        1.8000        0.0000        0.0000                  ANTENNA: DELTA H/E/N
     1     1                                                WAVELENGTH FACT L1/2
     6    L1    L2    C1    P2    P1    D1                  # / TYPES OF OBSERV
    15.0000                                                 INTERVAL
Northern California Height Modernization 2004               COMMENT
                                                            COMMENT
SOPAC - Scripps Orbit and Permanent Array Center            COMMENT
IGPP - Institute of Geophysics and Planetary Physics        COMMENT
SIO - Scripps Institution of Oceanography                   COMMENT
UCSD - University of California, San Diego                  COMMENT
                                                            COMMENT
email: archive@gpsmail.ucsd.edu                             COMMENT
ftp://garner.ucsd.edu                                       COMMENT
http://sopac.ucsd.edu                                       COMMENT
                                                            COMMENT
                                                            COMMENT
Approximate Lat, Lon : 39.611, -122.529                     COMMENT
                                                            COMMENT
SNR is mapped to RINEX snr flag value [0-9]                 COMMENT
L1 & L2: 2-19 dBHz = 1, 20-27 dBHz = 2, 28-31 dBHz = 3      COMMENT
32-35 dBHz = 4, 36-38 dBHz = 5, 39-41 dBHz = 6              COMMENT
42-44 dBHz = 7, 45-48 dBHz = 8, >= 49 dBHz = 9              COMMENT
  2004     9    14    14    55   30.0000000     GPS         TIME OF FIRST OBS
                                                            END OF HEADER
 04  9 14 14 55 30.0000000  0  7G 1G11G14G15G19G22G25
   -206957.78959   -142915.94554  21785347.5314   21785344.7624

   -167789.77359   -116891.97355  21638475.0084   21638470.4304

     76621.87959     49860.29356  21136418.8524   21136415.0784

    126940.89856     70769.09052  23469477.2424   23469475.0274

     96047.34456     59662.44152  23583240.6254   23583236.3594

     94782.71558     59895.89553  22946348.7734   22946343.7344

   -214252.98059   -148161.52355  21594293.9924   21594291.2894

 04  9 14 14 55 45.0000000  0  7G 1G11G14G15G19G22G25
   -253909.61349   -179501.79745  21776412.8594   21776410.4574
      3130.1224
   -205987.36349   -146656.34445  21631205.6564   21631201.1524
      2546.5064
     94793.59049     64020.04346  21139877.0634   21139873.1764
     -1211.4474
    171006.87546    105106.15242  23477863.0004   23477859.3284
     -2937.7324
    123414.90246     80987.78542  23588448.5164   23588444.1914
     -1824.5044
    116551.59848     76858.61344  22950492.3674   22950488.1414
     -1451.2594
   -263102.76649   -186226.28145  21584998.3754   21584995.1764
      3256.6524
 04  9 14 14 56  0.0000000  0  7G 1G11G14G15G19G22G25
   -300786.41848   -216029.17644  21767492.6414   21767489.8594
      3125.1204
   -244072.32449   -176332.94945  21623958.8984   21623954.3444
      2538.9974
    113026.66049     78227.60946  21143346.6094   21143342.8204
     -1215.5384
    215109.82846    139472.03142  23486255.1484   23486251.8634
     -2940.1974
    150826.14846    102347.16442  23593664.6804   23593660.7424
     -1827.4164
    138353.58248     93847.09443  22954641.1334   22954635.1454
     -1453.4664
   -311857.84449   -224217.26245  21575720.5394   21575717.6724
      3250.3394
 04  9 14 14 56 15.0000000  0  7G 1G11G14G15G19G22G25
   -347582.77749   -252493.88344  21758587.8674   21758584.6914
      3119.7574
   -282039.19949   -205917.53945  21616733.6024   21616729.3204
      2531.1254
    131326.05149     92486.85946  21146828.9534   21146825.0274
     -1219.9594
    259254.85946    173870.69942  23494655.7894   23494653.3714
     -2943.0024
    178285.95746    123744.36342  23598889.8754   23598886.0554
     -1830.6544
    160193.72348    110865.38743  22958797.3674   22958792.8914
     -1456.0094
   -360512.43449   -262129.92645  21566461.9924   21566458.5984
      3243.6394
 04  9 14 14 56 30.0000000  0  7G 1G11G14G15G19G22G25
   -394297.56248   -288895.01644  21749698.0394   21749695.6174
      3114.3194
   -319886.69149   -235409.10244  21609531.4454   21609527.3554
      2523.1664
    149692.73449    106798.55145  21150323.9614   21150320.1524
     -1224.4464
    303442.85546    208302.89142  23503064.3914   23503062.7034
     -2945.8664
    205794.98447    145179.94942  23604124.8444   23604120.8204
     -1833.9354
    182073.49248    127914.43843  22962960.9384   22962956.6214
     -1458.6514
   -409065.11349   -299963.18745  21557222.9454   21557219.6804
      3236.8454
 04  9 14 14 56 45.0000000  0  7G 1G11G14G15G19G22G25
   -440930.52349   -325232.39144  21740823.9774   21740821.4024
      3108.8644
   -357614.37548   -264807.30944  21602352.2584   21602348.2074
      2515.1794
    168126.63749    121162.60245  21153831.7274   21153828.0084
     -1228.9274
    347673.62546    242768.37141  23511480.5634   23511479.6994
     -2948.7184
    233353.20746    166653.84843  23609368.9384   23609364.7774
     -1837.2154
    203992.79348    144994.44143  22967131.3594   22967126.6484
     -1461.2874
   -457515.47349   -337716.69545  21548003.0394   21547999.8324
      3230.0244
 04  9 14 14 57  0.0000000  0  7G 1G11G14G15G19G22G25
   -487482.81648   -361506.91044  21731965.6414   21731962.5744
      3103.4864
   -395223.18749   -294112.88344  21595195.6024   21595191.4384
      2507.2544
    186626.38749    135577.97345  21157352.2424   21157348.4144
     -1233.3174
    391945.75046    277266.09441  23519905.1024   23519904.3524
     -2951.4754
    260958.99647    188164.81642  23614622.4454   23614617.9924
     -1840.3864
    225950.68847    162104.39143  22971310.1724   22971307.0784
     -1463.8604
   -505864.48449   -375391.24245  21538802.7504   21538799.2194
      3223.2674
 04  9 14 14 57 15.0000000  0  7G 1G11G14G15G19G22G25
   -533955.31648   -397719.25044  21723121.9924   21723119.1564
      3098.1674
   -432713.74648   -323326.32044  21588061.3754   21588057.2974
      2499.3714
    205190.80149    150043.73045  21160884.9694   21160880.7814
     -1237.6284
    436257.93046    311794.98841  23528337.8984   23528337.3404
     -2954.1454
    288611.00847    209711.79742  23619884.6484   23619879.6374
     -1843.4674
    247945.97747    179243.55943  22975495.7974   22975490.9304
     -1466.3534
   -554112.76249   -412987.30945  21529620.8134   21529618.0234
      3216.5524
 04  9 14 14 57 30.0000000  0  7G 1G11G14G15G19G22G25
   -580349.12149   -433870.27344  21714293.5004   21714290.8524
      3092.9204
   -470087.05149   -352448.39544  21580949.1254   21580945.1054
      2491.5544
    223818.37549    164558.69945  21164429.5474   21164425.5904
     -1241.8384
    480608.67246    346353.94541  23536778.0234   23536776.8874
     -2956.7164
    316307.69546    231293.59443  23625155.2114   23625150.3984
     -1846.4464
    269977.64547    196411.05143  22979688.0944   22979682.6724
     -1468.7784
   -602261.10949   -450505.50445  21520458.6564   21520456.1174
      3209.8904
 04  9 14 14 57 45.0000000  0  7G 1G11G14G15G19G22G25
   -626665.12549   -469960.66845  21705479.8364   21705476.7274
      3087.7344
   -507343.89848   -381479.72744  21573859.6644   21573855.3954
      2483.7904
    242507.94949    179121.99245  21167985.7664   21167982.2894
     -1245.9724
    524996.87146    380942.11341  23545224.2344   23545223.6604
     -2959.2134
    344047.64146    252909.07843  23630434.2814   23630428.8674
     -1849.3304
    292044.62148    213606.04744  22983888.0554   22983884.7584
     -1471.1324
   -650310.28549   -487946.40245  21511315.3914   21511312.6414
      3203.2784
 04  9 14 14 58  0.0000000  0  7G 1G11G14G15G19G22G25
   -672904.06249   -505991.02044  21696680.9774   21696677.9574
      3082.5964
   -544484.85549   -410420.74244  21566792.2974   21566787.7034
      2476.0644
    261258.44149    193732.74245  21171553.9384   21171550.5474
     -1250.0334
    569421.40646    415558.56341  23553678.0474   23553677.1764
     -2961.6364
    371829.66847    274557.37543  23635720.8914   23635715.5354
     -1852.1354
    314146.09847    230827.94543  22988093.0554   22988088.2934
     -1473.4324
   -698260.93449   -525310.54745  21502190.4064   21502187.2854
      3196.7104
 04  9 14 14 58 15.0000000  0  7G 1G11G14G15G19G22G25
   -719066.18049   -541961.51245  21687896.7974   21687893.8094
      3077.4744
   -581510.18049   -439271.66044  21559746.2974   21559742.0004
      2468.3554
    280069.47349    208390.66845  21175133.7344   21175130.0594
     -1254.0694
    613881.56345    450202.77741  23562138.6254   23562137.6294
     -2964.0104
    399653.12147    296237.96542  23641014.9144   23641010.2344
     -1854.8974
    336281.61348    248076.36743  22992306.0784   22992302.2664
     -1475.7014
   -746113.11349   -562597.97745  21493084.8054   21493081.5314
      3190.1454
 04  9 14 14 58 30.0000000  0  7G 1G11G14G15G19G22G25
   -765153.54349   -577873.73845  21679126.4694   21679123.5634
      3072.4914
   -618421.59449   -468033.82445  21552722.4064   21552717.8484
      2460.7614
    298938.52349    223093.80145  21178724.8834   21178721.0234
     -1257.9374
    658375.03545    484872.97342  23570605.3984   23570604.5704
     -2966.2324
    427515.58646    317948.91842  23646316.9384   23646312.3634
     -1857.4984
    358449.31348    265349.81643  22996523.8204   22996520.4384
     -1477.8474
   -793868.44949   -599809.92245  21483997.5704   21483994.5314
      3183.6894
 04  9 14 14 58 45.0000000  0  7G 1G11G14G15G19G22G25
   -811166.41049   -613727.93445  21670370.7344   21670367.6884
      3067.5244
   -655219.26649   -496707.35545  21545719.9614   21545715.3914
      2453.1784
    317865.04749    237841.72346  21182326.2504   21182322.7234
     -1261.7684
    702901.21145    519568.62141  23579078.4224   23579078.0044
     -2968.4124
    455416.30147    339689.69142  23651626.8444   23651621.6024
     -1860.0484
    380648.76248    282648.12543  23000747.7584   23000742.9654
     -1479.9634
   -841527.07449   -636946.50445  21474927.8754   21474925.4104
      3177.2424
 04  9 14 14 59  0.0000000  0  7G 1G11G14G15G19G22G25
   -857105.11749   -649524.33644  21661628.7194   21661625.9414
      3062.5804
   -691903.29749   -525292.32844  21538739.2974   21538734.7854
      2445.6024
    336848.47349    252633.98846  21185938.5784   21185935.0744
     -1265.5624
    747459.52345    554289.30942  23587557.7034   23587557.7504
     -2970.5544
    483354.41047    361459.62142  23656942.8594   23656938.1644
     -1862.5414
    402879.63747    299970.80543  23004978.5474   23004975.8134
     -1482.0584
   -889089.04349   -674007.77745  21465877.4304   21465874.4024
      3170.7984
 04  9 14 14 59 15.0000000  0  7G 1G11G14G15G19G22G25
   -902970.27749   -685263.42644  21652900.9144   21652898.5664
      3057.6774
   -728474.10949   -553789.08245  21531780.1564   21531775.5004
      2438.0544
    355887.97749    267469.95345  21189561.6954   21189558.0204
     -1269.3004
    792048.94946    589034.24642  23596043.1334   23596042.3954
     -2972.6284
    511328.94146    383257.91042  23662266.2424   23662262.0634
     -1864.9694
    425141.15248    317317.38343  23009215.4694   23009210.9964
     -1484.1014
   -936554.79349   -710994.07445  21456844.9304   21456841.5864
      3164.3834
 04  9 14 14 59 29.9990000  0  7G 1G11G14G15G19G22G25
   -948759.29749   -720943.20744  21644187.3474   21644184.7724
      3052.6014
   -764929.70349   -582196.05545  21524843.2454   21524838.5734
      2430.3734
    374981.34449    282347.88345  21193194.8394   21193191.2334
     -1272.8914
    836665.62946    623800.41441  23604533.6514   23604532.1634
     -2974.4454
    539337.06346    405082.39842  23667596.1674   23667591.9564
     -1867.2084
    447431.35948    334686.35943  23013456.3704   23013451.8904
     -1486.0144
   -983921.49649   -747903.19545  21447831.3004   21447828.6284
      3157.7804
 04  9 14 14 59 44.9990000  0  7G 1G11G14G15G19G22G25
   -994478.28549   -756568.38745  21635487.5034   21635484.7104
      3047.9334
   -801274.74649   -610516.88745  21517926.8234   21517921.9874
      2423.0034
    394130.87949    297269.57445  21196839.1674   21196835.7184
     -1276.6364
    881315.32046    658592.35541  23613029.8004   23613028.8234
     -2976.6464
    567382.14546    426935.66842  23672932.9804   23672929.2104
     -1869.6724
    469753.17248    352079.94544  23017704.7764   23017700.4404
     -1488.1214
  -1031195.09449   -784739.76645  21438835.3704   21438832.5114
      3151.5734
 04  9 14 14 59 59.9990000  0  7G 1G11G14G15G19G22G25
  -1040124.95349   -792137.23445  21626801.2694   21626798.4524
      3043.1114
   -837507.37149   -638750.11345  21511032.0734   21511027.3394
      2415.5084
    413334.34049    312233.29345  21200493.4014   21200489.8514
     -1280.2314
    925993.78945    693406.69541  23621531.4404   23621530.9134
     -2978.5654
    595461.08246    448815.30942  23678276.4014   23678272.3354
     -1871.9294
    492104.22348    369496.29743  23021957.1514   23021953.4954
     -1490.0704
  -1078373.12149   -821501.85545  21429857.3474   21429854.8624
      3145.2024
 04  9 14 15  0 14.9990000  0  7G 1G11G14G15G19G22G25
  -1085699.97749   -827650.25445  21618128.5654   21618125.9334
      3038.3354
   -873628.16049   -666896.19545  21504158.4174   21504154.0694
      2408.0534
    432590.70349    327238.23445  21204157.9094   21204154.1474
     -1283.7584
    970700.16046    728242.73841  23630039.8234   23630038.0194
     -2980.4254
    623572.72746    470720.44142  23683625.6054   23683621.0424
     -1874.1104
    514483.80548    386934.89844  23026216.9724   23026212.3864
     -1491.9724
  -1125455.86749   -858189.70745  21420898.1444   21420894.9014
      3138.8504
 04  9 14 15  0 29.9990000  0  7G 1G11G14G15G19G22G25
  -1131203.28149   -863107.38345  21609469.6204   21609466.7804
      3033.5544
   -909636.92249   -694954.98445  21497305.9254   21497301.9334
      2400.5844
    451899.73449    342284.21145  21207832.2224   21207828.4334
     -1287.2694
   1015434.01645    763100.23841  23638551.6124   23638551.2304
     -2982.2574
    651716.59846    492650.70742  23688981.6834   23688977.6054
     -1876.2584
    536891.89548    404395.69943  23030480.6054   23030476.2614
     -1493.8734
  -1172443.25849   -894803.26645  21411956.5734   21411953.8234
      3132.4934
 04  9 14 15  0 44.9990000  0  7G 1G11G14G15G19G22G25
  -1176634.80949   -898508.58245  21600824.4724   21600821.6324
      3028.7684
   -945533.42249   -722926.29745  21490475.0504   21490471.2614
      2393.1004
    471261.20749    357371.05545  21211516.6444   21211513.0504
     -1290.7654
   1060195.14146    797978.98041  23647069.8474   23647069.2534
     -2984.0754
    679892.51646    514605.91442  23694343.0424   23694339.3004
     -1878.3954
    559328.57848    421878.80143  23034750.6674   23034744.8904
     -1495.7794
  -1219334.88349   -931342.18745  21403033.4564   21403030.5464
      3126.1084
 04  9 14 15  0 59.9990000  0  7G 1G11G14G15G19G22G25
  -1221994.39549   -933853.71145  21592192.8864   21592189.9804
      3023.9724
   -981317.26649   -750809.82445  21483665.8234   21483661.9334
      2385.5904
    490675.03549    372498.69145  21215210.9954   21215207.2064
     -1294.2554
   1104983.34845    832878.81641  23655592.2224   23655591.5774
     -2985.8804
    708100.23846    536585.93442  23699711.6594   23699706.5624
     -1880.5154
    581793.91448    439384.19943  23039025.5504   23039020.4564
     -1497.6894
  -1266130.50849   -967806.30145  21394128.6204   21394125.8434
      3119.7084
 04  9 14 15  1 14.9990000  0  7G 1G11G14G15G19G22G25
  -1267282.52349   -969143.16445  21583574.8314   21583572.0114
      3019.2094
  -1016988.93449   -778605.94545  21476877.8004   21476873.8704
      2378.1114
    510140.44549    387666.53945  21218914.9874   21218911.2764
     -1297.6944
   1149797.85945    867799.16041  23664120.6514   23664119.7264
     -2987.6344
    736338.65646    558589.85242  23705084.1904   23705080.4294
     -1882.5614
    604287.29748    456911.48044  23043306.2614   23043301.5074
     -1499.5594
  -1312830.24649  -1004195.69945  21385241.8474   21385239.3124
      3113.3164
 04  9 14 15  1 29.9990000  0  7G 1G11G14G15G19G22G25
  -1312499.80949  -1004377.41845  21574970.0814   21574967.2494
      3014.4864
  -1052548.64849   -806314.81645  21470111.0894   21470107.2144
      2370.6484
    529656.57449    402873.89845  21222629.0264   21222624.9604
     -1301.0754
   1194637.66445    902739.25441  23672653.3234   23672652.8154
     -2989.3204
    764606.75046    580616.88742  23710463.7304   23710459.3864
     -1884.5404
    626808.08648    474460.09043  23047590.6594   23047586.9914
     -1501.3864
  -1359434.53949  -1040510.73845  21376373.6364   21376370.7064
      3106.9534
 04  9 14 15  1 44.9990000  0  7G 1G11G14G15G19G22G25
  -1357646.58649  -1039556.72345  21566378.7224   21566376.1714
      3009.7854
  -1087996.82849   -833936.79745  21463365.4484   21463361.2024
      2363.2124
    549222.67649    418120.19145  21226352.4724   21226348.3824
     -1304.4074
   1239502.15645    937698.55941  23681190.9094   23681190.7454
     -2990.9664
    792903.80546    602666.49642  23715849.1444   23715844.1754
     -1886.4704
    649355.80548    492029.68443  23051882.5114   23051877.3394
     -1503.1814
  -1405943.53949  -1076751.50445  21367522.8004   21367520.3084
      3100.6004
 04  9 14 15  1 59.9990000  0  7G 1G11G14G15G19G22G25
  -1402722.42249  -1074680.75445  21557801.2924   21557798.5734
      3005.0564
  -1123332.84049   -861471.36345  21456641.3624   21456637.4254
      2355.7344
    568838.87149    433405.52045  21230085.0034   21230081.2534
     -1307.7464
   1284391.31644    972677.06641  23689731.9874   23689732.8584
     -2992.6114
    821229.76246    624738.63743  23721239.3474   23721234.5854
     -1888.3974
    671930.85948    509620.60543  23056177.3394   23056173.3474
     -1505.0044
  -1452356.57449  -1112917.50845  21358690.8394   21358688.5974
      3094.2024
 04  9 14 15  2 14.9990000  0  7G 1G11G14G15G19G22G25
  -1447727.79349  -1109749.86345  21549236.9804   21549234.5114
      3000.3584
  -1158556.94949   -888918.73445  21449938.4644   21449934.2574
      2348.2744
    588504.49649    448729.36745  21233827.6594   21233823.9724
     -1311.0424
   1329304.48044   1007674.18841  23698278.1514   23698279.6754
     -2994.2114
    849583.78546    646832.64143  23726634.9404   23726630.4524
     -1890.2684
    694532.83248    527232.45343  23060479.1364   23060474.6634
     -1506.7984
  -1498673.97749  -1149008.97745  21349876.8864   21349874.9804
      3087.8274
 04  9 14 15  2 29.9990000  0  8G 1G11G14G15G19G20G22G25
  -1492663.54349  -1144764.74245  21540685.8084   21540683.3624
      2995.7174
  -1193669.93749   -916279.51645  21443256.5264   21443252.5424
      2340.8664
    608218.46549    464090.88745  21237578.9874   21237575.1054
     -1314.2654
   1374240.34044   1042689.07841  23706829.2224   23706831.0384
     -2995.7244
    877964.55946    668947.48042  23732035.4174   23732030.4484
     -1892.0524
   -142639.13757   -104796.60552  23981054.1904   23981049.8154

    717160.58248    544864.45343  23064785.0114   23064780.4524
     -1508.5174
  -1544896.27749  -1185026.36745  21341081.3154   21341078.3744
      3081.4874
 04  9 14 15  2 44.9990000  0  8G 1G11G14G15G19G20G22G25
  -1537530.27749  -1179725.83245  21532147.8234   21532145.2374
      2991.1164
  -1228672.24249   -943554.04745  21436595.8394   21436591.8824
      2333.4874
    627979.80549    479489.31345  21241339.2614   21241335.4524
     -1317.4234
   1419197.96544   1077720.94941  23715386.5584   23715386.0464
     -2997.1754
    906370.98046    691082.32042  23737441.0114   23737436.3514
     -1893.7614
   -199557.50847   -149148.59842  23970222.8004   23970218.4524
      3794.5584
    739813.69948    562516.18043  23069095.6124   23069090.1204
     -1510.2084
  -1591023.89849  -1220969.96145  21332303.1514   21332300.7374
      3075.1754
 04  9 14 15  2 59.9990000  0  8G 1G11G14G15G19G20G22G25
  -1582327.50849  -1214632.77045  21523623.7304   21523620.9684
      2986.4824
  -1263563.07449   -970741.71945  21429956.3704   21429952.3864
      2326.0554
    647788.87549    494924.93845  21245108.9404   21245105.1084
     -1320.6054
   1464177.61344   1112769.90241  23723945.5584   23723945.2534
     -2998.6434
    934803.21946    713237.27342  23742851.5504   23742846.8584
     -1895.4834
   -256483.91847   -193506.84042  23959390.4094   23959385.5114
      3795.0944
    762492.55948    580188.00043  23073411.1904   23073406.4564
     -1511.9244
  -1637056.14149  -1256839.23045  21323543.4404   21323541.0344
      3068.8164
 04  9 14 15  3 14.9990000  0  8G 1G11G14G15G19G20G22G25
  -1627056.53549  -1249486.55545  21515111.5264   21515109.0934
      2981.9354
  -1298343.59049   -997843.43445  21423337.8154   21423333.9564
      2318.7014
    667643.94149    510396.40245  21248886.9014   21248883.7064
     -1323.6714
   1509177.60245   1147834.79741  23732508.1904   23732509.0544
     -2999.9994
    963259.59047    735411.02342  23748267.1834   23748261.9524
     -1897.0914
   -313419.58247   -237872.30142  23948555.2454   23948551.1204
      3795.7114
    785195.82448    597878.78943  23077730.9804   23077726.3624
     -1513.5514
  -1682994.05549  -1292634.99645  21314801.8234   21314799.5194
      3062.5284
 04  9 14 15  3 29.9990000  0  8G 1G11G14G15G19G20G22G25
  -1671716.61749  -1284286.63745  21506613.2224   21506610.1404
      2977.3394
  -1333012.91049  -1024858.49645  21416740.5814   21416736.4134
      2311.2884
    687545.55549    525904.14545  21252674.1984   21252670.9994
     -1326.7744
   1554198.39845   1182915.91841  23741076.0194   23741076.7654
     -3001.3864
    991740.32846    757603.77342  23753686.1674   23753681.6124
     -1898.7164
   -370363.68047   -282244.36742  23937719.4644   23937714.9134
      3796.2734
    807924.20748    615589.18843  23082056.8864   23082052.9764
     -1515.2264
  -1728836.66849  -1328356.50445  21306078.6054   21306075.6054
      3056.1744
 04  9 14 15  3 44.9990000  0  8G 1G11G14G15G19G20G22G25
  -1716307.11749  -1319032.48045  21498127.8234   21498125.3624
      2972.7004
  -1367570.32049  -1051786.35945  21410164.5584   21410160.6364
      2303.8274
    707494.06649    541448.42645  21256470.2224   21256466.5504
     -1329.9014
   1599240.21545   1218013.35541  23749646.9804   23749647.0344
     -3002.7884
   1020245.70347    779815.68443  23759110.8944   23759106.5344
     -1900.3584
   -427315.57847   -326622.46942  23926881.6444   23926877.4564
      3796.7934
    830678.16048    633319.47343  23086386.4724   23086383.3124
     -1516.9304
  -1774583.16849  -1364003.12545  21297373.2534   21297369.9724
      3049.7674
 04  9 14 15  3 59.9990000  0  8G 1G11G14G15G19G20G22G25
  -1760828.75449  -1353724.67245  21489655.7924   21489653.2964
      2968.1094
  -1402016.30549  -1078627.39845  21403609.5194   21403605.4994
      2296.3994
    727488.52349    557028.50845  21260275.3784   21260271.6364
     -1332.9644
   1644302.13745   1253126.49242  23758222.4954   23758222.3944
     -3004.1284
   1048774.52047    802045.89543  23764539.5584   23764535.4764
     -1901.9214
   -484276.02347   -371007.24242  23916042.7454   23916038.3084
      3797.3634
    853456.95348    651069.16443  23090721.1834   23090717.0854
     -1518.5864
  -1820234.18049  -1399575.34045  21288685.8394   21288683.2064
      3043.4014
 04  9 14 15  4 14.9990000  0  8G 1G11G14G15G19G20G22G25
  -1805280.72349  -1388362.57045  21481197.0194   21481194.1204
      2963.4654
  -1436350.06249  -1105380.99645  21397076.1594   21397071.7764
      2288.9174
    747529.35549    572644.72345  21264088.9644   21264085.1244
     -1336.0554
   1689384.58646   1288255.62542  23766801.4954   23766801.1084
     -3005.4974
   1077327.10946    824294.62942  23769973.0974   23769968.3974
     -1903.5064
   -541244.01247   -415397.91442  23905201.9804   23905198.2024
      3797.8664
    876261.43448    668838.85943  23095059.9874   23095056.4764
     -1520.2994
  -1865788.64848  -1435072.32045  21280017.2144   21280014.4604
      3036.9654
 04  9 14 15  4 29.9990000  0  8G 1G11G14G15G19G20G22G25
  -1849662.94149  -1422946.12945  21472751.0734   21472748.5464
      2958.8154
  -1470571.34849  -1132046.94545  21390563.9094   21390560.1594
      2281.4194
    767616.32449    588296.89845  21267911.1674   21267907.3314
     -1339.1314
   1734487.27046   1323400.52742  23775384.2844   23775384.0934
     -3006.8464
   1105903.07847    846561.59842  23775411.1444   23775406.7574
     -1905.0654
   -598219.45747   -459794.34042  23894359.8004   23894356.0814
      3798.3634
    899091.60548    686628.55143  23099405.7144   23099402.0264
     -1522.0114
  -1911246.10249  -1470493.70745  21271366.9804   21271363.9374
      3030.4974
 04  9 14 15  4 44.9990000  0  8G 1G11G14G15G19G20G22G25
  -1893975.66449  -1457475.51645  21464318.8084   21464316.1364
      2954.1824
  -1504680.09849  -1158625.20745  21384073.4094   21384069.1714
      2273.9174
    787749.00049    603984.69145  21271742.2224   21271738.2654
     -1342.1784
   1779609.68846   1358560.80542  23783970.6984   23783970.1054
     -3008.1614
   1134501.93847    868846.38342  23780852.9014   23780849.0224
     -1906.5914
   -655202.66447   -504196.86742  23883516.3474   23883511.9524
      3798.8804
    921947.13348    704438.02743  23103754.4484   23103751.5624
     -1523.7024
  -1956606.56249  -1505839.52745  21262735.2614   21262732.1204
      3024.0314
 04  9 14 15  4 59.9990000  0  7G 1G11G14G19G20G22G25
  -1938217.83648  -1491949.93745  21455899.9334   21455896.7884
      2949.4784
  -1538675.18749  -1185114.89545  21377604.3554   21377600.1834
      2266.3394
    807928.29749    619708.80545  21275582.4014   21275578.4764
     -1345.2864
   1163124.24647    891149.44142  23786299.7694   23786295.3584
     -1908.1544
   -712192.39147   -548604.45342  23872672.0734   23872667.1944
      3799.3154
    944829.08648    722268.05543  23108109.1754   23108105.8744
     -1525.4644
  -2001868.91049  -1541108.87945  21254122.1444   21254119.0814
      3017.4904
 04  9 14 15  5 14.9990000  0  7G 1G11G14G19G20G22G25
  -1982389.16848  -1526369.16045  21447494.2064   21447491.3394
      2944.7554
  -1572556.14149  -1211515.64845  21371156.7844   21371152.9404
      2258.7304
    828154.16449    635469.21145  21279431.2694   21279427.3044
     -1348.3914
   1191769.87547    913470.68842  23791751.1284   23791746.5544
     -1909.7094
   -769188.34847   -593016.87942  23861825.2454   23861821.4994
      3799.7304
    967737.59848    740118.84043  23112468.3704   23112464.6984
     -1527.2344
  -2047032.59448  -1576301.35245  21245527.7224   21245524.8434
      3010.9124
 04  9 14 15  5 29.9990000  0  7G 1G11G14G19G20G22G25
  -2026488.85549  -1560732.56245  21439102.4954   21439099.4564
      2939.9794
  -1606322.07449  -1237826.77745  21364731.2614   21364727.2804
      2251.0624
    848427.03149    651266.23045  21283289.1364   21283285.4094
     -1351.5244
   1220439.14847    935810.32842  23797206.4174   23797202.0504
     -1911.2854
   -826189.85247   -637433.64542  23850978.4484   23850974.6404
      3800.1004
    990673.39848    757990.85943  23116832.7614   23116829.5344
     -1529.0534
  -2092096.71549  -1611416.24645  21236952.2614   21236949.4404
      3004.2754
 04  9 14 15  5 44.9990000  0  7G 1G11G14G19G20G22G25
  -2070517.15249  -1595040.32445  21430724.5894   21430720.8974
      2935.2204
  -1639973.04749  -1264048.32445  21358327.8784   21358323.8394
      2243.3984
    868746.40649    667099.49245  21287155.6054   21287152.1754
     -1354.6254
   1249131.38747    958167.87942  23802666.3864   23802661.9874
     -1912.8164
   -883196.92647   -681854.75042  23840130.4564   23840126.1834
      3800.4724
   1013636.23048    775883.93844  23121203.0974   23121200.0154
     -1530.8554
  -2137061.18749  -1646453.48845  21228395.9564   21228392.7724
      2997.6324
 04  9 14 15  5 59.9990000  0  7G 1G11G14G19G20G22G25
  -2114473.65649  -1629292.14145  21422359.7224   21422356.6754
      2930.4344
  -1673508.51249  -1290179.85545  21351946.4804   21351942.1634
      2235.6984
    889112.45749    682969.12145  21291031.4954   21291027.6284
     -1357.7374
   1277846.45347    980543.22342  23808131.1754   23808126.3434
     -1914.3384
   -940209.14147   -726279.85242  23829281.4564   23829277.4604
      3800.8144
   1036626.40648    793798.34443  23125576.9174   23125574.4684
     -1532.6784
  -2181925.41049  -1681412.61745  21219858.6124   21219855.5424
      2990.9484
 04  9 14 15  6 14.9990000  0  7G 1G11G14G19G20G22G25
  -2158358.14849  -1663487.85245  21414008.7844   21414005.5654
      2925.6334
  -1706928.02349  -1316221.04745  21345586.8474   21345582.5504
      2227.9674
    909525.05549    698875.03145  21294915.9174   21294911.9094
     -1360.8404
   1306584.29747   1002936.30942  23813599.3784   23813594.8514
     -1915.8564
   -997226.28147   -770708.78542  23818430.9564   23818427.6054
      3801.1434
   1059644.17648    811734.20743  23129957.9174   23129953.8354
     -1534.5184
  -2226689.05149  -1716293.37945  21211340.0424   21211337.0584
      2984.2434
 04  9 14 15  6 29.9990000  0  7G 1G11G14G19G20G22G25
  -2202168.68449  -1697625.93745  21405671.5114   21405668.4644
      2920.7024
  -1740229.77749  -1342170.48045  21339249.6444   21339245.3584
      2220.1174
    929985.83249    714818.48445  21298809.1124   21298805.0074
     -1364.0524
   1335346.39847   1025348.28942  23819072.8474   23819067.7304
     -1917.4734
  -1054246.39847   -815140.02742  23807580.7064   23807577.0624
      3801.3414
   1082691.26248    829692.94143  23134343.3944   23134339.3624
     -1536.4724
  -2271349.92649  -1751094.05945  21202841.5344   21202838.7184
      2977.3924
 04  9 14 15  6 44.9990000  0  7G 1G11G14G19G20G22G25
  -2245906.36348  -1731707.23845  21397348.6444   21397345.8944
      2915.8454
  -1773414.52049  -1368028.73445  21332935.0114   21332930.3194
      2212.3164
    950493.56349    730798.52745  21302712.0584   21302707.8314
     -1367.1824
   1364131.20347   1047777.96942  23824550.1594   23824545.5854
     -1918.9874
  -1111270.52747   -859574.43442  23796729.4564   23796725.4994
      3801.6094
   1105766.74648    847673.83243  23138734.5974   23138730.3314
     -1538.3664
  -2315908.82048  -1785815.27345  21194362.2224   21194359.6754
      2970.5934
 04  9 14 15  6 59.9990000  0  7G 1G11G14G19G20G22G25
  -2289571.52348  -1765732.03545  21389039.6204   21389036.9294
      2911.0114
  -1806482.54349  -1393796.03545  21326642.0034   21326638.0544
      2204.5354
    971047.59049    746814.64545  21306622.8234   21306619.0934
     -1370.2684
   1392938.02347   1070224.79742  23830031.8784   23830027.7184
     -1920.4554
  -1168298.96547   -904012.19142  23785877.4014   23785873.5544
      3801.8964
   1128870.12548    865676.44143  23143131.7764   23143127.0074
     -1540.2254
  -2360365.89548  -1820457.13746  21185902.3084   21185900.0264
      2963.8054
 04  9 14 15  7 14.9990000  0  7G 1G11G14G19G20G22G25
  -2333164.67648  -1799700.73445  21380743.8474   21380741.3274
      2906.2104
  -1839434.23849  -1419472.69145  21320371.9094   21320367.4684
      2196.7804
    991647.07849    762866.18445  21310542.9804   21310539.2534
     -1373.2994
   1421765.78547   1092687.94542  23835517.7374   23835513.9404
     -1921.8514
  -1225331.98047   -948453.50042  23775024.5584   23775020.5264
      3802.2014
   1152000.80148    883700.31343  23147532.6124   23147529.9214
     -1542.0454
  -2404721.56248  -1855019.99246  21177462.0814   21177459.4014
      2957.0454
 04  9 14 15  7 29.9990000  0  7G 1G11G14G19G20G22G25
  -2376686.17649  -1833613.58645  21372462.1834   21372459.4804
      2901.4334
  -1872269.63349  -1445058.71545  21314123.6124   21314118.6634
      2189.0264
   1012291.47349    778952.70345  21314471.3624   21314467.8394
     -1376.2934
   1450613.84047   1115166.92642  23841007.5974   23841003.5654
     -1923.2044
  -1282370.05147   -992898.73042  23764170.5504   23764167.1364
      3802.5384
   1175158.48448    901745.18443  23151939.0344   23151936.3194
     -1543.8464
  -2448975.87949  -1889503.87146  21169040.2844   21169037.8474
      2950.2884
 04  9 14 15  7 44.9990000  0  7G 1G11G14G19G20G22G25
  -2420133.98049  -1867469.02045  21364194.3944   21364191.8194
      2896.5204
  -1904986.53149  -1470552.41445  21307897.8084   21307893.3704
      2181.1274
   1032982.57849    795075.63345  21318408.7224   21318405.6054
     -1379.4074
   1479483.81647   1137662.96142  23846501.5194   23846497.5504
     -1924.6654
  -1339410.88347  -1037346.12942  23753316.3474   23753312.3944
      3802.7224
   1198345.07048    919812.62543  23156352.1054   23156347.4764
     -1545.7724
  -2493126.60549  -1923907.03545  21160638.7764   21160636.1084
      2943.3824
 04  9 14 15  7 59.9990000  0  7G 1G11G14G19G20G22G25
  -2463509.82049  -1901268.38345  21355940.2614   21355937.4294
      2891.7234
  -1937586.64549  -1495955.10545  21301694.1204   21301689.6124
      2173.3414
   1053718.46549    811233.44545  21322355.0344   21322351.2534
     -1382.3924
   1508373.61747   1160174.46542  23851998.6984   23851994.7494
     -1925.9874
  -1396456.30147  -1081797.11342  23742460.6674   23742456.9644
      3803.0284
   1221558.82448    937901.21143  23160769.2144   23160765.0194
     -1547.5844
  -2537175.17649  -1958230.59445  21152256.3314   21152254.2144
      2936.5714
 04  9 14 15  8 14.9990000  0  7G 1G11G14G19G20G22G25
  -2506813.35949  -1935011.40245  21347699.7694   21347697.3624
      2886.9034
  -1970069.55149  -1521266.47745  21295512.8624   21295508.3784
      2165.5274
   1074498.98449    827426.05545  21326309.5654   21326306.2224
     -1385.3684
   1537283.08647   1182701.28542  23857500.1204   23857496.7264
     -1927.2984
  -1453505.97347  -1126251.39542  23731604.4094   23731600.7804
      3803.3114
   1244799.96948    956011.16443  23165192.2454   23165187.5974
     -1549.4104
  -2581121.18049  -1992474.22345  21143893.8864   21143891.6834
      2929.7344
 04  9 14 15  8 29.9990000  0  7G 1G11G14G19G20G22G25
  -2550044.41449  -1968697.94145  21339473.1124   21339470.6674
      2882.0704
  -2002434.82449  -1546486.18045  21289353.9644   21289349.7024
      2157.6854
   1095324.20749    843653.48445  21330272.0974   21330268.4994
     -1388.3484
   1566211.96147   1205243.21542  23863004.9404   23863001.3554
     -1928.5924
  -1510559.59847  -1170708.77042  23720747.3154   23720744.0854
      3803.5754
   1268068.77348    974142.67643  23169620.4014   23169615.6444
     -1551.2544
  -2624964.15249  -2026637.57845  21135550.8554   21135548.1794
      2922.8654
 04  9 14 15  8 44.9990000  0  7G 1G11G14G19G20G22G25
  -2593203.51649  -2002328.41445  21331260.1594   21331257.7184
      2877.2734
  -2034682.92649  -1571614.57845  21283217.2844   21283212.8514
      2149.8734
   1116193.23049    859915.05945  21334243.2844   21334239.6124
     -1391.2684
   1595159.32047   1227799.56642  23868513.9484   23868509.3124
     -1929.8244
  -1567617.64847  -1215169.57842  23709889.4644   23709886.0264
      3803.8704
   1291364.57448    992295.20343  23174053.2844   23174049.5774
     -1553.0534
  -2668704.42249  -2060720.90245  21127227.2144   21127224.6984
      2916.0184
 04  9 14 15  8 59.9990000  0  7G 1G11G14G19G20G22G25
  -2636289.88748  -2035902.21545  21323061.2534   21323058.6754
      2872.4254
  -2066812.88349  -1596650.91445  21277103.3474   21277099.0154
      2141.9974
   1137106.67649    876211.22745  21338223.4404   21338219.3904
     -1394.2304
   1624125.38746   1250370.50442  23874026.2694   23874021.7574
     -1931.0714
  -1624679.31646  -1259633.20742  23699030.6054   23699027.3274
      3804.1114
   1314688.02348   1010469.27043  23178490.9874   23178487.6244
     -1554.8974
  -2712341.10948  -2094723.49645  21118923.6834   21118921.0544
      2909.1134
 04  9 14 15  9 14.9990000  0  7G 1G11G14G19G20G22G25
  -2679303.75448  -2069419.52345  21314876.0814   21314873.0934
      2867.5914
  -2098824.76249  -1621595.24645  21271011.2844   21271007.3664
      2134.1254
   1158063.90249    892541.52345  21342211.2844   21342207.5114
     -1397.1484
   1653109.75446   1272955.67642  23879541.7374   23879537.3394
     -1932.2914
  -1681744.71947  -1304099.76242  23688172.2614   23688168.1124
      3804.3604
   1338038.99648   1028664.75843  23182934.4484   23182931.4294
     -1556.7324
  -2755874.17248  -2128645.35545  21110639.6984   21110636.2494
      2902.2044
 04  9 14 15  9 29.9990000  0  6G 1G11G14G20G22G25
  -2722244.95348  -2102880.21145  21306704.7064   21306701.9914
      2862.7474
  -2130718.43749  -1646447.45745  21264942.0424   21264938.2494
      2126.2454
   1179064.88349    908905.91045  21346207.4404   21346203.8784
     -1400.0654
  -1738813.67246  -1348569.05142  23677311.9644   23677308.0034
      3804.5974
   1361417.55948   1046881.77343  23187384.3004   23187379.9334
     -1558.5714
  -2799303.37548  -2162486.28545  21102375.3944   21102371.4954
      2895.2804
 04  9 14 15  9 44.9990000  0  6G 1G11G14G20G22G25
  -2765112.53148  -2136283.51645  21298547.3004   21298544.9444
      2857.8394
  -2162492.62949  -1671206.58245  21258895.8784   21258891.9954
      2118.2794
   1200110.48849    925305.07845  21350212.4954   21350208.7184
     -1403.0404
  -1795885.05946  -1393040.27742  23666451.5114   23666447.6324
      3804.7594
   1384824.48848   1065120.89843  23191838.2224   23191834.7184
     -1560.4624
  -2842627.33648  -2196245.21545  21094131.1204   21094128.0304
      2888.2644
 04  9 14 15  9 59.9990000  0  6G 1G11G14G20G22G25
  -2807907.36749  -2169630.14845  21290403.8784   21290400.9014
      2852.9894
  -2194148.04349  -1695873.14845  21252872.3944   21252868.0384
      2110.3614
   1221199.48449    941738.04345  21354225.6904   21354221.8744
     -1405.9334
  -1852959.67646  -1437514.01242  23655590.5814   23655587.2024
      3804.9744
   1408259.01248   1083381.51643  23196297.9954   23196294.6474
     -1562.3024
  -2885846.84049  -2229922.73845  21085906.7454   21085903.4604
      2881.3004
 04  9 14 15 10 14.9990000  0  6G 1G11G14G20G22G25
  -2850627.73849  -2202918.75045  21282273.9014   21282271.3394
      2848.0254
  -2225682.90649  -1720445.78545  21246871.4174   21246867.0584
      2102.3244
   1242333.28149    958205.92645  21358246.9014   21358243.6594
     -1408.9204
  -1910035.87146  -1481988.93742  23644729.3944   23644725.6244
      3805.0804
   1431722.71948   1101664.89843  23200762.6124   23200758.7264
     -1564.2474
  -2928959.89849  -2263517.32045  21077702.5264   21077698.7144
      2874.2044
 04  9 14 15 10 29.9990000  0  6G 1G11G14G20G22G25
  -2893273.25049  -2236149.03145  21274159.0654   21274156.2374
      2843.0344
  -2257096.62949  -1744924.02345  21240893.7304   21240889.1904
      2094.2484
   1263512.15249    974708.92645  21362277.3314   21362273.9484
     -1411.9254
  -1967113.11347  -1526464.72742  23633867.4254   23633864.2374
      3805.1494
   1455216.08647   1119971.36743  23205232.8944   23205229.4174
     -1566.2244
  -2971965.99249  -2297028.56245  21069518.6674   21069515.4764
      2867.0734
 04  9 14 15 10 44.9990000  0  6G 1G11G14G20G22G25
  -2935843.98849  -2269321.03145  21266057.9484   21266055.1834
      2838.0494
  -2288389.14149  -1769307.79345  21234938.6904   21234934.6244
      2086.1674
   1284735.69949    991246.73845  21366316.1124   21366312.2494
     -1414.9034
  -2024191.34046  -1570941.29742  23623006.3704   23623002.6444
      3805.2154
   1478738.96947   1138300.83642  23209709.0114   23209705.7924
     -1568.1924
  -3014864.98849  -2330456.35245  21061355.0034   21061352.2304
      2859.9334
 04  9 14 15 10 59.9990000  0  6G 1G11G14G20G22G25
  -2978340.43049  -2302435.14145  21257971.3704   21257968.4054
      2833.0964
  -2319560.89149  -1793597.48045  21229006.6204   21229002.6244
      2078.1174
   1306003.21949   1007818.82845  21370363.1514   21370359.4524
     -1417.8354
  -2081271.00046  -1615418.95342  23612144.2844   23612140.5894
      3805.3114
   1502290.87548   1156652.88742  23214191.6984   23214188.0034
     -1570.1274
  -3057657.09049  -2363800.84045  21053212.2764   21053208.8624
      2852.8074
 04  9 14 15 11 14.9990000  0  6G 1G11G14G20G22G25
  -3020761.06649  -2335490.18045  21249898.7224   21249895.9094
      2828.0424
  -2350610.20749  -1817791.75445  21223098.2534   21223094.4404
      2069.9544
   1327315.78149   1024426.00845  21374418.7844   21374415.2574
     -1420.8374
  -2138350.62146  -1659896.57842  23601282.6364   23601278.1754
      3805.3084
   1525873.09048   1175028.56643  23218679.5584   23218675.5264
     -1572.1484
  -3100340.68749  -2397060.79746  21045089.8864   21045086.4954
      2845.5734
 04  9 14 15 11 29.9990000  0  6G 1G11G14G20G22G25
  -3063107.71949  -2368487.57445  21241840.2454   21241837.6834
      2823.1104
  -2381538.71949  -1841891.90245  21217212.7844   21217208.8554
      2061.9014
   1348671.48849   1041066.80545  21378482.6754   21378479.2964
     -1423.7144
  -2195431.74246  -1704375.38342  23590420.8154   23590416.5934
      3805.4084
   1549483.82848   1193426.53543  23223172.5654   23223168.4874
     -1574.0494
  -3142917.35249  -2430237.41045  21036987.8084   21036984.4604
      2838.4444
 04  9 14 15 11 44.9990000  0  6G 1G11G14G20G22G25
  -3105379.73049  -2401426.80545  21233796.4724   21233793.2304
      2818.1344
  -2412345.60249  -1865897.27345  21211350.4094   21211346.3904
      2053.7924
   1370070.78549   1057741.57845  21382554.8474   21382551.2694
     -1426.6204
  -2252513.75046  -1748854.88742  23579557.9724   23579553.8394
      3805.4674
   1573123.74648   1211847.19543  23227670.4404   23227668.0424
     -1575.9954
  -3185386.18049  -2463329.99645  21028906.2454   21028903.1904
      2831.2554
 04  9 14 15 11 59.9990000  0  6G 1G11G14G20G22G25
  -3147577.02749  -2434307.81645  21225766.4874   21225763.8084
      2813.1534
  -2443030.69549  -1889807.73845  21205511.4334   21205507.2924
      2045.6734
   1391513.42249   1074450.10545  21386635.2304   21386632.1874
     -1429.5094
  -2309596.56246  -1793335.00042  23568696.0504   23568692.1084
      3805.5214
   1596792.90648   1230290.65243  23232174.6754   23232170.7224
     -1577.9444
  -3227746.93049  -2496338.36745  21020844.9334   21020842.1364
      2824.0504
 04  9 14 15 12 14.9990000  0  6G 1G11G14G20G22G25
  -3189700.95349  -2467131.65645  21217750.5974   21217747.5424
      2808.2624
  -2473595.25449  -1913624.28145  21199694.9484   21199691.2614
      2037.6374
   1412997.76249   1091191.13745  21390723.4954   21390720.2184
     -1432.2894
  -2366681.41046  -1837816.69942  23557833.3704   23557829.4054
      3805.6574
   1620489.77047   1248755.75042  23236683.3784   23236680.1054
     -1579.7914
  -3270000.77749  -2529263.43446  21012804.2144   21012801.6084
      2816.9234
 04  9 14 15 12 29.9990000  0  6G 1G11G14G20G22G25
  -3231749.46549  -2499896.73445  21209748.9724   21209746.3154
      2803.2344
  -2504036.94949  -1937345.10245  21193902.0504   21193898.1244
      2029.4464
   1434525.72349   1107966.16445  21394820.4724   21394816.6874
     -1435.1974
  -2423766.14846  -1882298.32042  23546970.1054   23546966.3824
      3805.6494
   1644216.62547   1267244.15642  23241197.9724   23241195.3744
     -1581.7904
  -3312145.42649  -2562103.40645  21004784.3554   21004781.7264
      2809.6434
 04  9 14 15 12 44.9990000  0  6G 1G11G14G20G22G25
  -3273723.15249  -2532603.51645  21201761.7224   21201759.0854
      2798.2464
  -2534356.39549  -1960970.64145  21188132.6204   21188128.2654
      2021.2964
   1456096.43449   1124774.50045  21398925.1204   21398921.6164
     -1438.0474
  -2480851.21546  -1926780.19542  23536106.5114   23536103.0624
      3805.6714
   1667972.65248   1285755.27342  23245719.1984   23245715.9764
     -1583.7354
  -3354181.21949  -2594858.56245  20996785.4804   20996783.1634
      2802.3864
 04  9 14 15 12 59.9990000  0  6G 1G11G14G20G22G25
  -3315622.61349  -2565252.43745  21193788.4334   21193785.9294
      2793.2974
  -2564554.01649  -1984501.25845  21182386.0654   21182382.1834
      2013.1754
   1477709.04349   1141615.48845  21403037.7374   21403034.1634
     -1440.8414
  -2537937.22746  -1971262.81242  23525243.5264   23525239.1674
      3805.7344
   1691757.18848   1304288.64543  23250245.5504   23250241.9484
     -1585.6364
  -3396108.60549  -2627529.25046  20988806.6834   20988804.4564
      2795.1594
 04  9 14 15 13 14.9990000  0  6G 1G11G14G20G22G25
  -3357447.21149  -2597843.04745  21185829.4954   21185826.7654
      2788.3074
  -2594629.13349  -2007936.42245  21176662.9804   21176659.0734
      2005.0084
   1499363.92649   1158489.40645  21407158.7374   21407154.8744
     -1443.6594
  -2595023.44146  -2015745.59042  23514380.7374   23514376.5074
      3805.7484
   1715570.84048   1322844.67243  23254777.4644   23254773.7844
     -1587.5774
  -3437926.75849  -2660114.82046  20980849.1834   20980846.7104
      2787.8774
 04  9 14 15 13 29.9990000  0  6G 1G11G14G20G22G25
  -3399196.97349  -2630375.32445  21177884.8624   21177882.1404
      2783.3174
  -2624581.49649  -2031275.94145  21170963.7534   21170959.3004
      1996.8244
   1521060.85949   1175396.10245  21411287.5194   21411283.6874
     -1446.4624
  -2652109.78946  -2060228.43042  23503517.6364   23503513.7334
      3805.7574
   1739413.60948   1341423.41843  23259314.9094   23259311.6714
     -1589.5184
  -3479635.63349  -2692615.22746  20972912.4564   20972910.2184
      2780.5924
 04  9 14 15 13 44.9990000  0  6G 1G11G14G20G22G25
  -3440872.41049  -2662849.69545  21169953.9564   21169951.3624
      2778.3634
  -2654411.46549  -2054520.07845  21165286.8234   21165282.8664
      1988.6654
   1542799.06349   1192334.94945  21415424.0974   21415420.5154
     -1449.2144
  -2709196.63746  -2104711.70342  23492654.8234   23492650.6554
      3805.7904
   1763284.94948   1360024.43042  23263856.8554   23263853.9404
     -1591.4234
  -3521235.46149  -2725030.66445  20964996.0264   20964993.3624
      2773.3224
 04  9 14 15 13 59.9990000  0  6G 1G11G14G20G22G25
  -3482474.24249  -2695266.70745  21162037.7064   21162034.8434
      2773.4554
  -2684119.62149  -2077669.30945  21159633.8944   21159629.1554
      1980.5444
   1564577.52749   1209305.16845  21419568.2224   21419564.6834
     -1451.8984
  -2766284.74646  -2149195.95742  23481791.0584   23481787.2184
      3805.8744
   1787184.19547   1378647.14142  23268404.8394   23268400.6164
     -1593.2834
  -3562726.70749  -2757361.50046  20957100.7924   20957098.3154
      2766.0834
 04  9 14 15 14 14.9990000  0  6G 1G11G14G20G22G25
  -3524000.83249  -2727625.09445  21154135.2614   21154132.5304
      2768.4394
  -2713704.34049  -2100722.34045  21154003.8944   21153999.6514
      1972.3154
   1586397.68049   1226307.87145  21423720.8314   21423717.3234
     -1454.6774
  -2823372.38746  -2193679.80142  23470927.2764   23470924.5304
      3805.8434
   1811112.74247   1397292.73842  23272958.3624   23272954.0424
     -1595.2364
  -3604107.52349  -2789606.29346  20949225.9334   20949223.3004
      2758.7214
 04  9 14 15 14 29.9990000  0  6G 1G11G14G20G22G25
  -3565452.52049  -2759925.10545  21146247.2064   21146244.4954
      2763.4464
  -2743165.69549  -2123679.25045  21148397.7924   21148392.9994
      1964.0904
   1608258.90649   1243342.58645  21427880.5034   21427877.3584
     -1457.4154
  -2880459.75846  -2238163.46942  23460063.9334   23460061.2304
      3805.8254
   1835070.38347   1415960.95342  23277516.4254   23277513.1444
     -1597.1764
  -3645378.17249  -2821765.22746  20941372.5504   20941369.1874
      2751.3774
 04  9 14 15 14 44.9990000  0  6G 1G11G14G20G22G25
  -3606830.15249  -2792167.42245  21138373.5264   21138370.3944
      2758.5094
  -2772504.47749  -2146540.64845  21142814.8784   21142810.1084
      1955.9194
   1630160.14149   1260408.46945  21432048.5344   21432044.9524
     -1460.0824
  -2937547.66845  -2282647.55942  23449200.4484   23449197.3124
      3805.8614
   1859056.01648   1434651.04742  23282082.4804   23282076.6054
     -1599.0424
  -3686539.16049  -2853838.73046  20933539.7614   20933536.6084
      2744.0664
 04  9 14 15 14 59.9990000  0  6G 1G11G14G20G22G25
  -3648132.24249  -2824350.87145  21130514.0814   21130511.3704
      2753.4734
  -2801718.98049  -2169305.20745  21137255.3314   21137250.8234
      1947.6344
   1652102.68449   1277506.54745  21436224.1204   21436220.0934
     -1462.8364
  -2994634.44146  -2327130.76642  23438337.2534   23438333.3474
      3805.7854
   1883071.20348   1453364.17242  23286652.1054   23286647.4834
     -1601.0124
  -3727588.89549  -2885825.54345  20925728.4404   20925725.6444
      2736.6494
 04  9 14 15 15 14.9990000  0  6G 1G11G14G20G22G25
  -3689360.03949  -2856476.42645  21122668.4564   21122665.9684
      2748.5204
  -2830810.39849  -2191973.85945  21131719.3084   21131715.1514
      1939.4284
   1674085.04349   1294635.64145  21440407.3394   21440403.2534
     -1465.4914
  -3051721.29746  -2371614.03542  23427474.1594   23427470.0894
      3805.7904
   1907114.74648   1472099.33243  23291226.8004   23291223.8664
     -1602.9034
  -3768528.42649  -2917726.47345  20917937.7064   20917934.6364
      2729.3024
 04  9 14 15 15 29.9990000  0  6G 1G11G14G20G22G25
  -3730513.01649  -2888543.68445  21114837.2924   21114834.5224
      2743.5324
  -2859778.09849  -2214546.09445  21126206.9334   21126202.7804
      1931.1804
   1696107.50449   1311795.98845  21444597.6674   21444593.9954
     -1468.1644
  -3108807.70346  -2416096.94142  23416611.0654   23416606.9644
      3805.7604
   1931187.13748   1490856.98043  23295808.5734   23295804.6404
     -1604.8264
  -3809357.00449  -2949540.95346  20910168.4334   20910165.0734
      2721.9054
 04  9 14 15 15 44.9990000  0  6G 1G11G14G20G22G25
  -3771592.40649  -2920553.59445  21107020.2454   21107017.2264
      2738.6264
  -2888623.13349  -2237022.76245  21120717.7614   21120713.8354
      1923.0024
   1718168.63349   1328986.46945  21448795.6284   21448792.0224
     -1470.7424
  -3165894.77746  -2460580.39542  23405747.5114   23405743.4094
      3805.8054
   1955287.03147   1509636.08242  23300393.2304   23300390.1904
     -1606.6604
  -3850075.85249  -2981269.93045  20902419.9954   20902416.7374
      2714.5904
 04  9 14 15 15 59.9990000  0  6G 1G11G14G20G22G25
  -3812596.78149  -2952505.05945  21099217.5424   21099214.5624
      2733.6254
  -2917343.85249  -2259402.54745  21115252.3944   21115248.5544
      1914.7154
   1740269.62549   1346208.00045  21453001.6364   21452997.9374
     -1473.3994
  -3222980.92646  -2505063.11342  23394884.3234   23394879.7144
      3805.7434
   1979415.94547   1528437.73842  23304985.5264   23304981.6874
     -1608.5944
  -3890683.17249  -3012911.98445  20894692.3864   20894689.7414
      2707.1554
 04  9 14 15 16 14.9990000  0  6G 1G11G14G20G22G25
  -3853527.09049  -2984398.80545  21091428.8704   21091426.2924
      2728.6874
  -2945941.32449  -2281686.30545  21109810.5504   21109806.0934
      1906.4984
   1762409.25049   1363459.64545  21457214.6054   21457211.0694
     -1475.9754
  -3280066.97746  -2549545.75842  23384021.4724   23384017.0974
      3805.7374
   2003572.77047   1547261.19542  23309583.3234   23309579.2614
     -1610.4554
  -3931179.68749  -3044467.69946  20886986.5654   20886983.4484
      2699.7684
 04  9 14 15 16 29.9990000  0  6G 1G11G14G20G22G25
  -3894382.48448  -3016234.16845  21083654.1754   21083651.6554
      2723.6934
  -2974414.43749  -2303873.15645  21104392.6124   21104388.1404
      1898.2084
   1784588.16049   1380741.90645  21461435.3394   21461431.6364
     -1478.5944
  -3337152.00047  -2594027.60942  23373158.4954   23373154.4294
      3805.6684
   2027758.32848   1566107.04742  23314184.7924   23314180.9134
     -1612.3714
  -3971564.39548  -3075936.30145  20879301.4564   20879297.8124
      2692.3144
 04  9 14 15 16 44.9990000  0  6G 1G11G14G20G22G25
  -3935163.09048  -3048011.27045  21075894.0114   21075891.0074
      2718.7074
  -3002763.17649  -2325963.08645  21098997.8394   21098993.5154
      1889.9164
   1806806.06349   1398054.52745  21465663.1284   21465659.0224
     -1481.1934
  -3394235.98846  -2638508.62942  23362295.6444   23362291.9254
      3805.5994
   2051972.44148   1584975.20742  23318792.5424   23318787.9874
     -1614.2744
  -4011837.23448  -3107317.72345  20871637.3394   20871634.7924
      2684.8564
 04  9 14 15 16 59.9990000  0  6G 1G11G14G20G22G25
  -3975868.69148  -3079729.92245  21068147.7844   21068145.3434
      2713.7074
  -3030987.21949  -2347955.85945  21093627.1754   21093622.7224
      1881.6034
   1829062.81649   1415397.44544  21469898.6054   21469894.3434
     -1483.7844
  -3451318.69546  -2682988.67642  23351433.7844   23351429.2724
      3805.5144
   2076215.34848   1603865.77043  23323405.9564   23323402.8124
     -1616.1944
  -4051997.82448  -3138611.68445  20863995.2924   20863992.1204
      2677.3734
 04  9 14 15 17 14.9990000  0  6G 1G11G14G20G22G25
  -4016499.17248  -3111390.03945  21060416.1514   21060413.5224
      2708.6994
  -3059086.35549  -2369851.28945  21088280.0034   21088275.0304
      1873.2764
   1851358.31649   1432770.56345  21474141.0344   21474137.4214
     -1486.3674
  -3508399.95746  -2727467.59442  23340571.1124   23340567.4604
      3805.4174
   2100487.08647   1622778.77342  23328024.6594   23328021.2884
     -1618.1164
  -4092045.95749  -3169818.02345  20856374.3234   20856371.1284
      2669.8764
 04  9 14 15 17 29.9990000  0  6G 1G11G14G20G22G25
  -4057054.69549  -3142991.73845  21052698.6594   21052696.2184
      2703.7024
  -3087060.66449  -2391649.46145  21082956.4334   21082952.1794
      1864.9544
   1873692.18449   1450173.55144  21478391.0264   21478387.4254
     -1488.9244
  -3565479.90646  -2771945.48442  23329709.1124   23329705.0814
      3805.3304
   2124787.44148   1641714.05543  23332648.5344   23332645.2104
     -1620.0244
  -4131981.46549  -3200936.59846  20848774.9404   20848771.7804
      2662.3674
 04  9 14 15 17 44.9990000  0  6G 1G11G14G20G22G25
  -4097535.03549  -3174534.85945  21044995.3234   21044993.1474
      2698.6894
  -3114909.72349  -2413350.03145  21077657.2064   21077652.5224
      1856.6044
   1896064.37949   1467606.40644  21482648.1834   21482644.8584
     -1491.4804
  -3622558.12946  -2816422.02042  23318847.6594   23318843.2334
      3805.2154
   2149116.65248   1660671.84043  23337278.7694   23337275.9404
     -1621.9474
  -4171803.91049  -3231967.07046  20841196.7144   20841193.6874
      2654.8304
 04  9 14 15 17 59.9990000  0  6G 1G11G14G20G22G25
  -4137939.57049  -3206018.91445  21037306.5194   21037304.1984
      2693.6364
  -3142632.88749  -2434952.50445  21072381.8084   21072376.9444
      1848.2114
   1918475.41449   1485069.54745  21486912.9724   21486909.0544
     -1494.0694
  -3679633.94546  -2860896.67642  23307986.4644   23307981.7144
      3805.0544
   2173475.28148   1679652.50843  23341914.4014   23341911.8784
     -1623.9094
  -4211512.67249  -3262908.95746  20833640.5584   20833637.4564
      2647.2514
 04  9 14 15 18 14.9990000  0  6G 1G11G14G20G22G25
  -4178268.26249  -3237443.86745  21029632.5114   21029630.0814
      2688.5794
  -3170229.94549  -2456456.70745  21067130.2454   21067125.6674
      1839.8044
   1940925.06649   1502562.75844  21491184.9724   21491181.1594
     -1496.6434
  -3736707.13346  -2905369.28942  23297125.4724   23297121.6444
      3804.8794
   2197863.35548   1698656.14143  23346555.8864   23346552.6084
     -1625.8724
  -4251107.34049  -3293761.93446  20826106.0894   20826102.4564
      2639.6454
 04  9 14 15 18 29.9990000  0  6G 1G11G14G20G22G25
  -4218521.32049  -3268809.88345  21021972.5344   21021969.9054
      2683.5374
  -3197700.88349  -2477862.64145  21061902.7304   21061897.8974
      1831.3964
   1963412.79749   1520085.66045  21495464.0654   21495460.8864
     -1499.1824
  -3793777.84846  -2949839.97742  23286265.2304   23286261.6834
      3804.7144
   2222280.67248   1717682.61343  23351202.1204   23351197.9954
     -1627.8214
  -4290587.99649  -3324526.06646  20818593.0034   20818589.8744
      2632.0444
 04  9 14 15 18 44.9990000  0  6G 1G11G14G20G22G25
  -4258698.87948  -3300117.07445  21014327.0344   21014324.5854
      2678.5044
  -3225045.89549  -2499170.44545  21056698.8474   21056694.6324
      1823.0014
   1985938.33248   1537638.00845  21499750.9404   21499747.0854
     -1501.7024
  -3850846.18046  -2994308.81642  23275405.7924   23275401.9564
      3804.5554
   2246727.07848   1736731.72343  23355854.3394   23355850.1874
     -1629.7604
  -4329954.58649  -3355201.32446  20811102.0034   20811098.8584
      2624.4394
 04  9 14 15 18 59.9990000  0  6G 1G11G14G20G22G25
  -4298801.21148  -3331365.63745  21006695.8394   21006693.1474
      2673.4894
  -3252264.87949  -2520380.05545  21051519.5894   21051515.1324
      1814.5994
   2008501.23849   1555219.48444  21504044.2304   21504040.7614
     -1504.1944
  -3907912.14146  -3038775.75842  23264546.8624   23264542.6204
      3804.3974
   2271202.27048   1755803.27042  23360511.5974   23360507.0424
     -1631.6794
  -4369207.14848  -3385787.73046  20803632.2844   20803629.6054
      2616.8384
 04  9 14 15 19 14.9990000  0  6G 1G11G14G20G22G25
  -4338828.37548  -3362555.63745  20999078.6674   20999076.3194
      2668.4784
  -3279357.95349  -2541491.55145  21046363.8864   21046359.0624
      1806.2054
   2031101.13349   1572829.77344  21508344.9484   21508341.1674
     -1506.6604
  -3964975.71546  -3083240.94142  23253687.6674   23253683.9014
      3804.2384
   2295706.07847   1774897.12542  23365174.0264   23365169.2104
     -1633.5874
  -4408345.64549  -3416285.25446  20796184.6514   20796181.6014
      2609.2334
 04  9 14 15 19 29.9990000  0  6G 1G11G14G20G22G25
  -4378780.99649  -3393687.53945  20991476.0034   20991473.2104
      2663.5084
  -3306325.49249  -2562505.21945  21041232.2764   21041227.5034
      1797.8364
   2053737.21948   1590468.27744  21512651.9724   21512649.2924
     -1509.0724
  -4022037.40646  -3127704.57842  23242829.2844   23242825.4874
      3804.1134
   2320237.92247   1794012.82842  23369841.2924   23369838.2494
     -1635.4564
  -4447370.31249  -3446694.07446  20788758.4014   20788755.2104
      2601.6454
 04  9 14 15 19 44.9990000  0  6G 1G11G14G20G22G25
  -4418658.59849  -3424761.00045  20983887.8864   20983884.6634
      2658.5074
  -3333167.13749  -2583420.80545  21036124.2374   21036119.9874
      1789.4434
   2076409.83649   1608135.22344  21516966.8704   21516963.7804
     -1511.5084
  -4079096.64846  -3172166.33242  23231971.5034   23231967.1474
      3803.9494
   2344798.21548   1813150.63742  23374516.3394   23374512.9764
     -1637.3534
  -4486280.58249  -3477013.76646  20781354.0194   20781350.9054
      2594.0184
 04  9 14 15 19 59.9990000  0  6G 1G11G14G20G22G25
  -4458460.93449  -3455775.80545  20976313.6284   20976310.5544
      2653.4894
  -3359882.45349  -2604237.94145  21031041.0584   21031036.3864
      1781.0214
   2099118.94548   1625830.62544  21521288.3944   21521284.6204
     -1513.9414
  -4136153.12946  -3216625.91042  23221113.8624   23221109.7184
      3803.7654
   2369387.14848   1832310.77743  23379195.7374   23379192.4604
     -1639.2624
  -4525076.10549  -3507244.04346  20773971.4804   20773968.2224
      2586.3684
 04  9 14 15 20 14.9990000  0  6G 1G11G14G20G22G25
  -4498188.03149  -3486731.98445  20968753.5504   20968750.6284
      2648.4734
  -3386471.16849  -2624956.42645  21025980.8154   21025976.3624
      1772.5814
   2121864.34048   1643554.29344  21525616.4644   21525613.0854
     -1516.3604
  -4193206.87946  -3261083.38342  23210256.4564   23210252.9914
      3803.5834
   2394004.75048   1851493.26243  23383880.5894   23383876.5814
     -1641.1734
  -4563756.68049  -3537384.74246  20766610.8314   20766607.5464
      2578.7054
 04  9 14 15 20 29.9990000  0  6G 1G11G14G20G22G25
  -4537840.73449  -3517630.19145  20961207.9644   20961205.1364
      2643.5144
  -3412934.10249  -2645576.90245  21020945.2614   21020940.6944
      1764.1964
   2144645.00048   1661305.44944  21529951.4564   21529947.8864
     -1518.7114
  -4250258.41446  -3305539.14842  23199400.4644   23199396.5894
      3803.4364
   2418650.14848   1870697.44943  23388570.4564   23388565.5264
     -1643.0274
  -4602322.87149  -3567436.32446  20759271.8474   20759268.8234
      2571.0794
 04  9 14 15 20 44.9990000  0  6G 1G11G14G20G22G25
  -4577418.14549  -3548469.73845  20953676.9564   20953674.0814
      2638.4944
  -3439270.34849  -2666098.66445  21015933.5344   21015929.1054
      1755.7504
   2167461.47748   1679084.51644  21534293.5344   21534289.9484
     -1521.0984
  -4307306.83247  -3349992.46142  23188544.1204   23188540.9294
      3803.2284
   2443324.17648   1889923.93443  23393265.6754   23393261.5154
     -1644.9354
  -4640773.69549  -3597397.99245  20751954.8864   20751952.0074
      2563.3884
 04  9 14 15 20 59.9990000  0  6G 1G11G14G20G22G25
  -4616921.01649  -3579251.19945  20946159.6124   20946156.6834
      2633.5254
  -3465480.37149  -2686522.07445  21010945.9564   21010941.6164
      1747.3354
   2190312.92648   1696890.82444  21538642.2224   21538638.4014
     -1523.4304
  -4364352.72747  -3394443.80542  23177688.6124   23177685.2534
      3803.0604
   2468026.04347   1909172.08242  23397965.4724   23397961.8084
     -1646.7914
  -4679109.65649  -3627270.16845  20744659.7224   20744656.7614
      2555.7314
 04  9 14 15 21 14.9990000  0  6G 1G11G14G20G22G25
  -4656348.01249  -3609973.53546  20938656.9644   20938654.3904
      2628.4664
  -3491562.78549  -2706846.03545  21005982.8084   21005978.2724
      1738.8284
   2213200.43048   1714725.22744  21542997.2224   21542993.8624
     -1525.8344
  -4421394.65247  -3438892.07042  23166834.2614   23166830.5114
      3802.7954
   2492757.14147   1928443.02042  23402671.5034   23402667.3434
     -1648.7404
  -4717329.34049  -3657051.73445  20737386.8154   20737383.9174
      2547.9794
 04  9 14 15 21 29.9990000  0  6G 1G11G14G20G22G25
  -4695699.94549  -3640637.37545  20931168.7374   20931165.9404
      2623.4624
  -3517518.35549  -2727071.16445  21001043.5264   21001039.4254
      1730.3714
   2236122.80148   1732586.79744  21547359.0344   21547355.7144
     -1528.1584
  -4478433.30947  -3483337.77342  23155980.5974   23155976.3234
      3802.5774
   2517516.54747   1947736.09442  23407382.4954   23407377.4604
     -1650.6274
  -4755433.46149  -3686743.26645  20730135.9954   20730132.7964
      2540.2754
 04  9 14 15 21 44.9990000  0  6G 1G11G14G20G22G25
  -4734976.71549  -3671242.65645  20923694.3314   20923691.6284
      2618.4514
  -3543346.85249  -2747197.26645  20996128.6514   20996124.0654
      1721.9004
   2259080.05948   1750475.55944  21551727.8084   21551724.6944
     -1530.4844
  -4535468.62547  -3527780.88342  23145126.1054   23145123.1594
      3802.3544
   2542304.41447   1967051.24242  23412100.1754   23412096.1514
     -1652.5244
  -4793421.64549  -3716344.44546  20722906.7924   20722904.1164
      2532.5464
 04  9 14 15 21 59.9990000  0  6G 1G11G14G20G22G25
  -4774177.32449  -3701788.58245  20916234.6284   20916232.3974
      2613.3744
  -3569047.18749  -2767223.51645  20991237.6124   20991233.8584
      1713.3564
   2282072.91848   1768392.06644  21556103.3314   21556100.1404
     -1532.8574
  -4592499.36747  -3572220.43042  23134274.0584   23134270.0814
      3802.0494
   2567121.61748   1986389.24643  23416823.8474   23416819.5154
     -1654.4804
  -4831292.87149  -3745854.48846  20715700.4254   20715697.0504
      2524.7484
 04  9 14 15 22 14.9990000  0  6G 1G11G14G20G22G25
  -4813302.04349  -3732275.37145  20908789.8004   20908787.1514
      2608.3154
  -3594619.40649  -2787149.92245  20986371.6124   20986367.3004
      1704.8154
   2305101.05548   1786336.05144  21560485.6204   21560482.0154
     -1535.2094
  -4649525.62147  -3616656.48042  23123422.4484   23123418.4134
      3801.7504
   2591967.79348   2005749.87943  23421552.3084   23421547.3394
     -1656.4124
  -4869047.04749  -3775273.31246  20708515.9254   20708512.7264
      2516.9454
 04  9 14 15 22 29.9990000  0  6G 1G11G14G20G22G25
  -4852351.96549  -3762703.87945  20901358.8234   20901355.8434
      2603.3284
  -3620064.61349  -2806977.35945  20981529.5424   20981525.3354
      1696.3474
   2328163.16448   1804306.50844  21564873.8474   21564870.7804
     -1537.4744
  -4706548.47747  -3661089.87942  23112571.4174   23112567.4294
      3801.5244
   2616841.92248   2025132.29343  23426285.2374   23426281.0934
     -1658.2754
  -4906685.07449  -3804601.65246  20701353.7144   20701350.5654
      2509.2024
 04  9 14 15 22 44.9990000  0  6G 1G11G14G20G22G25
  -4891327.13349  -3793074.13745  20893941.8154   20893939.6164
      2598.3454
  -3645382.66849  -2826705.72345  20976711.4484   20976707.2304
      1687.8704
   2351258.93448   1822303.18844  21569269.2454   21569265.5584
     -1539.7184
  -4763567.80147  -3705520.53142  23101720.3004   23101716.8124
      3801.2884
   2641743.93847   2044536.37542  23431023.0974   23431020.5344
     -1660.1344
  -4944206.92249  -3833839.44146  20694213.5114   20694210.6984
      2501.4574
 04  9 14 15 22 59.9990000  0  6G 1G11G14G20G22G25
  -4930227.82849  -3823386.36745  20886539.3624   20886536.7494
      2593.3804
  -3670573.69949  -2846335.10245  20971917.8314   20971913.3904
      1679.4024
   2374387.95748   1840325.79344  21573670.0654   21573667.0304
     -1541.9354
  -4820583.74647  -3749948.53142  23090871.1284   23090866.5894
      3801.0634
   2666673.58647   2063962.00442  23435767.4014   23435764.3704
     -1661.9774
  -4981612.68449  -3862986.78946  20687095.1904   20687092.8314
      2493.7174
 04  9 14 15 23 14.9990000  0  6G 1G11G14G20G22G25
  -4969052.12949  -3853639.06245  20879151.5734   20879149.0854
      2588.2874
  -3695635.81249  -2865864.03145  20967148.9334   20967144.4914
      1670.8084
   2397551.85948   1858375.57044  21578078.2534   21578074.9294
     -1544.2604
  -4877594.34847  -3794372.40242  23080022.3234   23080017.4404
      3800.7074
   2691632.82046   2083410.69542  23440516.2694   23440513.8194
     -1663.9494
  -5018900.28149  -3892042.05546  20679999.6514   20679997.0074
      2485.8404
 04  9 14 15 23 29.9990000  0  6G 1G11G14G20G22G25
  -5007800.10249  -3883832.28546  20871777.9404   20871775.6674
      2583.1984
  -3720568.93049  -2885292.44545  20962404.0734   20962399.7454
      1662.2084
   2420750.35948   1876452.30944  21582493.0264   21582489.3354
     -1546.5674
  -4934599.41847  -3838791.94542  23069174.5114   23069170.1874
      3800.3384
   2716621.46947   2102882.31342  23445271.3004   23445268.3864
     -1665.9104
  -5056069.52049  -3921005.09046  20672926.5344   20672923.8514
      2477.9494
 04  9 14 15 23 44.9990000  0  6G 1G11G14G20G22G25
  -5046472.30149  -3913966.46546  20864418.8784   20864416.3624
      2578.1474
  -3745373.42649  -2904620.64546  20957684.3944   20957680.1794
      1653.6334
   2443982.75848   1894555.46144  21586914.0974   21586910.5304
     -1548.8274
  -4991599.55147  -3883207.62942  23058327.7614   23058323.4134
      3800.0094
   2741638.87147   2122376.35942  23450032.4954   23450028.2224
     -1667.8274
  -5093120.82049  -3949876.23046  20665876.0894   20665873.6474
      2470.0874
 04  9 14 15 23 59.9990000  0  6G 1G11G14G20G22G25
  -5085068.76649  -3944041.62546  20857074.1834   20857071.7264
      2573.0984
  -3770049.27749  -2923848.58646  20952988.4334   20952984.5154
      1645.0574
   2467248.78948   1912684.82044  21591340.9404   21591337.6944
     -1551.0694
  -5048594.46147  -3927619.24642  23047481.7614   23047477.3474
      3799.6614
   2766685.02747   2141892.80542  23454799.5584   23454795.3744
     -1669.7444
  -5130054.04749  -3978655.36346  20658847.9874   20658845.1014
      2462.2154
 04  9 14 15 24 14.9990000  0  6G 1G11G14G20G22G25
  -5123589.69549  -3974057.93446  20849743.9014   20849741.3624
      2568.0624
  -3794596.58649  -2942976.36345  20948317.1364   20948313.0734
      1636.4874
   2490548.09048   1930840.09844  21595775.0194   21595771.5934
     -1553.2874
  -5105584.29347  -3972026.91442  23036637.1594   23036632.6554
      3799.3224
   2791759.71947   2161431.51242  23459570.5504   23459566.6404
     -1671.6464
  -5166869.09049  -4007342.40646  20651842.3704   20651839.7264
      2454.3364
 04  9 14 15 24 29.9990000  0  6G 1G11G14G20G22G25
  -5162034.71149  -4004015.09446  20842428.1284   20842425.3624
      2563.0014
  -3819014.72749  -2962003.50446  20943670.6904   20943666.9014
      1627.8764
   2513880.77048   1949021.39144  21600214.6594   21600211.8274
     -1555.5124
  -5162568.55947  -4016430.25442  23025792.7764   23025788.7964
      3798.9514
   2816863.29347   2180992.67643  23464347.9954   23464344.3584
     -1673.5724
  -5203565.61749  -4035937.08646  20644859.4484   20644856.5624
      2446.4354
 04  9 14 15 24 44.9990000  0  6G 1G11G14G20G22G25
  -5200403.69149  -4033912.99646  20835126.5114   20835123.8354
      2557.9324
  -3843303.63348  -2980929.93046  20939048.6204   20939044.8004
      1619.2604
   2537246.78948   1967228.66844  21604661.6204   21604658.4054
     -1557.7354
  -5219547.10547  -4060829.12542  23014950.3704   23014946.2334
      3798.5704
   2841995.77747   2200576.38343  23469130.0974   23469127.3154
     -1675.4994
  -5240143.19549  -4064439.09846  20637898.6204   20637896.1904
      2438.5054
 04  9 14 15 24 59.9990000  0  6G 1G11G14G20G22G25
  -5238697.50849  -4063752.33245  20827839.4804   20827836.6204
      2552.9214
  -3867464.09848  -2999756.27745  20934450.9644   20934447.2104
      1610.6984
   2560644.98849   1985461.01244  21609114.4954   21609110.5344
     -1559.8804
  -5276520.62947  -4105224.07842  23004108.6514   23004104.9524
      3798.2354
   2867156.34447   2220181.94142  23473917.6674   23473915.7694
     -1677.3714
  -5276602.59449  -4092849.00446  20630960.7844   20630958.1324
      2430.6274
 04  9 14 15 25 14.9990000  0  6G 1G11G14G20G22G25
  -5276914.98049  -4093532.18746  20820567.2224   20820564.1944
      2547.8324
  -3891494.89549  -3018481.57045  20929877.8474   20929874.2264
      1602.0534
   2584076.46948   2003719.28544  21613573.2064   21613569.5504
     -1562.0994
  -5333487.80947  -4149614.10942  22993268.8554   22993264.6594
      3797.8124
   2892346.30547   2239810.39842  23478711.5504   23478709.4214
     -1679.3314
  -5312942.37149  -4121165.71546  20624045.7304   20624042.2884
      2422.6524
 04  9 14 15 25 29.9990000  0  6G 1G11G14G20G22G25
  -5315056.85549  -4123253.12945  20813308.9174   20813305.7764
      2542.7924
  -3915396.43049  -3037106.15645  20925329.8084   20925326.2334
      1593.4364
   2607540.28148   2022002.75844  21618037.7764   21618034.2614
     -1564.2544
  -5390449.20747  -4193999.61342  22982429.0504   22982425.0584
      3797.4274
   2917564.69547   2259461.03142  23483510.9174   23483507.6554
     -1681.2264
  -5349163.23849  -4149389.75446  20617153.0734   20617150.2804
      2414.7244
 04  9 14 15 25 44.9990000  0  6G 1G11G14G20G22G25
  -5353123.66848  -4152915.58646  20806065.1674   20806062.2494
      2537.7884
  -3939169.15648  -3055630.37145  20920805.6444   20920802.3434
      1584.8484
   2631035.60548   2040310.79744  21622508.7064   21622505.6634
     -1566.3554
  -5447405.32447  -4238380.99242  22971591.2064   22971587.0934
      3797.0744
   2942811.13747   2279133.53542  23488314.9254   23488311.6324
     -1683.0964
  -5385265.47749  -4177521.36346  20610282.9564   20610279.7264
      2406.8164
 04  9 14 15 25 59.9990000  0  6G 1G11G14G20G22G25
  -5391114.29749  -4182518.67645  20798835.2694   20798832.9254
      2532.7094
  -3962812.01648  -3074053.39546  20916306.6904   20916303.2804
      1576.1914
   2654563.37948   2058644.11344  21626986.3864   21626982.8234
     -1568.5184
  -5504354.82047  -4282757.22742  22960753.5424   22960749.6634
      3796.6334
   2968086.54347   2298828.60942  23493124.6204   23493120.8864
     -1685.0274
  -5421247.73849  -4205559.47746  20603435.9094   20603432.2764
      2398.8174
 04  9 14 15 26 14.9990000  0  6G 1G11G14G20G22G25
  -5429029.18748  -4212062.74646  20791620.5034   20791618.1014
      2527.6594
  -3986325.28548  -3092375.42645  20911832.2144   20911828.7964
      1567.5514
   2678123.14548   2077002.35244  21631469.4564   21631466.0694
     -1570.6514
  -5561297.98847  -4327128.52742  22949917.7064   22949913.8354
      3796.2114
   2993390.54748   2318546.00042  23497941.3084   23497935.7724
     -1686.9344
  -5457110.38349  -4233504.41046  20596611.3394   20596608.2064
      2390.8434
 04  9 14 15 26 29.9990000  0  6G 1G11G14G20G22G25
  -5466868.37148  -4241547.83645  20784419.8944   20784416.9174
      2522.6124
  -4009708.93748  -3110596.46945  20907382.3624   20907378.9724
      1558.9104
   2701714.64848   2095385.32044  21635958.8154   21635954.9484
     -1572.7674
  -5618234.71547  -4371494.78942  22939083.2224   22939079.1324
      3795.7824
   3018723.21547   2338285.71142  23502760.8474   23502756.5464
     -1688.8454
  -5492853.15249  -4261355.89846  20589809.5504   20589806.5034
      2382.8514
 04  9 14 15 26 44.9990000  0  6G 1G11G14G20G22G25
  -5504631.62148  -4270973.73046  20777233.7924   20777231.2064
      2517.5504
  -4032962.62148  -3128716.23045  20902957.3004   20902953.8314
      1550.2464
   2725337.78148   2113792.94544  21640454.4014   21640450.6754
     -1574.8764
  -5675164.66447  -4415855.79742  22928249.3704   22928245.6514
      3795.3304
   3044084.53947   2358047.73442  23507587.5814   23507583.2224
     -1690.7554
  -5528475.76648  -4289113.78546  20583030.8944   20583027.5384
      2374.8414
 04  9 14 15 26 59.9990000  0  6G 1G11G14G20G22G25
  -5542319.61348  -4300341.00446  20770062.0114   20770059.4294
      2512.5334
  -4056086.91848  -3146735.17645  20898556.7924   20898553.3904
      1541.6204
   2748991.70748   2132224.55944  21644955.5654   21644951.6674
     -1576.9284
  -5732088.39847  -4460211.95742  22917416.7534   22917413.6594
      3794.9164
   3069473.94547   2377831.63742  23512418.1984   23512415.2764
     -1692.6274
  -5563978.76649  -4316778.45346  20576274.8234   20576271.6284
      2366.8674
 04  9 14 15 27 14.9990000  0  6G 1G11G14G20G22G25
  -5579931.94948  -4329649.31246  20762904.6904   20762902.3234
      2507.4894
  -4079081.30548  -3164652.90245  20894181.1054   20894177.6014
      1532.9594
   2772676.66048   2150680.34844  21649462.2454   21649459.3624
     -1578.9974
  -5789005.31648  -4504562.78942  22906586.3784   22906582.3624
      3794.4614
   3094891.78147   2397637.66042  23517255.5264   23517252.5224
     -1694.5224
  -5599361.58249  -4344349.46946  20569541.6204   20569538.6014
      2358.8544
 04  9 14 15 27 29.9990000  0  6G 1G11G14G20G22G25
  -5617467.31649  -4358897.65246  20755762.3944   20755759.3434
      2502.3584
  -4101944.29749  -3182468.22746  20889830.7064   20889827.2264
      1524.1994
   2796393.79348   2169161.22744  21653975.6204   21653971.9994
     -1581.1424
  -5845914.00447  -4548907.22342  22895756.7614   22895753.1204
      3793.9134
   3120339.29346   2417466.82843  23522097.8154   23522095.4174
     -1696.5014
  -5634622.78549  -4371825.72746  20562831.3154   20562828.4254
      2350.7474
 04  9 14 15 27 44.9990000  0  6G 1G11G14G20G22G25
  -5654926.84849  -4388086.89146  20748633.6054   20748631.4254
      2497.3024
  -4124677.08248  -3200182.09845  20885504.5584   20885501.2694
      1515.5194
   2820141.75448   2187666.10544  21658494.9174   21658491.2724
     -1583.1974
  -5902815.54347  -4593246.10942  22884928.4804   22884925.1834
      3793.4364
   3145815.38346   2437318.27043  23526945.5734   23526942.9834
     -1698.4064
  -5669763.25049  -4399207.89546  20556144.6204   20556141.1634
      2342.6984
 04  9 14 15 27 59.9990000  0  6G 1G11G14G20G22G25
  -5692311.34849  -4417217.66846  20741519.9014   20741517.0654
      2492.3004
  -4147280.32849  -3217795.03545  20881203.6054   20881200.0304
      1506.8834
   2843919.58648   2206194.26244  21663019.7454   21663015.9874
     -1585.1894
  -5959710.59447  -4637579.89542  22874102.0894   22874098.5894
      3793.0034
   3171319.21546   2457191.30142  23531798.7764   23531796.1284
     -1700.2554
  -5704783.54349  -4426496.43046  20549480.5424   20549476.9684
      2334.6864
 04  9 14 15 28 14.9990000  0  6G 1G11G14G20G22G25
  -5729620.79349  -4446289.96546  20734419.8234   20734417.1404
      2487.2964
  -4169753.98049  -3235306.98045  20876926.6984   20876923.4404
      1498.2434
   2867727.05148   2224745.52044  21667550.5504   21667546.4644
     -1587.1644
  -6016598.88347  -4681908.43742  22863277.0194   22863272.7614
      3792.5534
   3196850.78546   2477085.99243  23536657.8394   23536654.6874
     -1702.1054
  -5739683.55949  -4453691.24646  20542839.1904   20542836.1404
      2326.6684
 04  9 14 15 28 29.9990000  0  6G 1G11G14G20G22G25
  -5766854.09849  -4475302.93446  20727334.6984   20727332.1054
      2482.2204
  -4192096.84449  -3252717.00845  20872675.1674   20872671.6364
      1489.5244
   2891565.06648   2243320.57844  21672085.9094   21672083.0694
     -1589.2014
  -6073479.21147  -4726230.77742  22852452.4254   22852448.4014
      3792.0224
   3222411.15647   2497003.14142  23541522.0344   23541518.7264
     -1704.0254
  -5774462.23049  -4480791.51646  20536221.0654   20536218.2104
      2318.5784
 04  9 14 15 28 44.9980000  0  6G 1G11G14G20G22G25
  -5804008.57449  -4504254.46545  20720264.4904   20720261.3934
      2476.9654
  -4214306.96148  -3270023.61345  20868448.9904   20868445.5764
      1480.6744
   2915432.14148   2261918.28144  21676627.9824   21676624.8734
     -1591.1384
  -6130347.41848  -4770543.66042  22841630.8504   22841627.3574
      3791.2144
   3247998.82046   2516941.55142  23546390.1154   23546387.2644
     -1705.8444
  -5809116.57049  -4507794.88746  20529626.4364   20529623.6004
      2310.2894
 04  9 14 15 28 59.9980000  0  6G 1G11G14G20G22G25
  -5841090.43449  -4533149.42246  20713207.8974   20713205.1624
      2472.1244
  -4236388.60249  -3287230.09445  20864247.0534   20864243.0494
      1472.1094
   2939329.97748   2280539.97344  21681175.0144   21681172.0534
     -1593.1894
  -6187212.19148  -4814853.88742  22830810.3574   22830806.6504
      3790.9854
   3273616.04346   2536902.96142  23551266.0614   23551262.7404
     -1707.8154
  -5843652.43449  -4534705.94546  20523054.5614   20523051.6154
      2302.3914
 04  9 14 15 29 14.9980000  0  6G 1G11G14G20G22G25
  -5878097.52049  -4561986.11746  20706165.7564   20706163.3574
      2467.1394
  -4258340.52749  -3304335.50045  20860069.8504   20860066.1744
      1463.4624
   2963256.54748   2299184.03144  21685728.5224   21685725.0104
     -1595.1054
  -6244069.94948  -4859158.64142  22819990.3504   22819986.9084
      3790.5174
   3299260.70746   2556885.80142  23556145.4594   23556142.0374
     -1709.6444
  -5878067.69549  -4561523.03946  20516505.7404   20516502.8144
      2294.3514
 04  9 14 15 29 29.9980000  0  6G 1G11G14G20G22G25
  -5915028.55949  -4590763.54746  20699138.0844   20699135.0804
      2462.0694
  -4280161.38748  -3321338.78145  20855917.1704   20855913.7134
      1454.7244
   2987212.83248   2317851.25044  21690287.4674   21690284.0144
     -1597.0864
  -6300919.20348  -4903456.77342  22809172.7324   22809168.4124
      3789.9504
   3324933.97346   2576890.91042  23561030.8114   23561028.2834
     -1711.5514
  -5912360.93749  -4588245.03946  20509980.2324   20509976.8304
      2286.2164
 04  9 14 15 29 44.9980000  0  6G 1G11G14G20G22G25
  -5951884.29349  -4619482.30946  20692124.5294   20692121.8344
      2457.0494
  -4301851.72749  -3338240.34845  20851789.7484   20851786.1154
      1446.0234
   3011197.97347   2336540.94144  21694851.2254   21694848.1974
     -1599.0094
  -6357760.68448  -4947748.84442  22798355.7564   22798352.1894
      3789.4324
   3350635.23446   2596917.78942  23565921.4364   23565919.5224
     -1713.4174
  -5946532.72749  -4614872.40246  20503477.2644   20503474.1784
      2278.1194
 04  9 14 15 29 59.9980000  0  6G 1G11G14G20G22G25
  -5988663.71548  -4648141.59445  20685125.8894   20685122.8814
      2451.9614
  -4323410.53548  -3355039.43046  20847687.3894   20847683.7914
      1437.2544
   3035212.73448   2355253.73844  21699421.7724   21699418.1004
     -1600.9844
  -6414593.22348  -4992033.92642  22787540.8034   22787537.2684
      3788.8364
   3376365.37546   2616967.16843  23570818.5374   23570816.7174
     -1715.3434
  -5980581.86749  -4641404.18446  20496997.8894   20496995.3144
      2269.9434
 04  9 14 15 30 14.9980000  0  6G 1G11G14G20G22G25
  -6025367.35548  -4676741.84045  20678140.9754   20678138.2484
      2446.9094
  -4344838.32049  -3371736.41446  20843610.0144   20843605.6314
      1428.5194
   3059256.49648   2373989.11344  21703997.0144   21703993.6274
     -1602.9174
  -6471417.08248  -5036312.24242  22776727.7404   22776723.7174
      3788.2574
   3402123.79747   2637038.61743  23575719.8424   23575718.3694
     -1717.2284
  -6014508.77349  -4667840.73046  20490541.6314   20490538.9124
      2261.7944
 04  9 14 15 30 29.9980000  0  6G 1G11G14G20G22G25
  -6061994.86348  -4705282.75845  20671170.9824   20671168.5024
      2441.8344
  -4366134.54349  -3388330.87146  20839557.4674   20839553.4124
      1419.7484
   3083329.37948   2392747.18844  21708578.3504   21708574.0294
     -1604.8594
  -6528231.84448  -5080583.51242  22765916.5224   22765912.0454
      3787.6514
   3427910.97746   2657132.42643  23580627.1074   23580624.9324
     -1719.1454
  -6048312.94549  -4694181.63346  20484108.8504   20484106.2874
      2253.6114
 04  9 14 15 30 44.9980000  0  6G 1G11G14G20G22G25
  -6098545.89148  -4733764.07845  20664215.7094   20664212.9474
      2436.7354
  -4387298.72749  -3404822.44946  20835530.2014   20835525.9714
      1410.9464
   3107431.57848   2411528.10544  21713164.2254   21713160.8424
     -1606.8134
  -6585036.94948  -5124847.22342  22755106.6544   22755103.3424
      3787.0074
   3453727.30547   2677249.02042  23585539.9364   23585537.2014
     -1721.0894
  -6081993.97349  -4720426.58646  20477699.6784   20477696.7174
      2245.4024
 04  9 14 15 30 59.9980000  0  6G 1G11G14G20G22G25
  -6135021.94548  -4762186.96945  20657274.5064   20657271.5374
      2431.7374
  -4408332.39148  -3421212.32045  20831527.2874   20831522.9824
      1402.2444
   3131561.39148   2430330.55144  21717756.2484   21717752.5144
     -1608.6544
  -6641833.77347  -5169104.47742  22744298.7254   22744294.7324
      3786.4554
   3479571.11347   2697387.00042  23590458.0064   23590454.8264
     -1722.9214
  -6115553.21949  -4746576.64846  20471313.5224   20471310.3734
      2237.2834
 04  9 14 15 31 14.9980000  0  6G 1G11G14G20G22G25
  -6171422.12949  -4790550.75445  20650348.0374   20650344.9164
      2426.6794
  -4429234.43749  -3437499.64546  20827550.2174   20827545.7914
      1393.4704
   3155719.61748   2449155.12144  21722353.0924   21722350.0064
     -1610.5484
  -6698621.32447  -5213354.53142  22733492.0764   22733488.1894
      3785.8374
   3505443.23846   2717547.04742  23595380.8114   23595378.1274
     -1724.8084
  -6148989.62149  -4772631.00446  20464950.6154   20464947.9244
      2229.0934
 04  9 14 15 31 29.9980000  0  6G 1G11G14G20G22G25
  -6207746.44149  -4818855.41446  20643435.7324   20643433.0964
      2421.6214
  -4450004.84449  -3453684.37946  20823597.6624   20823593.2684
      1384.6944
   3179906.03548   2468001.67244  21726955.8264   21726952.2134
     -1612.4284
  -6755399.32048  -5257597.11742  22722687.1864   22722684.0254
      3785.2004
   3531343.80947   2737729.23042  23600310.4204   23600306.9124
     -1726.7054
  -6182302.90249  -4798589.39146  20458611.8574   20458608.6194
      2220.8854
 04  9 14 15 31 44.9980000  0  6G 1G11G14G20G22G25
  -6243995.24249  -4847101.23446  20636537.7954   20636535.1194
      2416.5874
  -4470643.93049  -3469766.79345  20819670.0454   20819665.5764
      1375.9394
   3204120.18448   2486869.81644  21731563.6394   21731560.5064
     -1614.2774
  -6812168.05148  -5301832.49242  22711884.7644   22711881.2874
      3784.5824
   3557272.32047   2757933.25042  23605244.0454   23605240.6504
     -1728.5674
  -6215493.31649  -4824452.05546  20452295.5534   20452292.6474
      2212.6944
 04  9 14 15 31 59.9980000  0  6G 1G11G14G20G22G25
  -6280168.21548  -4875287.96545  20629654.3574   20629651.4284
      2411.5324
  -4491151.35248  -3485746.60545  20815767.6474   20815763.3614
      1367.1614
   3228362.19148   2505759.67244  21736177.2404   21736173.8264
     -1616.1344
  -6868927.03548  -5346060.27342  22701084.2174   22701080.1584
      3783.9324
   3583229.15646   2778159.32842  23610183.8264   23610180.0804
     -1730.4564
  -6248560.20749  -4850218.44546  20446002.9984   20446000.1044
      2204.4594
 04  9 14 15 32 14.9980000  0  6G 1G11G14G20G22G25
  -6316265.67249  -4903415.85246  20622785.2954   20622782.3144
      2406.4974
  -4511527.26249  -3501623.94545  20811890.0144   20811885.9554
      1358.3944
   3252631.39148   2524670.73044  21740794.8814   21740791.7134
     -1617.9474
  -6925676.52348  -5390280.66843  22690284.8574   22690281.5294
      3783.2994
   3609213.96947   2798407.19142  23615127.4364   23615124.6974
     -1732.3214
  -6281503.94149  -4875888.88346  20439734.4284   20439730.9554
      2196.2494
 04  9 14 15 32 29.9980000  0  6G 1G11G14G20G22G25
  -6352287.34848  -4931484.68446  20615930.4824   20615927.6864
      2401.4454
  -4531771.38748  -3517398.59845  20808037.7094   20808033.6434
      1349.6084
   3276928.02747   2543603.14844  21745419.0534   21745415.3074
     -1619.7764
  -6982416.02748  -5434493.25442  22679488.2094   22679484.3544
      3782.6344
   3635227.05546   2818677.05942  23620078.4204   23620075.8814
     -1734.2064
  -6314324.00049  -4901462.94946  20433488.7014   20433485.7484
      2188.0044
 04  9 14 15 32 44.9980000  0  6G 1G11G14G20G22G25
  -6388233.61349  -4959494.76246  20609089.7324   20609087.4634
      2396.4184
  -4551884.01248  -3533070.77046  20804210.6544   20804206.1824
      1340.8424
   3301251.52048   2562556.48844  21750047.3894   21750043.9364
     -1621.5664
  -7039145.63348  -5478698.13743  22668692.5924   22668689.3894
      3781.9744
   3661267.88347   2838968.57042  23625034.4984   23625031.4084
     -1736.0554
  -6347020.71549  -4926940.90246  20427267.0614   20427263.6394
      2179.7814
 04  9 14 15 32 59.9980000  0  6G 1G11G14G20G22G25
  -6424103.62549  -4987445.41446  20602264.1934   20602261.5724
      2391.3344
  -4571864.19149  -3548639.74245  20800408.5144   20800404.2484
      1332.0124
   3325602.52348   2581531.28544  21754680.9824   21754677.7214
     -1623.4004
  -7095864.41048  -5522894.59042  22657900.0534   22657896.0334
      3781.2524
   3687337.35247   2859282.39542  23629994.9434   23629992.6354
     -1737.9654
  -6379593.09049  -4952321.97746  20421068.5764   20421065.5614
      2171.4924
 04  9 14 15 33 14.9980000  0  6G 1G11G14G20G22G25
  -6459897.60948  -5015336.82446  20595453.1474   20595450.2444
      2386.2664
  -4591712.01248  -3564105.58645  20796631.3264   20796627.5804
      1323.1884
   3349980.75448   2600527.28944  21759320.1934   21759316.8074
     -1625.2154
  -7152572.38348  -5567082.62542  22647108.0374   22647104.6154
      3780.5324
   3713435.23847   2879618.34842  23634961.1474   23634958.5844
     -1739.8594
  -6412041.13349  -4977606.16046  20414893.9284   20414890.8184
      2163.2034
 04  9 14 15 33 29.9980000  0  6G 1G11G14G20G22G25
  -6495615.34849  -5043168.82446  20588655.8184   20588653.5644
      2381.1834
  -4611427.21149  -3579468.08646  20792879.6934   20792875.8974
      1314.3474
   3374386.18048   2619544.49244  21763964.3114   21763960.7604
     -1627.0284
  -7209269.22748  -5611261.96942  22636319.0764   22636315.5104
      3779.7904
   3739561.93847   2899976.78942  23639933.0614   23639930.3224
     -1741.7804
  -6444364.60549  -5002793.27346  20408742.7564   20408739.7724
      2154.8984
 04  9 14 15 33 44.9980000  0  6G 1G11G14G20G22G25
  -6531257.52049  -5070941.94546  20581873.4124   20581870.5224
      2376.1454
  -4631010.32049  -3594727.66845  20789153.1474   20789149.2684
      1305.5414
   3398818.14848   2638582.37544  21768613.8034   21768610.7294
     -1628.7984
  -7265955.41448  -5655433.01643  22625531.6074   22625528.5454
      3779.0794
   3765716.59047   2920357.01642  23644910.3034   23644906.8614
     -1743.6434
  -6476563.91849  -5027883.64146  20402615.4204   20402612.4634
      2146.6214
 04  9 14 15 33 59.9980000  0  6G 1G11G14G20G22G25
  -6566823.40249  -5098655.62146  20575105.4434   20575103.1044
      2371.0594
  -4650460.53149  -3609883.68445  20785451.7724   20785448.2874
      1296.6814
   3423277.08648   2657641.25844  21773268.2094   21773264.6504
     -1630.5964
  -7322630.00048  -5699595.03942  22614747.5764   22614743.8654
      3778.3064
   3791899.96947   2940759.61342  23649892.9434   23649890.3144
     -1745.5594
  -6508638.24249  -5052876.61346  20396512.0614   20396508.8614
      2138.2884
 04  9 14 15 34 14.9980000  0  6G 1G11G14G20G22G25
  -6602312.87549  -5126309.74645  20568351.5764   20568349.4984
      2365.9654
  -4669777.99249  -3624936.25845  20781775.9124   20781772.1004
      1287.8314
   3447762.78948   2676721.02044  21777927.7484   21777923.8264
     -1632.3804
  -7379292.92248  -5743747.95742  22603964.4204   22603960.8464
      3777.5284
   3818112.11346   2961184.61742  23654879.9364   23654877.4754
     -1747.4764
  -6540587.32049  -5077771.99646  20390432.2724   20390429.0684
      2129.9394
 04  9 14 15 34 29.9980000  0  6G 1G11G14G20G22G25
  -6637726.37149  -5153904.66445  20561613.0764   20561610.6074
      2360.9004
  -4688962.71149  -3639885.40646  20778124.9364   20778121.3934
      1278.9814
   3472274.88348   2695821.33244  21782591.9824   21782588.9794
     -1634.1404
  -7435944.30148  -5787891.90242  22593184.5614   22593180.6004
      3776.7594
   3844352.68045   2981631.73442  23659873.5064   23659871.4984
     -1749.3714
  -6572411.50449  -5102570.05946  20384376.3034   20384373.1544
      2121.6124
 04  9 14 15 34 44.9980000  0  6G 1G11G14G20G22G25
  -6673063.86749  -5181440.37545  20554888.3034   20554885.7214
      2355.8334
  -4708014.68749  -3654731.11746  20774499.5454   20774496.0184
      1270.1324
   3496813.18848   2714942.07844  21787261.1934   21787258.1784
     -1635.8874
  -7492583.92648  -5832026.66042  22582406.6394   22582402.7754
      3775.9754
   3870621.61745   3002100.95342  23664872.3424   23664870.0884
     -1751.2624
  -6604110.57049  -5127270.63346  20378343.9674   20378341.1004
      2113.2714
 04  9 14 15 34 59.9980000  0  6G 1G11G14G20G22G25
  -6708326.26649  -5208917.55945  20548178.2254   20548175.5574
      2350.8274
  -4726934.68749  -3669473.98446  20770899.4904   20770895.7404
      1261.3334
   3521376.58648   2734082.37144  21791936.1704   21791932.5844
     -1637.5604
  -7549212.68048  -5876152.97342  22571630.3814   22571626.7994
      3775.2504
   3896917.95346   3022591.55942  23669876.8654   23669873.6074
     -1753.0894
  -6635685.34849  -5151874.34446  20372335.5144   20372332.6544
      2104.9854
 04  9 14 15 35 14.9980000  0  6G 1G11G14G20G22G25
  -6743511.99249  -5236335.00845  20541482.8114   20541479.9204
      2345.7154
  -4745721.23049  -3684112.87145  20767324.3344   20767320.6354
      1252.4364
   3545966.41448   2753243.25844  21796615.2794   21796611.7994
     -1639.3224
  -7605828.66448  -5920269.32442  22560855.9984   22560852.9594
      3774.3994
   3923243.24646   3043104.72742  23674886.9754   23674883.1394
     -1755.0204
  -6667134.05949  -5176379.83646  20366351.0224   20366348.0574
      2096.5814
 04  9 14 15 35 29.9980000  0  6G 1G11G14G20G22G25
  -6778622.85949  -5263694.12546  20534801.6544   20534798.5764
      2340.7244
  -4764375.93749  -3698649.01245  20763774.5764   20763771.1354
      1243.6474
   3570580.88748   2772423.34444  21801299.3344   21801295.7014
     -1640.9654
  -7662433.45748  -5964376.95342  22550084.4904   22550080.3814
      3773.6534
   3949595.81646   3063639.20742  23679901.0924   23679896.7644
     -1756.8384
  -6698458.25049  -5200788.28146  20360390.2564   20360387.7174
      2088.2794
 04  9 14 15 35 44.9980000  0  6G 1G11G14G20G22G25
  -6813658.48849  -5290994.60946  20528134.3424   20528131.3264
      2335.7094
  -4782898.35949  -3713082.08645  20760249.7724   20760246.2254
      1234.8284
   3595220.15248   2791622.77044  21805987.6624   21805984.3734
     -1642.6184
  -7719026.58248  -6008475.49242  22539315.6074   22539311.9554
      3772.8754
   3975975.94146   3084195.12542  23684921.2874   23684917.2644
     -1758.6754
  -6729657.42649  -5225099.32846  20354453.1474   20354450.6114
      2079.9454
 04  9 14 15 35 59.9980000  0  5G 1G11G14G20G25
  -6848619.70349  -5318237.11746  20521481.3034   20521478.4164
      2330.7484
  -4801289.28549  -3727412.69546  20756749.9434   20756746.6864
      1226.0624
   3619883.25848   2810840.74644  21810681.1544   21810677.6234
     -1644.2074
  -7775608.71548  -6052565.47342  22528548.3814   22528544.5844
      3772.1424
  -6760732.34049  -5249313.55946  20348539.9674   20348536.9124
      2071.6614
 04  9 14 15 36 14.9980000  0  5G 1G11G14G20G25
  -6883504.89149  -5345420.38746  20514842.9674   20514840.0414
      2325.6794
  -4819547.05549  -3741639.53545  20753275.5534   20753272.1274
      1217.1854
   3644571.56348   2830078.37944  21815379.0224   21815375.8654
     -1645.8874
  -7832178.05948  -6096645.47742  22517783.8114   22517780.2914
      3771.2904
  -6791681.24649  -5273429.57446  20342650.7174   20342647.6664
      2063.2604
 04  9 14 15 36 29.9980000  0  5G 1G11G14G20G25
  -6918315.07849  -5372545.20746  20508218.9284   20508216.0724
      2320.6794
  -4837672.64849  -3755763.39845  20749826.9124   20749823.1004
      1208.3734
   3669283.94948   2849334.75044  21820081.4514   21820078.2054
     -1647.4924
  -7888735.48848  -6140716.20343  22507021.2014   22507017.2564
      3770.4954
  -6822505.22749  -5297448.24646  20336785.0294   20336782.2874
      2054.9324
 04  9 14 15 36 44.9980000  0  5G 1G11G14G20G25
  -6953047.86349  -5399609.71546  20501609.5224   20501606.6274
      2315.5194
  -4855663.59049  -3769782.32445  20746402.9124   20746399.3574
      1199.3964
   3694022.71147   2868611.69144  21824789.1624   21824786.1544
     -1649.2514
  -7945278.54348  -6184775.71943  22496261.3974   22496257.7754
      3769.5374
  -6853201.53949  -5321367.44546  20330943.5454   20330940.2444
      2046.4214
 04  9 14 15 36 59.9980000  0  5G 1G11G14G20G25
  -6987703.44149  -5426614.05946  20495014.8114   20495011.8814
      2310.3724
  -4873519.96149  -3783696.38745  20743005.1314   20743001.6624
      1190.4254
   3718787.48848   2887908.89844  21829502.1004   21829498.8074
     -1650.9854
  -8001807.08648  -6228823.93043  22485504.2404   22485500.4824
      3768.5704
  -6883770.35249  -5345187.30146  20325126.6864   20325123.5644
      2037.9214
 04  9 14 15 37 14.9980000  0  5G 1G11G14G20G25
  -7022280.85949  -5453557.49646  20488434.9674   20488432.1744
      2305.1614
  -4891240.78949  -3797504.84845  20739633.1154   20739629.3814
      1181.3894
   3743579.03147   2907226.98044  21834219.0764   21834216.5374
     -1652.7704
  -8058319.97748  -6272859.94142  22474750.0374   22474746.7364
      3767.5264
  -6914210.58249  -5368906.94546  20319334.0684   20319330.7834
      2029.3494
 04  9 14 15 37 29.9980000  0  5G 1G11G14G20G25
  -7056780.62549  -5480440.42646  20481869.8344   20481867.2294
      2299.9844
  -4908826.57449  -3811208.06645  20736286.6544   20736282.9904
      1172.3864
   3768396.65247   2926565.37944  21838941.7564   21838938.7644
     -1654.5084
  -8114817.63348  -6316884.08643  22463999.1704   22463995.3384
      3766.5104
  -6944522.55949  -5392526.66846  20313565.7954   20313563.0254
      2020.7984
 04  9 14 15 37 44.9980000  0  5G 1G11G14G20G25
  -7091202.23049  -5507262.44546  20475319.3034   20475316.9714
      2294.7744
  -4926276.69949  -3824805.57046  20732966.1154   20732962.0614
      1163.3424
   3793240.73448   2945924.37144  21843669.2484   21843666.2754
     -1656.2724
  -8171299.39148  -6360895.84042  22453251.1704   22453247.4754
      3765.4514
  -6974705.57849  -5416045.89846  20307822.3974   20307819.1074
      2012.2014
 04  9 14 15 37 59.9980000  0  5G 1G11G14G20G25
  -7125546.56649  -5534024.26646  20468783.8424   20468781.2604
      2289.6224
  -4943591.87149  -3838297.92646  20729671.2404   20729667.3504
      1154.3454
   3818110.26648   2965303.21144  21848402.1704   21848399.0294
     -1657.9694
  -8227765.86348  -6404895.68442  22442505.5224   22442501.7364
      3764.4324
  -7004760.55549  -5439465.34446  20302103.0534   20302100.1154
      2003.6654
 04  9 14 15 38 14.9980000  0  5G 1G11G14G20G25
  -7159813.72749  -5560725.93046  20462262.9204   20462260.4434
      2284.4774
  -4960772.20349  -3851685.21146  20726401.7954   20726397.8734
      1145.3554
   3843005.14548   2984701.79744  21853139.8894   21853137.0184
     -1659.6594
  -8284216.82848  -6448883.45742  22431763.7254   22431759.3814
      3763.3984
  -7034687.26649  -5462784.85946  20296408.3654   20296405.0414
      1995.1144
 04  9 14 15 38 29.9980000  0  5G 1G11G14G20G25
  -7194004.10249  -5587367.78146  20455757.0924   20455753.9944
      2279.3584
  -4977818.07849  -3864967.71546  20723158.3424   20723154.1154
      1136.3924
   3867924.69148   3004119.62544  21857881.6784   21857879.0644
     -1661.3034
  -8340652.53148  -6492859.31242  22421024.1544   22421019.7054
      3762.3804
  -7064486.03149  -5486004.67646  20290737.4594   20290734.4824
      1986.5844
 04  9 14 15 38 44.9980000  0  5G 1G11G14G20G25
  -7228116.96949  -5613949.23846  20449265.5224   20449262.5724
      2274.1914
  -4994728.71149  -3878144.83646  20719939.9984   20719936.3184
      1127.3764
   3892869.45348   3023557.06644  21862628.3734   21862625.8034
     -1662.9844
  -8397072.25448  -6536822.75043  22410287.4514   22410283.2834
      3761.3154
  -7094155.96549  -5509124.09846  20285091.4434   20285088.7214
      1977.9964
 04  9 14 15 38 59.9980000  0  5G 1G11G14G20G25
  -7262152.80949  -5640470.66446  20442788.9984   20442785.3464
      2269.0564
  -5011504.48449  -3891216.87946  20716747.9514   20716744.0574
      1118.3854
   3917839.00848   3043013.84043  21867380.6864   21867377.1474
     -1664.6374
  -8453476.22348  -6580773.89142  22399554.4044   22399550.1314
      3760.2654
  -7123697.50049  -5532143.46146  20279470.0614   20279467.0334
      1969.4364
 04  9 14 15 39 14.9980000  0  5G 1G11G14G20G25
  -7296111.19549  -5666931.74246  20436326.5924   20436323.5614
      2263.8924
  -5028145.03949  -3904183.55946  20713581.2174   20713577.0724
      1109.3704
   3942833.52348   3062490.05944  21872136.7014   21872133.2794
     -1666.3014
  -8509863.76248  -6624712.23842  22388824.4984   22388819.8344
      3759.1694
  -7153110.12949  -5555062.39846  20273872.9904   20273869.9124
      1960.8424
 04  9 14 15 39 29.9980000  0  5G 1G11G14G20G25
  -7329992.17249  -5693332.50846  20429879.3424   20429876.2794
      2258.7324
  -5044650.49649  -3917044.96546  20710440.7954   20710436.6154
      1100.3644
   3967852.69948   3081985.50844  21876897.4124   21876894.6584
     -1667.9454
  -8566234.88348  -6668637.77742  22378097.5764   22378093.0414
      3758.0754
  -7182393.76649  -5577880.82046  20268300.2954   20268297.3074
      1952.2424
 04  9 14 15 39 44.9980000  0  5G 1G11G14G20G25
  -7363795.91849  -5719673.08646  20423446.7794   20423443.7954
      2253.5834
  -5061020.48849  -3929800.80545  20707325.2794   20707321.3934
      1091.3334
   3992896.25848   3101499.95344  21881663.4984   21881659.9754
     -1669.5714
  -8622589.38348  -6712550.38342  22367373.2254   22367368.7444
      3756.9674
  -7211548.33649  -5600598.66446  20262752.5614   20262749.8184
      1943.6384
 04  9 14 15 39 59.9980000  0  6G 1G11G14G23G20G25
  -7397523.44149  -5745954.26646  20417028.8264   20417025.7914
      2248.5024
  -5077256.25049  -3942452.06246  20704236.0684   20704231.7364
      1082.3844
   4017963.10248   3121032.53544  21886433.4204   21886429.7794
     -1671.1234
   -145215.87157   -102346.94552  23587402.5844   23587397.1314

  -8678928.25848  -6756450.79743  22356652.0144   22356648.2684
      3755.9254
  -7240574.81649  -5623216.68746  20257228.6314   20257225.7874
      1935.0994
 04  9 14 15 40 14.9980000  0  6G 1G11G14G23G20G25
  -7431175.56249  -5772176.69946  20410624.7794   20410621.8654
      2243.4754
  -5093358.60949  -3954999.35946  20701171.7174   20701167.9714
      1073.4914
   4043052.31648   3140582.55544  21891207.7484   21891204.5804
     -1672.6144
   -203645.27746   -147876.32842  23576283.6784   23576279.0254
      3895.2944
  -8735252.07448  -6800339.50043  22345934.7724   22345930.1154
      3754.9214
  -7269473.97349  -5645735.51246  20251729.4824   20251726.3694
      1926.6104
 04  9 14 15 40 29.9980000  0  6G 1G11G14G23G20G25
  -7464752.38349  -5798340.45746  20404235.1314   20404232.2994
      2238.4554
  -5109327.46949  -3967442.64146  20698132.8734   20698128.5644
      1064.5914
   4068163.62948   3160149.80544  21895986.5534   21895982.5334
     -1674.0874
   -262044.72346   -193382.39542  23565170.6934   23565166.1504
      3893.2964
  -8791560.73048  -6844216.35542  22335218.8894   22335214.7014
      3753.9104
  -7298245.77749  -5668155.09446  20246254.5534   20246251.5924
      1918.1204
 04  9 14 15 40 44.9980000  0  6G 1G11G14G23G20G25
  -7498254.13749  -5824445.72346  20397859.9434   20397857.2174
      2233.4504
  -5125163.13349  -3979782.12146  20695119.4904   20695115.1474
      1055.7114
   4093296.62948   3179733.94144  21900768.8264   21900765.8184
     -1675.5334
   -320414.47346   -238865.32842  23554063.5374   23554058.7054
      3891.3174
  -8847854.31248  -6888081.49242  22324506.6004   22324502.0884
      3752.9054
  -7326890.28949  -5690475.49246  20240803.2644   20240800.7794
      1909.6344
 04  9 14 15 40 59.9980000  0  6G 1G11G14G23G20G25
  -7531682.27049  -5850493.62546  20391498.9904   20391496.1314
      2228.5424
  -5140866.93749  -3992018.87145  20692131.1704   20692127.0064
      1046.9204
   4118449.67248   3199333.69144  21905555.6624   21905552.4944
     -1676.8704
   -378755.71946   -284326.06242  23542961.8424   23542956.7644
      3889.4164
  -8904134.00848  -6931935.78942  22313796.9044   22313793.0144
      3751.9804
  -7355408.76649  -5712697.68046  20235376.9824   20235373.2054
      1901.2324
 04  9 14 15 41 14.9980000  0  6G 1G11G14G23G20G25
  -7565035.93049  -5876483.48846  20385151.9044   20385148.9284
      2223.5774
  -5156438.10249  -4004152.26245  20689167.9284   20689163.6544
      1038.0784
   4143623.57048   3218949.69944  21910345.6544   21910342.5534
     -1678.2604
   -437067.62946   -329763.90642  23531865.1544   23531859.7954
      3887.4614
  -8960398.74647  -6975778.44542  22303090.0454   22303086.5064
      3750.9834
  -7383800.27749  -5734820.92646  20229973.7954   20229970.9794
      1892.7674
 04  9 14 15 41 29.9980000  0  6G 1G11G14G23G20G25
  -7598313.53149  -5902414.08646  20378819.1784   20378816.4984
      2218.5074
  -5171875.03149  -4016181.03545  20686230.6784   20686226.4864
      1029.1294
   4168819.84048   3238583.12944  21915140.8974   21915137.5844
     -1679.7514
   -495348.32046   -375177.44143  23520774.5294   23520769.9284
      3885.3794
  -9016646.81248  -7019608.11343  22292386.6234   22292383.1584
      3749.8714
  -7412063.06649  -5756843.87546  20224595.7404   20224592.4394
      1884.1864
 04  9 14 15 41 44.9980000  0  6G 1G11G14G23G20G25
  -7631518.25449  -5928287.88346  20372500.5224   20372498.2914
      2213.6484
  -5187180.69149  -4028107.53545  20683318.1074   20683313.6864
      1020.3774
   4194035.03148   3258231.30544  21919939.0534   21919935.4904
     -1681.0134
   -553600.97347   -420569.11343  23509690.2404   23509685.0064
      3883.5104
  -9072881.19548  -7063427.12143  22281685.5374   22281682.1314
      3748.9594
  -7440200.40649  -5778769.07446  20219241.3974   20219238.1504
      1875.8234
 04  9 14 15 41 59.9980000  0  6G 1G11G14G23G20G25
  -7664649.27349  -5954104.25446  20366195.7954   20366193.4984
      2208.7354
  -5202354.11349  -4039930.98846  20680430.1704   20680426.1744
      1011.5614
   4219269.91048   3277894.83644  21924740.8504   21924737.5924
     -1682.3254
   -611824.70346   -465938.26642  23498609.9594   23498605.1434
      3881.5824
  -9129100.77048  -7107234.57043  22270987.6934   22270983.7134
      3747.9724
  -7468211.28949  -5800595.72346  20213911.3114   20213907.7014
      1867.3924
 04  9 14 15 42 14.9980000  0  6G 1G11G14G23G20G25
  -7697705.22749  -5979862.12946  20359905.4284   20359903.0064
      2203.7304
  -5217394.13349  -4051650.50445  20677568.3034   20677564.3654
      1002.6684
   4244525.63748   3297574.60543  21929546.4674   21929543.9514
     -1683.7154
   -670018.00446   -511283.68742  23487536.7014   23487531.5374
      3879.5534
  -9185304.05548  -7151029.33243  22260292.3264   22260289.0144
      3746.8864
  -7496094.12949  -5822322.60946  20208605.0224   20208602.2794
      1858.8564
 04  9 14 15 42 29.9980000  0  6G 1G11G14G23G20G25
  -7730685.37949  -6005560.94946  20353629.7254   20353627.2404
      2198.6774
  -5232299.95749  -4063265.44545  20674731.7874   20674728.0294
       993.7224
   4269802.87948   3317271.12943  21934357.1934   21934354.2364
     -1685.1494
   -728180.00046   -556604.75042  23476468.2254   23476463.7324
      3877.4664
  -9241490.16048  -7194810.70743  22249600.3424   22249596.8384
      3745.7404
  -7523848.05549  -5843949.03546  20203323.8034   20203321.0844
      1850.2624
 04  9 14 15 42 44.9980000  0  6G 1G11G14G23G20G25
  -7763592.64549  -6031202.96146  20347367.7014   20347365.3574
      2193.8184
  -5247074.37549  -4074777.99245  20671920.5614   20671916.6154
       984.9614
   4295098.60948   3336982.07443  21939170.1544   21939167.8074
     -1686.3824
   -786313.55146   -601903.60542  23465405.7874   23465401.3424
      3875.5704
  -9297661.80948  -7238580.82043  22238911.2874   22238908.6544
      3744.7774
  -7551475.93449  -5865477.24246  20198066.3264   20198062.7994
      1841.8594
 04  9 14 15 42 59.9980000  0  6G 1G11G14G23G20G25
  -7796425.42649  -6056786.94546  20341119.9754   20341117.1824
      2188.8524
  -5261715.74249  -4086186.86345  20669134.2874   20669130.2404
       976.0914
   4320414.27748   3356708.54744  21943988.1784   21943984.6664
     -1687.7114
   -844416.91446   -647178.94542  23454349.3504   23454344.1114
      3873.5584
  -9353817.24247  -7282338.29743  22228224.8184   22228221.6194
      3743.6964
  -7578976.00449  -5886905.86746  20192833.0764   20192830.1934
      1833.3384
 04  9 14 15 43 14.9980000  0  6G 1G11G14G23G20G25
  -7829183.31249  -6082312.57046  20334886.4044   20334883.7324
      2183.8594
  -5276223.50449  -4097491.62545  20666373.4514   20666369.5844
       967.1844
   4345750.12548   3376450.75043  21948808.5454   21948805.8544
     -1689.0574
   -902489.57046   -692430.37542  23443298.8574   23443293.8424
      3871.5104
  -9409955.71548  -7326082.55143  22217542.4364   22217538.9434
      3742.5654
  -7606347.87949  -5908234.59446  20187624.5294   20187621.7054
      1824.7924
 04  9 14 15 43 29.9980000  0  6G 1G11G14G23G20G25
  -7861866.16449  -6107779.73446  20328667.2254   20328664.4434
      2178.8574
  -5290597.64149  -4108692.26246  20663638.3344   20663634.3464
       958.2764
   4371106.19148   3396208.69944  21953634.5684   21953630.9164
     -1690.4044
   -960531.31246   -737657.71142  23432253.7094   23432248.5844
      3869.4494
  -9466076.96548  -7369813.38743  22206862.6624   22206859.4944
      3741.4174
  -7633591.20349  -5929463.15646  20182440.3504   20182437.2364
      1816.2224
 04  9 14 15 43 44.9980000  0  6G 1G11G14G23G20G25
  -7894474.80949  -6133189.06246  20322462.2254   20322459.0614
      2173.9104
  -5304838.98449  -4119789.42245  20660928.0374   20660924.3264
       949.4234
   4396481.60548   3415981.74243  21958463.6314   21958460.2324
     -1691.6944
  -1018542.81646   -782861.46942  23421214.2324   23421209.1044
      3867.4344
  -9522181.51247  -7413531.21943  22196186.4514   22196182.6154
      3740.3034
  -7660706.62949  -5950592.06646  20177280.1544   20177277.5024
      1807.6954
 04  9 14 15 43 59.9980000  0  6G 1G11G14G23G20G25
  -7927008.99249  -6158540.38746  20316270.9434   20316268.0294
      2168.9464
  -5318947.18049  -4130782.83646  20658243.6004   20658239.8614
       940.5464
   4421876.44148   3435769.91044  21963295.5844   21963292.5964
     -1692.9894
  -1076523.78546   -828041.43442  23410181.1864   23410175.7014
      3865.3984
  -9578268.95747  -7457235.71143  22185513.3814   22185509.6894
      3739.1634
  -7687693.93749  -5971621.13346  20172145.0294   20172142.0804
      1799.1544
 04  9 14 15 44 14.9980000  0  6G 1G11G14G23G20G25
  -7959469.23449  -6183834.07846  20310093.9754   20310091.0144
      2164.0164
  -5332922.62549  -4141672.80545  20655583.6864   20655580.3464
       931.6964
   4447289.99248   3455572.65243  21968131.3654   21968128.6154
     -1694.2374
  -1134474.50846   -873197.84042  23399153.8504   23399148.1154
      3863.3824
  -9634339.55547  -7500927.09042  22174843.3894   22174839.5804
      3738.0404
  -7714553.43749  -5992550.60546  20167033.6624   20167030.3074
      1790.6334
 04  9 14 15 44 29.9980000  0  6G 1G11G14G23G20G25
  -7991855.33649  -6209070.00846  20303930.9044   20303928.0374
      2159.0734
  -5346765.06649  -4152459.13346  20652949.8424   20652946.6474
       922.8294
   4472722.46148   3475390.11743  21972971.2254   21972968.3974
     -1695.4984
  -1192394.62946   -918330.38342  23388132.1934   23388126.7364
      3861.3414
  -9690393.00848  -7544605.11342  22164177.2404   22164172.6274
      3736.8974
  -7741284.83649  -6013380.26246  20161946.6394   20161943.8184
      1782.0934
 04  9 14 15 44 44.9980000  0  6G 1G11G14G23G20G25
  -8024167.19549  -6234248.07846  20297782.2484   20297779.4004
      2154.1244
  -5360474.37949  -4163141.73046  20650341.2644   20650337.5494
       913.9544
   4498173.76248   3495222.28144  21977814.9754   21977811.4164
     -1696.7534
  -1250284.02346   -963438.98442  23377115.6624   23377110.3504
      3859.2934
  -9746428.91047  -7588269.45742  22153513.3184   22153508.7404
      3735.7274
  -7767887.98449  -6034109.98446  20156884.4754   20156881.4514
      1773.5434
 04  9 14 15 44 59.9980000  0  6G 1G11G14G23G20G25
  -8056404.82049  -6259368.30146  20291647.7404   20291644.6704
      2149.1754
  -5374050.64849  -4173720.65646  20647757.6624   20647754.3464
       905.0854
   4523643.78148   3515069.03944  21982661.4904   21982658.3504
     -1698.0014
  -1308142.60246  -1008523.58242  23366105.6784   23366100.3184
      3857.2394
  -9802447.21147  -7631920.08242  22142853.9204   22142849.6584
      3734.5534
  -7794362.80149  -6054739.70346  20151846.6394   20151843.4514
      1764.9884
 04  9 14 15 45 14.9980000  0  6G 1G11G14G23G20G25
  -8088567.71949  -6284430.30946  20285527.1704   20285524.5764
      2144.1934
  -5387493.37949  -4184195.51246  20645199.5684   20645195.7724
       896.1824
   4549132.84448   3534930.63743  21987511.9204   21987508.7094
     -1699.2714
  -1365969.77046  -1053583.68743  23355101.2644   23355096.0844
      3855.1454
  -9858447.12947  -7675556.39143  22132197.8574   22132193.1664
      3733.3284
  -7820708.60949  -6075268.89846  20146833.1074   20146829.8934
      1756.3874
 04  9 14 15 45 29.9980000  0  6G 1G11G14G23G20G25
  -8120657.47349  -6309435.31246  20279420.5924   20279417.9594
      2139.3174
  -5400804.21149  -4194567.60246  20642666.7174   20642663.2684
       887.3894
   4574639.26648   3554805.75043  21992365.7724   21992362.0614
     -1700.4284
  -1423767.09046  -1098620.56643  23344103.1474   23344098.2364
      3853.1554
  -9914430.14548  -7719179.52043  22121544.2094   22121539.8504
      3732.2014
  -7846927.05549  -6095698.86346  20141843.6544   20141840.3114
      1747.8964
 04  9 14 15 45 44.9980000  0  6G 1G11G14G23G20G25
  -8152673.59449  -6334382.93046  20273328.4364   20273325.4324
      2134.4084
  -5413982.50849  -4204836.40646  20640159.0534   20640155.6864
       878.5534
   4600163.43848   3574694.70343  21997222.7724   21997219.1974
     -1701.6114
  -1481533.87146  -1143633.64143  23333110.3894   23333105.4634
      3851.1194
  -9970395.45748  -7762788.85243  22110894.5064   22110890.2874
      3731.0214
  -7873017.40649  -6116028.99646  20136879.1394   20136876.1704
      1739.3574
 04  9 14 15 45 59.9980000  0  6G 1G11G14G23G20G25
  -8184616.14149  -6359273.22346  20267249.8894   20267246.6864
      2129.5034
  -5427028.25849  -4215001.94546  20637676.4284   20637672.6584
       869.7174
   4625705.12148   3594597.28543  22002083.5224   22002079.5254
     -1702.7794
  -1539270.08246  -1188622.88342  23322123.6934   23322118.1624
      3849.0814
 -10026342.80947  -7806384.19943  22100248.0064   22100243.8854
      3729.8234
  -7898979.58649  -6136259.25846  20131938.8734   20131935.0884
      1730.8124
 04  9 14 15 46 14.9980000  0  6G 1G11G14G23G20G25
  -8216485.11349  -6384106.18046  20261184.9824   20261182.4554
      2124.5984
  -5439941.43049  -4225064.16446  20635219.2014   20635215.2054
       860.8784
   4651264.31648   3614513.51643  22006946.8264   22006943.6274
     -1703.9464
  -1596975.51646  -1233588.14543  23311142.3734   23311137.7684
      3847.0294
 -10082272.09048  -7849965.44943  22089605.0064   22089601.2094
      3728.6194
  -7924813.52049  -6156389.59846  20127022.7564   20127019.1864
      1722.2624
 04  9 14 15 46 29.9980000  0  6G 1G11G14G23G20G25
  -8248281.18049  -6408882.32846  20255134.7564   20255131.7954
      2119.7384
  -5452722.69149  -4235023.60545  20632787.0764   20632783.4324
       852.0844
   4676840.17248   3634442.73043  22011814.3654   22011810.8344
     -1705.0574
  -1654650.81646  -1278529.93442  23300166.7874   23300161.8424
      3845.0204
 -10138183.76247  -7893532.98843  22078965.4434   22078961.4794
      3727.4454
  -7950519.85949  -6176420.49246  20122130.8974   20122127.7094
      1713.7564
 04  9 14 15 46 44.9980000  0  6G 1G11G14G23G20G25
  -8280004.15249  -6433601.53146  20249098.0844   20249095.4124
      2114.8654
  -5465371.90249  -4244880.14845  20630380.0924   20630376.1234
       843.2814
   4702432.71148   3654384.94943  22016684.5224   22016680.4244
     -1706.1694
  -1712295.66446  -1323447.98842  23289197.3974   23289192.4204
      3842.9904
 -10194077.38347  -7937086.45743  22068329.0294   22068325.3384
      3726.2414
  -7976098.33649  -6196351.75846  20117263.3504   20117259.8894
      1705.2324
 04  9 14 15 46 59.9980000  0  6G 1G11G14G23G20G25
  -8311653.94149  -6458263.69946  20243075.2014   20243072.8544
      2109.9864
  -5477888.96149  -4254633.70746  20627997.8264   20627994.1274
       834.4714
   4728041.94548   3674340.18443  22021557.2564   22021553.3574
     -1707.2824
  -1769909.87546  -1368342.18043  23278233.9904   23278228.9594
      3840.9474
 -10249952.68748  -7980625.65643  22057696.0294   22057692.3264
      3725.0204
  -8001548.69549  -6216183.21546  20112420.5144   20112417.0804
      1696.6914
 04  9 14 15 47 14.9980000  0  6G 1G11G14G23G20G25
  -8343230.18049  -6482868.55946  20237066.8734   20237064.1004
      2105.0834
  -5490273.37149  -4264283.91446  20625641.3814   20625637.7954
       825.6274
   4753668.17648   3694308.64843  22026433.5374   22026429.9984
     -1708.4154
  -1827492.90647  -1413212.07042  23267275.6544   23267271.4124
      3838.8694
 -10305809.16048  -8024150.18443  22047067.2094   22047063.8934
      3723.7654
  -8026870.42249  -6235914.41446  20107601.7564   20107598.7724
      1688.1154
 04  9 14 15 47 29.9980000  0  6G 1G11G14G23G20G25
  -8374733.43049  -6507416.53946  20231071.9204   20231069.4324
      2100.2174
  -5502525.72349  -4273831.21145  20623309.7324   20623305.9944
       816.8234
   4779310.71948   3714289.83643  22031313.5844   22031309.9364
     -1709.5034
  -1885045.34046  -1458058.12142  23256324.1154   23256319.4244
      3836.8294
 -10361647.07047  -8067660.23043  22036441.4904   22036437.9474
      3722.5274
  -8052064.10549  -6255545.85946  20102807.2324   20102804.2324
      1679.5794
 04  9 14 15 47 44.9980000  0  6G 1G11G14G23G20G25
  -8406163.18449  -6531907.25046  20225090.9364   20225088.3464
      2095.3174
  -5514645.46149  -4283275.17645  20621003.5614   20620999.5574
       807.9834
   4804969.96948   3734284.02343  22036196.7794   22036193.3114
     -1710.6174
  -1942566.45346  -1502879.75042  23245377.8344   23245373.1864
      3834.7414
 -10417465.68747  -8111155.24243  22025819.4124   22025815.9824
      3721.2414
  -8077129.05549  -6275076.99246  20098037.8184   20098034.4754
      1670.9974
 04  9 14 15 47 59.9980000  0  6G 1G11G14G23G20G25
  -8437519.94149  -6556341.08646  20219123.7724   20219120.7134
      2090.4514
  -5526632.97349  -4292616.10245  20618722.3974   20618718.4474
       799.1674
   4830645.27748   3754290.74243  22041082.4044   22041078.6394
     -1711.6874
  -2000056.63347  -1547677.29742  23234438.2874   23234433.1074
      3832.6794
 -10473265.28547  -8154635.43743  22015200.6394   22015197.9084
      3719.9734
  -8102065.65249  -6294508.10546  20093292.5844   20093289.7094
      1662.4404
 04  9 14 15 48 14.9980000  0  6G 1G11G14G23G20G25
  -8468803.88749  -6580718.18046  20213170.7014   20213167.8034
      2085.5964
  -5538488.54349  -4301854.22345  20616466.3344   20616462.2834
       790.3714
   4856336.46148   3774309.82043  22045971.1624   22045967.3264
     -1712.7464
  -2057515.90646  -1592450.76642  23223504.2094   23223499.2094
      3830.6184
 -10529045.80147  -8198100.77343  22004586.3114   22004582.8114
      3718.7014
  -8126874.01249  -6313839.29346  20088571.5144   20088568.3654
      1653.8914
 04  9 14 15 48 29.9980000  0  6G 1G11G14G23G20G25
  -8500015.06649  -6605038.57846  20207231.1154   20207228.6974
      2080.7454
  -5550212.25449  -4310989.59045  20614235.3114   20614231.0494
       781.5814
   4882043.34848   3794341.14843  22050863.6864   22050858.6974
     -1713.7924
  -2114944.32846  -1637200.18442  23212575.1004   23212570.4284
      3828.5614
 -10584807.05147  -8241551.08643  21993975.3424   21993971.9474
      3717.4174
  -8151554.18449  -6333070.59046  20083875.1544   20083871.8894
      1645.3454
 04  9 14 15 48 44.9980000  0  6G 1G11G14G23G20G25
  -8531153.95749  -6629302.63746  20201305.8264   20201303.2324
      2075.9264
  -5561804.41849  -4320022.45745  20612029.0684   20612025.3144
       772.8114
   4907765.25048   3814384.17243  22055757.8264   22055753.9204
     -1714.7934
  -2172342.12547  -1681925.74242  23201653.2794   23201648.4364
      3826.5204
 -10640549.38347  -8284986.67243  21983367.7174   21983364.4474
      3716.1554
  -8176106.53549  -6352202.28946  20079202.7954   20079200.1704
      1636.8234
 04  9 14 15 48 59.9980000  0  6G 1G11G14G23G20G25
  -8562220.29749  -6653510.18746  20195393.9514   20195391.2174
      2071.0894
  -5573264.82049  -4328952.65245  20609848.5064   20609844.3814
       764.0274
   4933502.36348   3834439.04743  22060655.3894   22060652.3774
     -1715.8084
  -2229709.05547  -1726627.25842  23190737.0224   23190731.7724
      3824.4624
 -10696272.29347  -8328407.11343  21972764.0844   21972760.3144
      3714.8614
  -8200530.69549  -6371234.09446  20074555.2484   20074552.7214
      1628.2774
 04  9 14 15 49 14.9980000  0  6G 1G11G14G23G20G25
  -8593214.22749  -6677661.31246  20189495.8184   20189493.3424
      2066.2624
  -5584593.68749  -4337780.34445  20607692.7564   20607688.7094
       755.2584
   4959254.29748   3854505.46143  22065555.3654   22065552.2954
     -1716.7964
  -2287045.21547  -1771304.80542  23179826.0224   23179821.2324
      3822.4114
 -10751975.77747  -8371812.43443  21962164.0924   21962160.2094
      3713.5664
  -8224826.79749  -6390166.10946  20069932.0224   20069928.7604
      1619.7404
 04  9 14 15 49 29.9980000  0  6G 1G11G14G23G20G25
  -8624135.09049  -6701755.47746  20183611.9514   20183609.6544
      2061.3914
  -5595790.29349  -4346504.99245  20605562.1234   20605558.1704
       746.4404
   4985021.74248   3874583.95343  22070458.9204   22070455.6354
     -1717.8304
  -2344349.67247  -1815957.61342  23168921.7174   23168916.9634
      3820.2974
 -10807658.89548  -8415201.88343  21951568.4984   21951563.7484
      3712.2084
  -8248993.93049  -6408997.62946  20065333.0844   20065330.0254
      1611.1424
 04  9 14 15 49 44.9980000  0  6G 1G11G14G23G20G25
  -8654983.62949  -6725793.30146  20177741.4514   20177738.8734
      2056.5694
  -5606855.38349  -4355127.16045  20603456.5844   20603452.5024
       737.6734
   5010803.74648   3894673.82843  22075365.7644   22075361.4004
     -1718.8004
  -2401623.20347  -1860586.35242  23158022.9674   23158018.0764
      3818.2354
 -10863322.19948  -8458575.89843  21940976.0224   21940971.5574
      3710.8874
  -8273032.83249  -6427729.23046  20060758.7874   20060755.9204
      1602.5934
 04  9 14 15 49 59.9980000  0  6G 1G11G14G23G20G25
  -8685759.07849  -6749774.17246  20171885.3734   20171882.8574
      2051.6974
  -5617788.05949  -4363646.14145  20601376.3654   20601372.1044
       728.8454
   5036601.11748   3914775.66043  22080275.2094   22080270.3264
     -1719.8254
  -2458864.82848  -1905190.23042  23147130.2094   23147125.0724
      3816.1084
 -10918964.53948  -8501933.55943  21930387.7484   21930383.3074
      3709.4894
  -8296942.66449  -6446360.26646  20056208.8034   20056205.5294
      1593.9894
 04  9 14 15 50 14.9980000  0  6G 1G11G14G23G20G25
  -8716461.99649  -6773698.52746  20166042.4984   20166040.3654
      2046.8614
  -5628589.08649  -4372062.53145  20599321.0534   20599317.1154
       720.0684
   5062413.14548   3934888.92643  22085185.9364   22085182.8974
     -1720.8024
  -2516075.05547  -1949769.63742  23136243.4434   23136238.8424
      3814.0154
 -10974586.39848  -8545275.27743  21919803.2954   21919798.3574
      3708.1244
  -8320723.93749  -6464891.13346  20051683.3654   20051680.3504
      1585.4184
 04  9 14 15 50 29.9980000  0  6G 1G11G14G23G20G25
  -8747092.44549  -6797566.41046  20160214.0614   20160211.2564
      2042.0304
  -5639258.40649  -4380376.29745  20597290.5844   20597286.3894
       711.2884
   5088239.69948   3955013.47343  22090100.4754   22090097.3654
     -1721.7704
  -2573253.79347  -1994324.48842  23125362.5764   23125358.5724
      3811.9164
 -11030187.52348  -8588600.83643  21909222.6544   21909218.7994
      3706.7424
  -8344376.64849  -6483321.80546  20047182.5144   20047179.2754
      1576.8474
 04  9 14 15 50 44.9980000  0  6G 1G11G14G23G20G25
  -8777651.43449  -6821378.60546  20154398.7564   20154395.9984
      2037.2664
  -5649797.03149  -4388588.21945  20595285.0064   20595281.4514
       702.5754
   5114079.68048   3975148.49643  22095017.8264   22095014.1934
     -1722.6654
  -2630401.88347  -2038855.45342  23114487.5614   23114483.6624
      3809.8734
 -11085768.72348  -8631910.85543  21898645.7094   21898641.6544
      3705.4134
  -8367901.70749  -6501653.01246  20042705.7564   20042702.5494
      1568.3374
 04  9 14 15 50 59.9980000  0  6G 1G11G14G23G20G25
  -8808138.47749  -6845134.74646  20148597.3114   20148594.8464
      2032.4704
  -5660204.41849  -4396697.88346  20593304.8264   20593300.8544
       693.8264
   5139933.40248   3995294.23843  22099937.9674   22099934.0024
     -1723.5824
  -2687518.80947  -2083362.14543  23103618.7174   23103614.1004
      3807.7954
 -11141329.34848  -8675204.85243  21888073.1234   21888069.5184
      3704.0424
  -8391298.60249  -6519884.36347  20038253.5924   20038250.5294
      1559.7934
 04  9 14 15 51 14.9980000  0  6G 1G11G14G23G20G25
  -8838554.22749  -6868835.32846  20142809.3574   20142806.9164
      2027.7174
  -5670481.14849  -4404705.73045  20591348.8504   20591345.1704
       685.1154
   5165800.07448   4015450.08243  22104859.9044   22104856.2834
     -1724.4454
  -2744605.05147  -2127844.91843  23092755.6544   23092750.6504
      3805.7494
 -11196869.70748  -8718483.05543  21877503.8814   21877499.7484
      3702.6914
  -8414567.84849  -6538016.23847  20033825.5064   20033822.8074
      1551.2834
 04  9 14 15 51 29.9980000  0  6G 1G11G14G23G20G25
  -8868898.33249  -6892480.09046  20137035.2324   20137032.4944
      2022.9404
  -5680626.95349  -4412611.57046  20589418.6624   20589414.6934
       676.3874
   5191679.99648   4035616.23843  22109784.3424   22109780.9754
     -1725.3284
  -2801660.14147  -2172303.43743  23081898.1864   23081893.5024
      3803.6734
 -11252389.28548  -8761745.05143  21866938.6394   21866935.1074
      3701.3054
  -8437708.95349  -6556048.25846  20029421.7874   20029419.1934
      1542.7404
 04  9 14 15 51 44.9980000  0  6G 1G11G14G23G20G25
  -8899170.82049  -6916069.04346  20131274.4824   20131271.9554
      2018.1664
  -5690641.78149  -4420415.33246  20587512.6544   20587508.8854
       667.6554
   5217573.20348   4055792.73043  22114711.9594   22114708.6664
     -1726.2144
  -2858684.05147  -2216737.64143  23071046.9044   23071042.2324
      3801.5944
 -11307887.85948  -8804990.69543  21856378.2254   21856374.5574
      3699.9054
  -8460721.72749  -6573980.28546  20025042.7324   20025040.0534
      1534.1854
 04  9 14 15 51 59.9980000  0  6G 1G11G14G23G20G25
  -8929371.23049  -6939601.83246  20125527.5294   20125524.9324
      2013.3614
  -5700525.25849  -4428116.75846  20585632.0454   20585628.4284
       658.8984
   5243479.88348   4075979.72743  22119642.1004   22119639.3344
     -1727.1124
  -2915676.20347  -2261147.10243  23060202.1074   23060196.6274
      3799.4774
 -11363364.73847  -8848219.42643  21845820.3034   21845817.4284
      3698.4594
  -8483605.74249  -6591811.97346  20020688.1784   20020685.2214
      1525.6014
 04  9 14 15 52 14.9980000  0  6G 1G11G14G23G20G25
  -8959499.72349  -6963078.55946  20119793.9754   20119791.9824
      2008.5664
  -5710277.59449  -4435715.98846  20583776.1544   20583772.4044
       650.1564
   5269399.77348   4096177.02343  22124574.6704   22124571.5804
     -1727.9934
  -2972636.55147  -2305531.77743  23049362.4984   23049357.4394
      3797.3574
 -11418819.88348  -8891431.21943  21835267.9984   21835264.9164
      3697.0104
  -8506361.16049  -6609543.46146  20016357.8114   20016355.0574
      1517.0284
 04  9 14 15 52 29.9980000  0  6G 1G11G14G23G20G25
  -8989556.53149  -6986499.45346  20114074.4984   20114071.9794
      2003.7874
  -5719898.97349  -4443213.18446  20581945.3114   20581941.4984
       641.4254
   5295332.64148   4116384.43043  22129509.6154   22129506.0454
     -1728.8584
  -3029565.24647  -2349891.79342  23038529.6154   23038524.4124
      3795.2464
 -11474253.28548  -8934626.07044  21824719.6004   21824716.1354
      3695.5604
  -8528988.20349  -6627174.92246  20012051.7724   20012049.1544
      1508.4704
 04  9 14 15 52 44.9980000  0  6G 1G11G14G23G20G25
  -9019542.41449  -7009865.05546  20108368.5534   20108366.0254
      1999.0594
  -5729390.05549  -4450608.84446  20580139.3654   20580135.5144
       632.7394
   5321277.66448   4136601.31342  22134446.5684   22134442.5764
     -1729.6684
  -3086462.97347  -2394227.67243  23027701.9674   23027697.1354
      3793.1824
 -11529665.44148  -8977804.35943  21814175.0374   21814171.6274
      3694.1444
  -8551487.28149  -6644706.67246  20007770.4514   20007767.4434
      1499.9394
 04  9 14 15 52 59.9980000  0  6G 1G11G14G23G20G25
  -9049456.31249  -7033174.59046  20102675.7174   20102673.5184
      1994.2604
  -5738749.88749  -4457902.23445  20578358.1934   20578354.3034
       623.9894
   5347235.67648   4156828.32043  22139386.8264   22139382.2484
     -1730.5344
  -3143328.61747  -2438538.54343  23016881.1154   23016875.7014
      3791.0434
 -11585055.03148  -9020965.07443  21803634.5614   21803631.0614
      3692.6394
  -8573857.47349  -6662137.98046  20003513.4204   20003510.6624
      1491.3464
 04  9 14 15 53 14.9980000  0  6G 1G11G14G23G20G25
  -9079298.03149  -7056427.86746  20096997.4044   20096994.4124
      1989.4484
  -5747978.37549  -4465093.27746  20576602.0924   20576597.9864
       615.2334
   5373206.85248   4177065.58243  22144329.0144   22144324.9394
     -1731.4124
  -3200161.75047  -2482824.09442  23006065.7324   23006060.9084
      3788.8764
 -11640421.65248  -9064107.90243  21793098.6934   21793094.9324
      3691.1084
  -8596098.51649  -6679468.66446  19999281.2724   19999278.5414
      1482.7364
 04  9 14 15 53 29.9980000  0  6G 1G11G14G23G20G25
  -9109068.93049  -7079625.98046  20091332.2794   20091329.0844
      1984.7274
  -5757076.71549  -4472182.90246  20574870.9674   20574867.1154
       606.5564
   5399189.77748   4197311.99643  22149272.9434   22149270.4004
     -1732.1954
  -3256963.67647  -2527085.32042  22995256.7794   22995251.4364
      3786.7954
 -11695766.48848  -9107233.74243  21782567.1154   21782563.2444
      3689.6564
  -8618211.70749  -6696699.71146  19995073.2094   19995070.4434
      1474.2134
 04  9 14 15 53 44.9980000  0  6G 1G11G14G23G20G25
  -9138767.87949  -7102768.02046  20085680.8814   20085677.6354
      1979.9304
  -5766043.93749  -4479170.36745  20573164.2644   20573160.4084
       597.8154
   5425185.33248   4217568.23843  22154219.5924   22154215.9714
     -1733.0374
  -3313733.27047  -2571321.35242  22984453.5374   22984448.4124
      3784.6404
 -11751088.25448  -9150341.62143  21772039.6314   21772035.3774
      3688.1184
  -8640195.79349  -6713830.16446  19990889.4674   19990886.7794
      1465.6064
 04  9 14 15 53 59.9980000  0  6G 1G11G14G23G20G25
  -9168395.75849  -7125854.68046  20080042.6864   20080039.7014
      1975.1924
  -5774880.84449  -4486056.28145  20571482.3424   20571478.4864
       589.1274
   5451192.64548   4237833.66443  22159168.2174   22159164.9124
     -1733.8214
  -3370471.16847  -2615532.69142  22973656.8734   22973651.5534
      3782.5274
 -11806387.40649  -9193431.86743  21761516.6934   21761512.2834
      3686.6104
  -8662051.76249  -6730860.78146  19986730.9204   19986727.7794
      1457.0654
 04  9 14 15 54 14.9980000  0  6G 1G11G14G23G20G25
  -9197953.55949  -7148886.72746  20074418.0684   20074414.8034
      1970.5204
  -5783588.43749  -4492841.43745  20569825.6934   20569821.9474
       580.5064
   5477210.51648   4258107.30543  22164119.9824   22164116.4634
     -1734.5254
  -3427178.25047  -2659720.00842  22962865.9594   22962860.3464
      3780.4724
 -11861664.82848  -9236505.18743  21750997.5374   21750993.2324
      3685.1614
  -8683780.33249  -6747792.12546  19982595.8034   19982592.8614
      1448.5714
 04  9 14 15 54 29.9980000  0  6G 1G11G14G23G20G25
  -9227439.85949  -7171863.07446  20068807.2794   20068804.0294
      1965.7534
  -5792165.17649  -4499524.61745  20568193.1314   20568189.6114
       571.7834
   5503240.39148   4278390.31643  22169073.6544   22169069.8694
     -1735.3254
  -3483853.02347  -2703882.16442  22952081.1234   22952075.7364
      3778.3184
 -11916918.88348  -9279560.29344  21740483.4824   21740479.1624
      3683.6044
  -8705380.06649  -6764623.09046  19978485.6704   19978482.3544
      1439.9824
 04  9 14 15 54 44.9980000  0  6G 1G11G14G23G20G25
  -9256854.87549  -7194783.86746  20063209.3734   20063206.2564
      1961.0014
  -5800611.39849  -4506106.10545  20566586.3734   20566582.4824
       563.0824
   5529282.09848   4298682.52343  22174029.0064   22174026.3894
     -1736.1144
  -3540495.43447  -2748019.10942  22941302.2484   22941297.2564
      3776.1614
 -11972149.35949  -9322597.03143  21729973.3264   21729969.0884
      3682.0324
  -8726851.17249  -6781353.80546  19974399.5924   19974396.2094
      1431.4074
 04  9 14 15 54 59.9980000  0  6G 1G11G14G23G20G25
  -9286198.64849  -7217649.14846  20057625.6784   20057622.3734
      1956.2524
  -5808927.22749  -4512585.98445  20565003.7724   20564999.8504
       554.3894
   5555335.37548   4318983.74643  22178985.8424   22178984.2254
     -1736.8854
  -3597105.49247  -2792130.82442  22930529.2644   22930524.4904
      3774.0044
 -12027356.09448  -9365615.26643  21719467.6474   21719464.3224
      3680.4494
  -8748193.66849  -6797984.32046  19970338.3654   19970335.0494
      1422.8334
 04  9 14 15 55 14.9980000  0  6G 1G11G14G23G20G25
  -9315471.98449  -7240459.53946  20052054.8184   20052052.3384
      1951.5564
  -5817113.36749  -4518964.81645  20563445.9594   20563442.1274
       545.7434
   5581399.41048   4339293.35243  22183946.3974   22183943.6314
     -1737.6024
  -3653684.01647  -2836217.99642  22919763.0374   22919758.4944
      3771.9024
 -12082539.77048  -9408615.52344  21708966.6624   21708963.0224
      3678.9124
  -8769408.12149  -6814515.05546  19966301.2014   19966297.7134
      1414.2974
 04  9 14 15 55 29.9980000  0  6G 1G11G14G23G20G25
  -9344674.12949  -7263214.45346  20046497.9594   20046495.4284
      1946.8104
  -5825169.06649  -4525241.99645  20561912.9674   20561909.4474
       537.0474
   5607474.80948   4359611.81643  22188908.9124   22188905.3934
     -1738.3604
  -3710230.14546  -2880279.87542  22909002.4754   22908998.0804
      3769.7424
 -12137699.17649  -9451596.86744  21698470.2014   21698466.7754
      3677.2944
  -8790493.58649  -6830945.28146  19962289.1234   19962285.2444
      1405.6984
 04  9 14 15 55 44.9980000  0  6G 1G11G14G23G20G25
  -9373805.09849  -7285913.90646  20040954.5294   20040951.9474
      1942.0654
  -5833094.40249  -4531417.59045  20560404.9434   20560401.3974
       528.3564
   5633561.55148   4379939.16043  22193873.0684   22193869.3574
     -1739.1164
  -3766743.57047  -2924316.28942  22898248.3504   22898243.8034
      3767.5624
 -12192834.23449  -9494559.25444  21687977.8424   21687975.2054
      3675.6714
  -8811450.27049  -6847275.16046  19958301.1784   19958298.0574
      1397.1124
 04  9 14 15 55 59.9980000  0  6G 1G11G14G23G20G25
  -9402865.46549  -7308558.35246  20035424.5224   20035422.0454
      1937.3584
  -5840890.03549  -4537492.12545  20558921.4124   20558917.7954
       519.7094
   5659658.92648   4400274.74243  22198838.4594   22198835.6864
     -1739.8254
  -3823224.92247  -2968327.73842  22887500.0844   22887495.8224
      3765.4234
 -12247945.31249  -9537502.93744  21677490.8264   21677487.2914
      3674.0724
  -8832278.80949  -6863505.19146  19954337.7174   19954334.3774
      1388.5694
 04  9 14 15 56 14.9980000  0  6G 1G11G14G23G20G25
  -9431855.13749  -7331147.69946  20029907.7014   20029905.2174
      1932.6454
  -5848555.82049  -4543465.48445  20557462.6074   20557459.1004
       511.0524
   5685766.94148   4420618.60243  22203806.2644   22203803.9044
     -1740.5344
  -3879673.85947  -3012313.89542  22876758.7324   22876753.7174
      3763.2624
 -12303032.03949  -9580427.65244  21667008.5294   21667004.8184
      3672.4484
  -8852978.91049  -6879635.12946  19950398.6234   19950395.3464
      1380.0074
 04  9 14 15 56 29.9970000  0  6G 1G11G14G23G20G25
  -9460771.82049  -7353680.17246  20024404.8764   20024402.4814
      1927.7794
  -5856090.62949  -4549336.77045  20556028.9154   20556025.0364
       502.3214
   5711884.09048   4440969.60543  22208776.7044   22208774.0794
     -1741.1434
  -3936086.15247  -3056271.51643  22866023.8214   22866019.1814
      3760.8204
 -12358090.13349  -9623330.05944  21656531.1264   21656527.5914
      3670.5404
  -8873548.72749  -6895663.55146  19946484.1574   19946480.9814
      1371.3214
 04  9 14 15 56 44.9970000  0  6G 1G11G14G23G20G25
  -9489620.02349  -7376159.28546  20018915.3764   20018912.7744
      1923.2144
  -5863496.60549  -4555107.67645  20554619.4784   20554615.8064
       493.7324
   5738013.11748   4461329.88342  22213749.2044   22213745.2714
     -1741.9354
  -3992469.99648  -3100206.97342  22855294.6734   22855289.4854
      3758.9234
 -12413127.31649  -9666216.16844  21646057.8684   21646054.4744
      3669.1464
  -8893991.63749  -6911593.08246  19942594.1814   19942591.2474
      1362.8614
 04  9 14 15 56 59.9970000  0  6G 1G11G14G23G20G25
  -9518397.93749  -7398583.63746  20013439.2984   20013436.8924
      1918.5284
  -5870773.18449  -4560777.75045  20553235.0794   20553231.1184
       485.1054
   5764152.08248   4481697.89142  22218723.0014   22218718.6144
     -1742.5984
  -4048821.62147  -3144117.31243  22844571.4314   22844565.6884
      3756.7754
 -12468139.82849  -9709083.06244  21635589.2044   21635585.6344
      3667.5014
  -8914306.30149  -6927422.69546  19938728.1344   19938724.8024
      1354.3114
 04  9 14 15 57 14.9970000  0  6G 1G11G14G23G20G25
  -9547106.02349  -7420953.56646  20007976.6424   20007974.0444
      1913.8724
  -5877920.91049  -4566347.41045  20551874.9074   20551871.3684
       476.5154
   5790300.46948   4502073.25042  22223698.5794   22223695.6654
     -1743.2264
  -4105141.32848  -3188002.78143  22833853.7044   22833848.4114
      3754.6474
 -12523127.78949  -9751930.82044  21625125.6574   21625122.1064
      3665.8644
  -8934493.19149  -6943152.72746  19934886.6814   19934883.4704
      1345.7934
 04  9 14 15 57 29.9970000  0  6G 1G11G14G23G20G25
  -9575744.34049  -7443269.14146  20002526.5014   20002524.3024
      1909.2214
  -5884939.88349  -4571816.75045  20550539.2284   20550535.6184
       467.9324
   5816458.22347   4522455.89542  22228676.0954   22228672.8724
     -1743.8504
  -4161429.03948  -3231863.32843  22823142.3604   22823136.8994
      3752.5144
 -12578091.13749  -9794759.39844  21614666.1964   21614662.7744
      3664.2234
  -8954552.31249  -6958783.20746  19931069.5484   19931066.5994
      1337.2754
 04  9 14 15 57 44.9970000  0  6G 1G11G14G23G20G25
  -9604312.07449  -7465529.70346  19997090.3604   19997087.7944
      1904.5164
  -5891829.26649  -4577185.10546  20549228.2354   20549224.0524
       459.2924
   5842625.94547   4542846.29743  22233655.9784   22233652.8884
     -1744.5154
  -4217683.81248  -3275698.19543  22812438.0954   22812432.5214
      3750.3184
 -12633028.78949  -9837567.95344  21604212.0244   21604208.5324
      3662.5104
  -8974482.91049  -6974313.53546  19927276.9464   19927273.2944
      1328.7074
 04  9 14 15 57 59.9970000  0  6G 1G11G14G23G20G25
  -9632808.85949  -7487734.98446  19991667.7594   19991664.9624
      1899.7864
  -5898588.75049  -4582452.25046  20547942.1264   20547937.9464
       450.6324
   5868803.95747   4563244.73443  22238637.5714   22238635.3764
     -1745.2014
  -4273905.26248  -3319507.11343  22801738.7674   22801734.2944
      3748.0974
 -12687940.13348  -9880356.00044  21593762.6184   21593759.0564
      3660.7564
  -8994284.36349  -6989743.23846  19923508.8684   19923505.6184
      1320.0974
 04  9 14 15 58 14.9970000  0  6G 1G11G14G23G20G25
  -9661236.04349  -7509886.03146  19986258.3534   19986255.5524
      1895.1464
  -5905219.62149  -4587619.17246  20546680.3294   20546676.4354
       442.0584
   5894990.91047   4583650.10943  22243620.1734   22243617.8844
     -1745.7974
  -4330094.58648  -3363290.98443  22791046.4854   22791041.3534
      3745.9554
 -12742826.18049  -9923124.34444  21583318.2514   21583314.5564
      3659.0704
  -9013957.99649  -7005073.33246  19919765.2044   19919761.7474
      1311.5764
 04  9 14 15 58 29.9970000  0  6G 1G11G14G23G20G25
  -9689593.64149  -7531982.85546  19980862.0634   19980859.3884
      1890.5074
  -5911721.92649  -4592685.90246  20545442.4074   20545439.1064
       433.4874
   5921186.71147   4604062.41042  22248604.9464   22248602.4314
     -1746.3874
  -4386251.64848  -3407049.71543  22780359.9854   22780355.2354
      3743.8044
 -12797686.74649  -9965872.84444  21572878.5484   21572874.6854
      3657.3714
  -9033503.82449  -7020303.84846  19916045.8374   19916042.2314
      1303.0554
 04  9 14 15 58 44.9970000  0  6G 1G11G14G23G20G25
  -9717881.17649  -7554025.09446  19975479.1884   19975476.2434
      1885.8364
  -5918095.12549  -4597652.04345  20544230.1494   20544226.2824
       424.8804
   5947391.74647   4624481.88342  22253592.5484   22253589.4354
     -1747.0024
  -4442375.81248  -3450782.82043  22769680.1034   22769675.1104
      3741.6114
 -12852521.05949 -10008600.86744  21562444.1104   21562440.1064
      3655.6214
  -9052921.38749  -7035434.41446  19912350.7434   19912347.3374
      1294.5044
 04  9 14 15 58 59.9970000  0  6G 1G11G14G23G20G25
  -9746098.18049  -7576012.36346  19970109.3924   19970106.8454
      1881.1344
  -5924338.97749  -4602517.40246  20543041.7044   20543038.1574
       416.2574
   5973606.35547   4644908.83243  22258581.4624   22258577.8644
     -1747.6414
  -4498466.62548  -3494489.93043  22759006.5174   22759001.7004
      3739.3874
 -12907328.37949 -10051307.87944  21552014.5404   21552010.4384
      3653.8214
  -9072209.98849  -7050464.48046  19908680.1344   19908676.8104
      1285.9074
 04  9 14 15 59 14.9970000  0  6G 1G11G14G23G20G25
  -9774244.13349  -7597944.28146  19964753.6034   19964750.7674
      1876.3974
  -5930452.89849  -4607281.50845  20541878.5874   20541875.0134
       407.5954
   5999831.00448   4665343.62143  22263571.8294   22263568.0674
     -1748.3104
  -4554523.25048  -3538170.39842  22748339.2514   22748334.0834
      3737.1084
 -12962107.90249 -10093993.22744  21541590.2284   21541586.2984
      3651.9684
  -9091369.12149  -7065393.67646  19905034.2434   19905031.2634
      1277.2764
 04  9 14 15 59 29.9970000  0  6G 1G11G14G23G20G25
  -9802319.08249  -7619820.85946  19959411.1574   19959408.1534
      1871.6634
  -5936436.96549  -4611944.42645  20540739.6574   20540736.3644
       398.9384
   6026065.49647   4685786.07843  22268563.3064   22268561.7394
     -1748.9664
  -4610545.65248  -3581824.21142  22737678.3764   22737673.5134
      3734.8274
 -13016859.57449 -10136656.86744  21531171.4074   21531167.2674
      3650.1114
  -9110398.73049  -7080221.93446  19901413.0324   19901410.0794
      1268.6414
 04  9 14 15 59 44.9970000  0  6G 1G11G14G23G20G25
  -9830323.17249  -7641642.22346  19954082.0564   19954079.2244
      1866.9394
  -5942291.43749  -4616506.36345  20539625.5954   20539621.8024
       390.2984
   6052309.78147   4706236.11743  22273557.8764   22273555.7714
     -1749.6194
  -4666534.00448  -3625451.48842  22727024.1494   22727019.1184
      3732.5574
 -13071583.27049 -10179298.71544  21520757.8764   21520753.9034
      3648.2464
  -9129299.13349  -7094949.51646  19897816.2674   19897813.7634
      1260.0274
 04  9 14 15 59 59.9970000  0  6G 1G11G14G23G20G25
  -9858257.19149  -7663408.99246  19948766.3374   19948763.5714
      1862.2684
  -5948017.07849  -4620967.91446  20538535.9544   20538532.8884
       381.7094
   6078563.00047   4726693.13343  22278553.8374   22278550.9854
     -1750.2154
  -4722488.91448  -3669052.69942  22716376.0014   22716371.1384
      3730.3274
 -13126279.44149 -10221919.11344  21510349.3534   21510345.7004
      3646.4114
  -9148071.02049  -7109576.96146  19894244.1104   19894241.2714
      1251.4594
 04  9 14 16  0 14.9970000  0  6G 1G11G14G23G20G25
  -9886120.11349  -7685120.35946  19943464.2514   19943461.3764
      1857.5284
  -5953612.84449  -4625328.26646  20537471.3294   20537467.9974
       373.0514
   6104825.96947   4747157.78543  22283552.2354   22283548.4114
     -1750.8654
  -4778409.35248  -3712627.05142  22705735.0094   22705730.1854
      3728.0294
 -13180946.78949 -10264517.03544  21499946.7434   21499942.6494
      3644.4904
  -9166713.18449  -7124103.31246  19890696.8134   19890693.9424
      1242.8114
 04  9 14 16  0 29.9970000  0  6G 1G11G14G23G20G25
  -9913913.08249  -7706777.21946  19938175.2674   19938172.8414
      1852.8654
  -5959079.86749  -4629588.30146  20536431.1184   20536427.4354
       364.4684
   6131097.68047   4767629.25043  22288551.3454   22288546.7864
     -1751.4474
  -4834296.16048  -3756175.21542  22695100.0404   22695095.0284
      3725.7874
 -13235586.17249 -10307093.16844  21489548.8294   21489545.4154
      3642.6264
  -9185226.76649  -7138529.48846  19887173.6104   19887170.1264
      1234.2394
 04  9 14 16  0 44.9970000  0  6G 1G11G14G23G20G25
  -9941635.74249  -7728379.28946  19932900.0564   19932897.0404
      1848.1774
  -5964417.98049  -4633747.87946  20535415.0324   20535411.6924
       355.8744
   6157378.26247   4788107.59843  22293551.6574   22293548.7824
     -1752.0394
  -4890148.96147  -3799696.85542  22684471.3684   22684466.5014
      3723.5204
 -13290197.05149 -10349647.10944  21479157.0244   21479153.1464
      3640.7254
  -9203611.52049  -7152855.25846  19883675.2594   19883672.1884
      1225.6504
 04  9 14 16  0 59.9970000  0  6G 1G11G14G23G20G25
  -9969288.09049  -7749926.57446  19927637.7984   19927635.0604
      1843.4904
  -5969627.25049  -4637807.06245  20534424.0564   20534419.9194
       347.2854
   6183667.68847   4808592.83243  22298554.1184   22298552.1884
     -1752.6284
  -4945967.67648  -3843191.93742  22673849.8294   22673844.3024
      3721.2484
 -13344779.18049 -10392178.63344  21468769.9314   21468766.4854
      3638.8094
  -9221867.35949  -7167080.57846  19880201.2904   19880198.3454
      1217.0564
 04  9 14 16  1 14.9970000  0  6G 1G11G14G23G20G25
  -9996869.52749  -7771418.60246  19922389.4784   19922386.6614
      1838.7634
  -5974706.98449  -4641765.31245  20533457.3214   20533453.6264
       338.6494
   6209966.47347   4829085.36343  22303559.3924   22303555.7044
     -1753.2524
  -5001751.53548  -3886659.87942  22663234.7674   22663229.1854
      3718.9244
 -13399331.69948 -10434687.09044  21458388.7124   21458385.4314
      3636.8354
  -9239993.66049  -7181204.96146  19876751.4854   19876748.7084
      1208.4204
 04  9 14 16  1 29.9970000  0  6G 1G11G14G23G20G25
 -10024380.80149  -7792855.94946  19917154.2204   19917151.3534
      1834.0854
  -5979658.02049  -4645623.27745  20532515.2434   20532511.8644
       330.0694
   6236273.76647   4849584.53943  22308565.3064   22308562.0174
     -1753.8204
  -5057501.19547  -3930101.16442  22652625.9544   22652620.2164
      3716.6444
 -13453855.16848 -10477172.90244  21448012.9464   21448009.8064
      3634.8984
  -9257991.09449  -7195228.93046  19873327.1184   19873324.2164
      1199.8294
 04  9 14 16  1 44.9970000  0  6G 1G11G14G23G20G25
 -10051821.75849  -7814238.51646  19911932.1884   19911929.2284
      1829.3974
  -5984480.23049  -4649380.85245  20531597.3684   20531593.7434
       321.4814
   6262589.57847   4870090.35943  22313572.7434   22313570.1884
     -1754.3874
  -5113216.50447  -3973515.66442  22642023.3294   22642018.8024
      3714.3544
 -13508349.05948 -10519635.66844  21437643.3684   21437640.2124
      3632.9264
  -9275859.44949  -7209152.31647  19869926.9934   19869924.1184
      1191.2244
 04  9 14 16  1 59.9970000  0  6G 1G11G14G23G20G25
 -10079192.52349  -7835566.38346  19906723.5794   19906721.1654
      1824.7184
  -5989173.78149  -4653038.17245  20530704.5954   20530700.5484
       312.9034
   6288913.87947   4890602.78543  22318582.7984   22318579.9704
     -1754.9534
  -5168897.25047  -4016903.25842  22631426.7284   22631422.0754
      3712.0504
 -13562813.18049 -10562075.23444  21427279.3924   21427276.2434
      3630.9414
  -9293598.75849  -7222975.14847  19866551.2744   19866548.5954
      1182.6214
 04  9 14 16  2 14.9970000  0  6G 1G11G14G23G20G25
 -10106493.61749  -7856839.96146  19901528.5714   19901525.8764
      1820.0734
  -5993739.25449  -4656595.69945  20529835.7434   20529831.7204
       304.3654
   6315246.05547   4911121.35243  22323592.5794   22323590.6774
     -1755.4784
  -5224543.88347  -4060264.27742  22620838.0954   22620832.9384
      3709.7764
 -13617247.83649 -10604491.85244  21416921.4464   21416917.7004
      3628.9774
  -9311209.48849  -7236697.79346  19863199.5014   19863196.5914
      1174.0494
 04  9 14 16  2 29.9970000  0  6G 1G11G14G23G20G25
 -10133724.46949  -7878058.80146  19896346.4314   19896344.0054
      1815.3904
  -5998175.98049  -4660052.90245  20528991.5634   20528987.6694
       295.7824
   6341586.70747   4931646.48443  22328604.6964   22328603.4354
     -1756.0434
  -5280155.82047  -4103598.20742  22610254.9234   22610250.6614
      3707.4634
 -13671652.23049 -10646884.88744  21406568.3214   21406564.4424
      3626.9604
  -9328691.12549  -7250319.84846  19859873.2674   19859870.3964
      1165.4424
 04  9 14 16  2 44.9970000  0  6G 1G11G14G23G20G25
 -10160885.95349  -7899223.58246  19891177.9934   19891175.8024
      1810.7664
  -6002485.05149  -4663410.62945  20528171.4384   20528167.2714
       287.2714
   6367934.84047   4952177.47343  22333619.7674   22333617.0284
     -1756.5424
  -5335733.74247  -4146905.66843  22599678.9544   22599674.9744
      3705.1954
 -13726026.90249 -10689254.76244  21396221.3604   21396217.7744
      3624.9784
  -9346044.48849  -7263841.94546  19856570.9544   19856568.3964
      1156.8914
 04  9 14 16  2 59.9970000  0  6G 1G11G14G23G20G25
 -10187977.94549  -7920334.22346  19886022.5174   19886020.0094
      1806.1334
  -6006666.34849  -4666668.79745  20527376.0874   20527371.6224
       278.7534
   6394290.48046   4972714.34842  22338634.8294   22338631.4504
     -1757.0434
  -5391277.34046  -4190186.38342  22589109.4074   22589105.0834
      3702.9074
 -13780371.53149 -10731601.23044  21385880.0324   21385876.6264
      3622.9754
  -9363269.44949  -7277263.98846  19853293.2284   19853290.1694
      1148.3314
 04  9 14 16  3 14.9970000  0  6G 1G11G14G23G20G25
 -10214999.91849  -7941390.30946  19880880.5094   19880878.4074
      1801.4654
  -6010719.34049  -4669826.98045  20526604.3064   20526600.6304
       270.1994
   6420654.18447   4993257.45742  22343651.5094   22343648.6264
     -1757.5804
  -5446786.03947  -4233439.88743  22578547.2354   22578542.2864
      3700.5804
 -13834685.18749 -10773923.55945  21375544.4074   21375540.8024
      3620.9104
  -9380365.39849  -7290585.50846  19850039.6654   19850036.9854
      1139.7304
 04  9 14 16  3 29.9970000  0  6G 1G11G14G23G20G25
 -10241951.43449  -7962391.47746  19875751.9704   19875749.1104
      1796.7684
  -6014643.62549  -4672884.87545  20525857.8064   20525854.1924
       261.6194
   6447026.28147   5013807.12543  22348669.6814   22348667.2784
     -1758.1404
  -5502259.32047  -4276665.80543  22567990.5094   22567986.1494
      3698.2194
 -13888967.34049 -10816221.35244  21365214.7434   21365211.4154
      3618.8104
  -9397332.03949  -7303806.26246  19846811.0564   19846808.2784
      1131.1094
 04  9 14 16  3 44.9970000  0  6G 1G11G14G23G20G25
 -10268833.15649  -7983338.27346  19870636.0564   19870633.8334
      1792.1154
  -6018439.90649  -4675843.02345  20525135.3134   20525131.5524
       253.0854
   6473405.98047   5034362.71543  22353690.1574   22353687.0444
     -1758.6474
  -5557697.66047  -4319864.48843  22557440.9624   22557436.5994
      3695.8894
 -13943218.32049 -10858494.83644  21354891.4154   21354887.5324
      3616.7324
  -9414169.82849  -7316926.60946  19843607.2204   19843604.0094
      1122.5194
 04  9 14 16  3 59.9970000  0  6G 1G11G14G23G20G25
 -10295645.28149  -8004230.83646  19865534.2514   19865531.8064
      1787.4754
  -6022108.55549  -4678701.72345  20524437.2044   20524433.4934
       244.5774
   6499793.07847   5054924.05943  22358712.1884   22358708.3064
     -1759.1404
  -5613101.18748  -4363036.04343  22546898.0634   22546893.3844
      3693.5684
 -13997437.93749 -10900743.89144  21344573.3534   21344570.5634
      3614.6414
  -9430878.90249  -7329946.66446  19840427.2354   19840424.0794
      1113.9384
 04  9 14 16  4 14.9970000  0  6G 1G11G14G23G20G25
 -10322388.34849  -8025069.58646  19860445.2204   19860442.5954
      1782.8714
  -6025650.14549  -4681461.41445  20523762.9934   20523759.6924
       236.1064
   6526186.85347   5075490.64542  22363733.3684   22363731.3564
     -1759.5854
  -5668470.28948  -4406180.78143  22536361.9854   22536357.3964
      3691.2734
 -14051626.59049 -10942968.81244  21334261.8844   21334258.6184
      3612.5774
  -9447459.77349  -7342866.82046  19837272.1884   19837269.5994
      1105.3914
 04  9 14 16  4 29.9970000  0  6G 1G11G14G23G20G25
 -10349062.25449  -8045854.44146  19855369.3924   19855366.7594
      1778.2604
  -6029064.57049  -4684122.00845  20523113.1104   20523109.9814
       227.6284
   6552587.60247   5096062.59442  22368757.7044   22368754.6144
     -1760.0504
  -5723804.74248  -4449298.52043  22525832.1814   22525827.0214
      3688.9644
 -14105783.89549 -10985169.30544  21323956.0094   21323952.5484
      3610.4874
  -9463912.51649  -7355687.13346  19834141.5874   19834138.6144
      1096.8494
 04  9 14 16  4 44.9970000  0  6G 1G11G14G23G20G25
 -10375666.41049  -8066584.94547  19850306.6964   19850303.9784
      1773.6104
  -6032351.24249  -4686683.05945  20522487.8844   20522484.0484
       219.1114
   6578995.69947   5116640.32842  22373783.6344   22373779.8604
     -1760.5404
  -5779103.99648  -4492388.82043  22515308.6104   22515303.9194
      3686.6174
 -14159909.02749 -11027344.73444  21313656.2824   21313652.6224
      3608.3424
  -9480236.47749  -7368407.09446  19831035.2284   19831032.0564
      1088.2644
 04  9 14 16  4 59.9970000  0  6G 1G11G14G23G20G25
 -10402200.81649  -8087261.10546  19845257.5874   19845254.5994
      1768.9604
  -6035510.40249  -4689144.74645  20521886.7044   20521883.0094
       210.6114
   6605411.02747   5137223.66843  22378810.1964   22378806.6144
     -1761.0224
  -5834367.84848  -4535451.55943  22504792.9074   22504787.1224
      3684.2574
 -14214001.69949 -11069494.86744  21303362.8374   21303359.0754
      3606.1784
  -9496431.64549  -7381026.69946  19827953.4624   19827950.3924
      1079.6784
 04  9 14 16  5 14.9970000  0  6G 1G11G14G23G20G25
 -10428665.94149  -8107883.27046  19840221.3684   19840218.4354
      1764.3424
  -6038542.41049  -4691507.36345  20521309.7744   20521306.3994
       202.1344
   6631833.25447   5157812.40242  22383838.2354   22383834.8174
     -1761.4824
  -5889596.68448  -4578486.98843  22494282.9234   22494277.8414
      3681.9224
 -14268062.04349 -11111619.81244  21293075.1574   21293071.5994
      3604.0234
  -9512498.47749  -7393546.30546  19824895.9704   19824892.7474
      1071.1224
 04  9 14 16  5 29.9970000  0  6G 1G11G14G23G20G25
 -10455061.81249  -8128451.47746  19835198.4074   19835195.2204
      1759.7254
  -6041447.44549  -4693771.03145  20520756.9464   20520753.4194
       193.6694
   6658262.07847   5178406.27043  22388866.6034   22388864.4934
     -1761.9224
  -5944790.25048  -4621494.94943  22483779.1104   22483774.7944
      3679.5714
 -14322089.89149 -11153719.42244  21282794.2044   21282790.7594
      3601.8574
  -9528436.74249  -7405965.73046  19821862.8214   19821859.9894
      1062.5514
 04  9 14 16  5 44.9970000  0  6G 1G11G14G23G20G25
 -10481387.19949  -8148964.77346  19830188.9234   19830185.6964
      1755.0264
  -6044224.32849  -4695934.83645  20520228.4314   20520224.9114
       185.1264
   6684698.76247   5199006.26243  22393897.8994   22393896.0014
     -1762.4464
  -5999947.35948  -4664474.49243  22473283.9934   22473279.0094
      3677.1414
 -14376083.71549 -11195792.53944  21272519.5484   21272515.6884
      3599.5884
  -9544245.39149  -7418284.14846  19818854.6184   19818851.7944
      1053.9104
 04  9 14 16  5 59.9970000  0  6G 1G11G14G23G20G25
 -10507644.03949  -8169424.64546  19825192.1884   19825189.1424
      1750.4564
  -6046875.03149  -4698000.33245  20519724.2674   20519720.8174
       176.7144
   6711141.40247   5219610.87942  22398929.4154   22398927.2354
     -1762.8434
  -6055069.80547  -4707427.03143  22462794.1104   22462789.5834
      3674.8304
 -14430045.10948 -11237840.39844  21262251.3604   21262247.5094
      3597.4264
  -9559926.41449  -7430503.13346  19815870.6264   19815867.3684
      1045.4024
 04  9 14 16  6 14.9970000  0  6G 1G11G14G23G20G25
 -10533831.75049  -8189830.64546  19820208.7354   19820205.9624
      1745.8474
  -6049399.02749  -4699967.09445  20519243.6264   20519240.1384
       168.2664
   6737590.46547   5240220.50442  22403963.3764   22403959.7354
     -1763.2714
  -6110156.87548  -4750352.00843  22452311.7284   22452306.9894
      3672.4714
 -14483973.31249 -11279862.35944  21251988.8844   21251985.3134
      3595.2144
  -9575479.16449  -7442622.15247  19812910.9544   19812907.9074
      1036.8504
 04  9 14 16  6 29.9970000  0  6G 1G11G14G23G20G25
 -10559950.60549  -8210183.00046  19815238.3684   19815235.3214
      1741.2574
  -6051796.54749  -4701835.28945  20518787.5324   20518784.1814
       159.8354
   6764045.69547   5260834.96142  22408997.4544   22408994.4194
     -1763.6824
  -6165208.72347  -4793249.53943  22441835.2204   22441830.9354
      3670.1234
 -14537868.25049 -11321858.42644  21241733.1884   21241729.0174
      3592.9964
  -9590903.75849  -7454641.31646  19809975.9154   19809972.7744
      1028.3064
 04  9 14 16  6 44.9970000  0  6G 1G11G14G23G20G25
 -10586000.73849  -8230481.80946  19810281.4544   19810278.1654
      1736.6764
  -6054067.88749  -4703605.17645  20518355.6814   20518352.0954
       151.4234
   6790506.79347   5281453.96942  22414032.8534   22414029.9234
     -1764.0734
  -6220225.32048  -4836119.59443  22431366.0404   22431361.3994
      3667.7734
 -14591729.74248 -11363828.41444  21231483.4234   21231479.8844
      3590.7664
  -9606200.32049  -7466560.70346  19807064.9384   19807062.0874
      1019.7714
 04  9 14 16  6 59.9970000  0  6G 1G11G14G23G20G25
 -10611981.63349  -8250726.65646  19805337.4154   19805334.0444
      1732.0604
  -6056212.53149  -4705276.35245  20517947.6574   20517943.8414
       142.9764
   6816974.28148   5302077.97742  22419069.4544   22419065.6424
     -1764.4994
  -6275206.05547  -4878961.70743  22420903.8064   22420899.1854
      3665.3824
 -14645556.98449 -11405771.72344  21221240.4384   21221237.2944
      3588.4834
  -9621368.31249  -7478379.91846  19804178.5174   19804175.1884
      1011.1994
 04  9 14 16  7 14.9970000  0  6G 1G11G14G23G20G25
 -10637893.78949  -8270917.95346  19800406.5324   19800403.1304
      1727.4774
  -6058231.12149  -4706849.28145  20517563.3764   20517559.8174
       134.5734
   6843447.63348   5322706.53542  22424106.2744   22424104.0524
     -1764.8904
  -6330151.34847  -4921776.21143  22410447.8214   22410442.8684
      3663.0204
 -14699350.26649 -11447688.57044  21211003.9784   21211000.3174
      3586.2194
  -9636408.27349  -7490099.35946  19801316.4854   19801313.2714
      1002.6644
 04  9 14 16  7 29.9970000  0  6G 1G11G14G23G20G25
 -10663736.44549  -8291055.07446  19795488.7824   19795485.6224
      1722.8444
  -6060122.95349  -4708323.44545  20517203.4544   20517199.6494
       126.1224
   6869927.61748   5343340.24242  22429146.2434   22429144.1184
     -1765.3324
  -6385060.44147  -4964562.48843  22399998.8134   22399993.8804
      3660.6064
 -14753108.67249 -11489578.23044  21200773.9704   21200770.5634
      3583.8944
  -9651319.55149  -7501718.53546  19798479.1184   19798475.9744
       994.0854
 04  9 14 16  7 44.9970000  0  6G 1G11G14G23G20G25
 -10689511.12949  -8311139.25446  19790583.6964   19790581.2004
      1718.3124
  -6061889.62549  -4709700.07845  20516867.2434   20516863.6034
       117.7784
   6896412.49648   5363977.79742  22434186.5634   22434183.8454
     -1765.6594
  -6439934.52348  -5007321.50043  22389556.9464   22389551.3964
      3658.2724
 -14806833.50449 -11531441.73044  21190550.9854   21190547.2944
      3581.6554
  -9666103.73449  -7513238.66846  19795665.5324   19795662.3334
       985.6124
 04  9 14 16  7 59.9970000  0  6G 1G11G14G23G20G25
 -10715216.47349  -8331169.39146  19785692.0244   19785689.3534
      1713.6904
  -6063529.84849  -4710978.19545  20516554.9784   20516551.3964
       109.3484
   6922903.61747   5384620.21542  22439226.9544   22439224.3104
     -1766.0754
  -6494772.22347  -5050052.14843  22379121.5094   22379116.7984
      3655.8474
 -14860522.93448 -11573277.65244  21180333.5484   21180330.6534
      3579.2954
  -9680759.25849  -7524658.54346  19792876.8924   19792873.5404
       977.0354
 04  9 14 16  8 14.9970000  0  6G 1G11G14G23G20G25
 -10740851.90649  -8351145.05146  19780814.0404   19780811.3884
      1709.0294
  -6065043.16049  -4712157.39845  20516267.0174   20516264.0674
       100.8884
   6949401.50047   5405267.90242  22444269.6184   22444266.8064
     -1766.5264
  -6549572.94947  -5092753.99643  22368693.3604   22368688.7084
      3653.3824
 -14914176.09848 -11615085.30544  21170123.9314   21170120.8804
      3576.8784
  -9695285.48049  -7535977.68446  19790112.4704   19790109.5524
       968.4154
 04  9 14 16  8 29.9970000  0  6G 1G11G14G23G20G25
 -10766417.65249  -8371066.40646  19775949.0484   19775946.5634
      1704.3834
  -6066429.88749  -4713237.98046  20516002.9544   20515999.6574
        92.4484
   6975905.91848   5425920.67243  22449312.9154   22449310.9354
     -1766.9614
  -6604336.66047  -5135426.99243  22358272.0564   22358266.9154
      3650.9144
 -14967792.95348 -11656864.67644  21159921.0794   21159917.9154
      3574.4574
  -9709682.85249  -7547196.41046  19787372.8214   19787369.5874
       959.8254
 04  9 14 16  8 44.9970000  0  6G 1G11G14G23G20G25
 -10791914.35549  -8390933.96946  19771097.1184   19771094.7004
      1699.7804
  -6067690.67249  -4714220.40645  20515763.2284   20515759.6494
        84.0524
   7002416.24248   5446578.03542  22454357.8994   22454354.8884
     -1767.3554
  -6659063.94547  -5178071.62143  22347857.6344   22347852.2864
      3648.4864
 -15021373.89848 -11698616.05544  21149724.9154   21149722.0324
      3572.0634
  -9723951.78949  -7558315.06647  19784657.4934   19784654.4074
       951.2634
 04  9 14 16  8 59.9970000  0  6G 1G11G14G23G20G25
 -10817343.64549  -8410748.99646  19766258.3064   19766255.5874
      1695.2864
  -6068827.14849  -4715105.98445  20515546.9074   20515543.4384
        75.7654
   7028930.68048   5467238.61342  22459403.6264   22459400.4584
     -1767.6294
  -6713756.34847  -5220689.05943  22337450.3534   22337445.3294
      3646.1604
 -15074920.31248 -11740340.52744  21139534.7594   21139531.5914
      3569.7614
  -9738094.13749  -7569335.07046  19781966.0174   19781963.0094
       942.8234
 04  9 14 16  9 14.9970000  0  6G 1G11G14G23G20G25
 -10842705.38349  -8430511.38347  19761432.4154   19761429.4664
      1690.7834
  -6069839.42249  -4715894.77745  20515353.8924   20515350.2314
        67.4854
   7055449.39148   5487902.51242  22464449.9154   22464446.7394
     -1767.9144
  -6768413.63747  -5263279.13343  22327048.7824   22327044.1654
      3643.8194
 -15128431.79348 -11782037.78944  21129351.8844   21129348.7744
      3567.4324
  -9752109.62149  -7580256.23047  19779299.5094   19779296.1264
       934.3664
 04  9 14 16  9 29.9970000  0  6G 1G11G14G23G20G25
 -10867998.98849  -8450220.68746  19756619.0094   19756616.2944
      1686.2404
  -6070726.96149  -4716586.37145  20515185.2824   20515181.8534
        59.1694
   7081972.97347   5508570.23842  22469496.8064   22469493.7824
     -1768.2394
  -6823034.93747  -5305841.17243  22316654.8764   22316650.2124
      3641.4204
 -15181907.41048 -11823707.08644  21119176.4544   21119172.7044
      3565.0414
  -9765997.60549  -7591078.03547  19776656.6574   19776653.6734
       925.8664
 04  9 14 16  9 44.9970000  0  6G 1G11G14G23G20G25
 -10893224.54349  -8469876.96546  19751818.5324   19751816.0524
      1681.7044
  -6071489.67649  -4717180.71145  20515040.1034   20515036.5134
        50.8484
   7108501.34848   5529241.66842  22474544.8064   22474540.6464
     -1768.5584
  -6877620.27747  -5348375.18743  22306267.9384   22306263.2204
      3639.0234
 -15235346.95348 -11865348.28544  21109007.1734   21109003.1964
      3562.6364
  -9779758.31649  -7601800.65646  19774037.9704   19774034.6774
       917.3814
 04  9 14 16  9 59.9970000  0  6G 1G11G14G23G20G25
 -10918382.53549  -8489480.59046  19747031.2354   19747028.5524
      1677.1994
  -6072128.18049  -4717678.25845  20514918.8534   20514915.1264
        42.5674
   7135033.86348   5549916.33242  22479594.3994   22479590.4744
     -1768.8344
  -6932170.16446  -5390881.59443  22295887.2594   22295882.5834
      3636.6594
 -15288750.59848 -11906961.51644  21098844.9074   21098840.7164
      3560.2434
  -9793392.33249  -7612424.56646  19771443.4544   19771440.5634
       908.9344
 04  9 14 16 10 14.9970000  0  6G 1G11G14G23G20G25
 -10943471.82449  -8509030.68446  19742257.0014   19742254.3294
      1672.6194
  -6072641.64149  -4718078.37545  20514821.0174   20514817.6034
        34.2314
   7161571.59047   5570595.07042  22484643.8134   22484640.9314
     -1769.1824
  -6986683.29347  -5433359.33643  22285513.7284   22285509.2124
      3634.2094
 -15342116.98448 -11948545.71944  21088689.6034   21088685.6884
      3557.7594
  -9806898.30949  -7622948.69546  19768873.3764   19768870.0754
       900.3984
 04  9 14 16 10 29.9970000  0  6G 1G11G14G23G20G25
 -10968492.77349  -8528527.51646  19737495.6104   19737492.8334
      1668.0634
  -6073030.33249  -4718381.25045  20514747.0564   20514743.0994
        25.9134
   7188114.25848   5591277.67742  22489695.3214   22489691.5284
     -1769.5114
  -7041159.84447  -5475808.58643  22275147.0874   22275142.3844
      3631.7704
 -15395446.13349 -11990100.89844  21078541.1264   21078537.3134
      3555.2774
  -9820276.60549  -7633373.34046  19766327.4624   19766324.5834
       891.8864
 04  9 14 16 10 44.9970000  0  6G 1G11G14G23G20G25
 -10993445.39549  -8547971.11746  19732746.8374   19732744.9504
      1663.5084
  -6073294.36749  -4718587.00845  20514696.7594   20514693.3334
        17.6024
   7214661.61348   5611963.85942  22494747.2984   22494743.7744
     -1769.8244
  -7095599.81247  -5518229.32043  22264787.6104   22264783.2714
      3629.3314
 -15448737.84849 -12031626.91844  21068400.5564   21068396.5214
      3552.7814
  -9833527.30549  -7643698.55546  19763805.9384   19763802.8764
       883.3804
 04  9 14 16 10 59.9970000  0  6G 1G11G14G23G20G25
 -11018329.61749  -8567361.41846  19728011.2434   19728009.2554
      1658.9484
  -6073433.73849  -4718695.61345  20514670.0874   20514666.6694
         9.2914
   7241214.03147   5632654.03942  22499798.8924   22499796.4624
     -1770.1614
  -7150002.78948  -5560621.25443  22254435.4154   22254430.6344
      3626.8654
 -15501991.60948 -12073123.34844  21058265.9784   21058262.5404
      3550.2514
  -9846650.19549  -7653924.18746  19761309.0954   19761305.8414
       874.8594
 04  9 14 16 11 14.9970000  0  6G 1G11G14G23G20G25
 -11043146.50449  -8586699.24246  19723289.0174   19723287.1494
      1654.4594
  -6073449.69149  -4718708.05145  20514667.5954   20514663.3534
         1.0644
   7267770.23447   5653347.13742  22504852.7354   22504850.5714
     -1770.4144
  -7204369.82047  -5602985.15643  22244090.0174   22244085.2044
      3624.4694
 -15555208.28549 -12114590.89544  21048139.5174   21048136.2784
      3547.7784
  -9859646.44149  -7664051.12546  19758835.9234   19758832.4354
       866.4164
 04  9 14 16 11 29.9970000  0  6G 1G11G14G23G20G25
 -11067895.46949  -8605984.14546  19718579.5794   19718577.2434
      1649.9314
  -6073341.73049  -4718623.93445  20514687.8064   20514684.4154
        -7.1974
   7294330.68447   5674043.56642  22509906.8924   22509905.1184
     -1770.6974
  -7258700.35247  -5645320.61343  22233750.6734   22233745.9504
      3622.0354
 -15608387.01249 -12156028.86344  21038019.9544   21038016.5244
      3545.2484
  -9872515.47349  -7674078.93746  19756386.9854   19756383.4814
       857.9354
 04  9 14 16 11 44.9970000  0  6G 1G11G14G23G20G25
 -11092576.09449  -8625215.80146  19713882.8534   19713880.4974
      1645.3754
  -6073109.40649  -4718442.91445  20514732.2284   20514728.8254
       -15.4884
   7320895.77348   5694743.60542  22514963.0794   22514959.3724
     -1771.0064
  -7312993.73448  -5687627.12143  22223419.6034   22223414.0834
      3619.5594
 -15661527.03548 -12197436.68444  21027907.6344   21027904.5094
      3542.6684
  -9885256.84049  -7684007.27346  19753962.0874   19753959.2784
       849.4244
 04  9 14 16 11 59.9970000  0  6G 1G11G14G23G20G25
 -11117188.64149  -8644394.40646  19709199.5404   19709196.7944
      1640.8364
  -6072753.13749  -4718165.30945  20514799.6424   20514796.0364
       -23.7514
   7347465.18048   5715447.03542  22520018.9314   22520015.6344
     -1771.2944
  -7367250.22747  -5729904.89143  22213094.1344   22213089.6614
      3617.0994
 -15714628.34448 -12238814.31644  21017802.8534   21017799.4424
      3540.0874
  -9897870.84849  -7693836.36346  19751561.8994   19751558.7634
       840.9344
 04  9 14 16 12 14.9970000  0  6G 1G11G14G23G20G25
 -11141733.45749  -8663520.24646  19704528.8214   19704525.7824
      1636.3214
  -6072273.31649  -4717791.43045  20514891.0174   20514887.5404
       -31.9884
   7374038.75848   5736153.69542  22525075.2354   22525071.9664
     -1771.5724
  -7421469.90647  -5772153.97743  22202776.6184   22202771.8374
      3614.6454
 -15767691.07848 -12280161.88745  21007705.2984   21007701.7634
      3537.5164
  -9910357.91449  -7703566.53547  19749185.4784   19749182.3644
       832.4714
 04  9 14 16 12 29.9970000  0  6G 1G11G14G23G20G25
 -11166210.14549  -8682592.98446  19699870.9464   19699868.0834
      1631.7794
  -6071669.65649  -4717321.06245  20515005.8214   20515002.5094
       -40.2444
   7400616.60947   5756863.70342  22530132.8684   22530130.1884
     -1771.8574
  -7475652.26247  -5814373.97343  22192466.4624   22192461.3844
      3612.1574
 -15820714.53148 -12321478.85244  20997615.1734   20997611.6884
      3534.8974
  -9922717.64149  -7713197.49247  19746833.6734   19746830.9504
       823.9824
 04  9 14 16 12 44.9970000  0  6G 1G11G14G23G20G25
 -11190619.62949  -8701613.36346  19695226.1574   19695223.3414
      1627.2994
  -6070943.27049  -4716755.04745  20515143.9314   20515140.4274
       -48.4264
   7427197.94947   5777576.38742  22535191.5324   22535188.4464
     -1772.0894
  -7529798.19147  -5856565.60243  22182162.2594   22182157.5754
      3609.7294
 -15873699.35948 -12362765.71944  20987532.4464   20987529.5994
      3532.3224
  -9934951.00849  -7722729.98846  19744505.6964   19744502.7124
       815.5584
 04  9 14 16 12 59.9970000  0  6G 1G11G14G23G20G25
 -11214962.23049  -8720581.62546  19690593.7984   19690590.8024
      1622.8404
  -6070094.49649  -4716093.67645  20515305.6734   20515302.3564
       -56.5854
   7453782.30147   5798291.45342  22540249.9624   22540247.3064
     -1772.2904
  -7583907.91047  -5898728.99643  22171865.9464   22171860.6884
      3607.3154
 -15926645.54748 -12404022.48044  20977456.7744   20977453.7314
      3529.7464
  -9947058.33649  -7732164.26246  19742201.6424   19742198.8924
       807.1554
 04  9 14 16 13 14.9970000  0  6G 1G11G14G23G20G25
 -11239237.37149  -8739497.31246  19685974.6104   19685971.4154
      1618.3434
  -6069122.84049  -4715336.55145  20515490.3764   20515487.0364
       -64.7774
   7480370.23447   5819009.29742  22545308.7514   22545306.6034
     -1772.5294
  -7637980.70347  -5940863.62943  22161576.2284   22161571.0834
      3604.8534
 -15979552.20748 -12445248.45344  20967389.3534   20967385.6184
      3527.1114
  -9959038.91849  -7741499.77746  19739921.5564   19739919.0244
       798.7054
 04  9 14 16 13 29.9970000  0  6G 1G11G14G23G20G25
 -11263446.12949  -8758361.28946  19681367.8844   19681364.9114
      1613.9174
  -6068029.46149  -4714484.57445  20515698.8924   20515695.1034
       -72.8924
   7506960.56348   5839728.99242  22550370.6184   22550366.1424
     -1772.6894
  -7692017.52047  -5982970.22343  22151293.3374   22151287.9894
      3602.4544
 -16032420.23848 -12486444.31244  20957328.9544   20957325.1464
      3524.5354
  -9970893.91449  -7750737.43746  19737665.9154   19737662.7674
       790.3334
 04  9 14 16 13 44.9970000  0  6G 1G11G14G23G20G25
 -11287588.39549  -8777173.44546  19676773.6344   19676771.1184
      1609.4844
  -6066814.41449  -4713537.79345  20515929.9234   20515926.7864
       -81.0034
   7533553.54748   5860450.80542  22555429.8924   22555427.1884
     -1772.8664
  -7746018.20346  -6025048.66843  22141016.6034   22141012.3374
      3600.0464
 -16085249.12148 -12527609.68044  20947275.9934   20947272.3644
      3521.9264
  -9982623.33649  -7759877.24246  19735433.8534   19735430.5954
       781.9614
 04  9 14 16 13 59.9970000  0  6G 1G11G14G23G20G25
 -11311664.34849  -8795933.92246  19672192.0404   19672189.5174
      1605.0644
  -6065477.86349  -4712496.33645  20516184.3064   20516180.7554
       -89.1034
   7560149.03947   5881174.51242  22560490.8764   22560489.2164
     -1773.0334
  -7799982.61347  -6067098.84043  22130748.0014   22130742.6034
      3597.6274
 -16138038.57849 -12568744.31244  20937230.7124   20937226.5834
      3519.2974
  -9994227.25449  -7768919.25446  19733225.8684   19733222.7474
       773.5954
 04  9 14 16 14 14.9970000  0  6G 1G11G14G23G20G25
 -11335674.07849  -8814642.80146  19667622.8604   19667620.5914
      1600.6494
  -6064019.77049  -4711360.16845  20516461.8214   20516458.0094
       -97.2064
   7586746.76647   5901899.96542  22565552.8374   22565550.2744
     -1773.1824
  -7853910.83647  -6109120.81243  22120485.5244   22120480.3494
      3595.2154
 -16190788.59849 -12609848.23444  20927192.5714   20927188.4274
      3516.6684
 -10005705.91049  -7777863.66846  19731041.4154   19731038.4464
       765.2444
 04  9 14 16 14 29.9970000  0  6G 1G11G14G23G20G25
 -11359618.16849  -8833300.53546  19663066.8924   19663064.1424
      1596.2734
  -6062441.15249  -4710130.08645  20516762.0874   20516758.5214
      -105.2414
   7613346.06347   5922626.68842  22570613.6344   22570612.5674
     -1773.2864
  -7907803.37147  -6151114.97743  22110230.4544   22110225.1774
      3592.8364
 -16243499.52049 -12650921.68444  20917162.1424   20917158.0794
      3514.0614
 -10017059.91449  -7786710.93046  19728881.0244   19728877.8024
       756.9344
 04  9 14 16 14 44.9970000  0  6G 1G11G14G23G20G25
 -11383496.15649  -8851906.75446  19658522.6884   19658520.6184
      1591.8664
  -6060741.60249  -4708805.76645  20517085.4704   20517081.9894
      -113.3034
   7639947.49248   5943355.06642  22575677.1184   22575673.5714
     -1773.4294
  -7961659.61747  -6193080.84843  22099981.6814   22099976.6574
      3590.4164
 -16296170.46949 -12691963.97744  20907138.7674   20907135.3804
      3511.3974
 -10028288.60949  -7795460.56246  19726743.9854   19726740.7204
       748.5804
 04  9 14 16 14 59.9970000  0  6G 1G11G14G23G20G25
 -11407309.26249  -8870462.42646  19653991.1884   19653988.8564
      1587.5404
  -6058922.46549  -4707388.27345  20517431.9934   20517428.4314
      -121.2764
   7666549.71547   5964084.07042  22580738.2284   22580735.0174
     -1773.4824
  -8015480.63347  -6235019.28543  22089740.0634   22089734.8764
      3588.0684
 -16348802.44148 -12732975.89844  20897123.6884   20897120.1884
      3508.7984
 -10039393.28149  -7804113.54746  19724630.8454   19724627.9544
       740.3114
 04  9 14 16 15 14.9970000  0  6G 1G11G14G23G20G25
 -11431055.81649  -8888966.23046  19649472.7434   19649470.1344
      1583.1044
  -6056982.11749  -4705876.31645  20517801.1734   20517797.7124
      -129.3574
   7693154.40247   5984814.94942  22585800.7984   22585797.8334
     -1773.6464
  -8069264.68047  -6276928.91043  22079504.9314   22079499.7674
      3585.6034
 -16401393.41848 -12773955.87544  20887115.4784   20887112.3254
      3506.0654
 -10050372.33249  -7812668.65246  19722541.5404   19722538.8724
       731.9374
 04  9 14 16 15 29.9970000  0  6G 1G11G14G23G20G25
 -11454737.55549  -8907419.53146  19644965.9624   19644963.5834
      1578.7834
  -6054922.33649  -4704271.30545  20518193.1264   20518189.4464
      -137.3194
   7719759.84447   6005546.46142  22590864.0794   22590861.4584
     -1773.6964
  -8123013.35547  -6318810.95343  22069277.3454   22069271.9544
      3583.2454
 -16453944.80148 -12814905.00845  20877115.7204   20877112.2714
      3503.4264
 -10061227.61349  -7821127.32047  19720476.4074   19720473.2554
       723.6854
 04  9 14 16 15 44.9970000  0  6G 1G11G14G23G20G25
 -11478354.24649  -8925822.14846  19640471.6574   19640469.2944
      1574.4464
  -6052743.07449  -4702573.18745  20518608.1184   20518604.6224
      -145.2844
   7746366.30947   6026278.71942  22595927.2514   22595924.6774
     -1773.7644
  -8176726.41847  -6360665.27043  22059055.9074   22059050.6574
      3580.8714
 -16506456.14549 -12855822.91845  20867123.0634   20867120.0214
      3500.7564
 -10071958.78549  -7829489.26246  19718434.1574   19718431.0484
       715.4114
 04  9 14 16 15 59.9970000  0  6G 1G11G14G23G20G25
 -11501906.50049  -8944174.54346  19635990.0954   19635987.4464
      1570.1504
  -6050445.08649  -4700782.55945  20519045.3214   20519041.7984
      -153.1994
   7772972.91047   6047011.12542  22600990.1964   22600987.6064
     -1773.7734
  -8230404.43047  -6402492.27043  22048841.5404   22048836.1574
      3578.5344
 -16558927.77349 -12896709.89544  20857138.0244   20857134.6774
      3498.1094
 -10082566.67249  -7837755.14847  19716415.3994   19716412.1464
       707.1924
 04  9 14 16 16 14.9970000  0  6G 1G11G14G23G20G25
 -11525393.93049  -8962476.44546  19631520.7284   19631518.0714
      1565.8294
  -6048028.01649  -4698899.13345  20519505.1654   20519501.5994
      -161.1384
   7799580.20347   6067744.04342  22606053.4704   22606050.5754
     -1773.8204
  -8284046.75447  -6444291.46943  22038633.7824   22038628.2354
      3576.1554
 -16611358.93048 -12937565.33245  20847160.8214   20847157.5754
      3495.4104
 -10093050.79349  -7845924.59047  19714420.4314   19714417.0994
       698.9414
 04  9 14 16 16 29.9970000  0  6G 1G11G14G23G20G25
 -11548816.71149  -8980727.96946  19627063.6344   19627060.5874
      1561.5194
  -6045492.18749  -4696923.17245  20519987.5324   20519984.4544
      -169.0554
   7826187.78547   6088477.21542  22611116.1654   22611112.1034
     -1773.8394
  -8337653.49247  -6486062.93043  22028432.8134   22028427.3414
      3573.7834
 -16663749.58248 -12978389.20345  20837190.9624   20837187.8454
      3492.7104
 -10103411.47749  -7853997.84446  19712448.8134   19712445.9154
       690.7124
 04  9 14 16 16 44.9970000  0  6G 1G11G14G23G20G25
 -11572174.19149  -8998928.60246  19622618.6344   19622616.0284
      1557.1654
  -6042837.13349  -4694854.30945  20520493.2044   20520489.4544
      -177.0044
   7852796.44148   6109211.20342  22616180.3534   22616175.4234
     -1773.9104
  -8391223.93047  -6527806.10543  22018239.1344   22018232.9584
      3571.3634
 -16716098.84448 -13019180.82445  20827229.1814   20827226.2714
      3489.9514
 -10113647.97349  -7861974.32847  19710500.9154   19710497.6884
       682.4334
 04  9 14 16 16 59.9970000  0  6G 1G11G14G23G20G25
 -11595468.03949  -9017079.65246  19618185.9704   19618182.7674
      1552.9234
  -6040064.45749  -4692693.78945  20521020.2044   20521016.7674
      -184.8454
   7879404.54747   6129944.77742  22621242.9544   22621239.4384
     -1773.8744
  -8444759.49647  -6569522.10543  22008050.7044   22008045.7284
      3569.0384
 -16768407.97349 -13059941.18045  20817275.4624   20817271.9854
      3487.2754
 -10123761.89549  -7869855.30547  19708576.3214   19708573.2284
       674.2614
 04  9 14 16 17 14.9970000  0  6G 1G11G14G23G20G25
 -11618697.60948  -9035180.61346  19613765.3844   19613762.4814
      1548.6384
  -6037173.79749  -4690441.34045  20521570.6884   20521567.4354
      -192.7114
   7906012.66047   6150678.34842  22626306.8994   22626304.2944
     -1773.8744
  -8498259.36747  -6611210.30943  21997870.3294   21997865.0014
      3566.6584
 -16820675.93448 -13100669.44945  20807328.8924   20807325.5524
      3484.5314
 -10133752.61749  -7877640.27347  19706674.9234   19706671.9854
       666.0484
 04  9 14 16 17 29.9970000  0  6G 1G11G14G23G20G25
 -11641862.52048  -9053231.18446  19609357.2434   19609354.4274
      1544.3274
  -6034164.66849  -4688096.56645  20522142.8994   20522139.3294
      -200.6094
   7932621.13748   6171412.17642  22631370.8064   22631367.5604
     -1773.8984
  -8551723.07047  -6652870.32043  21987696.3604   21987691.3374
      3564.2474
 -16872902.05148 -13141365.12545  20797390.7744   20797387.0324
      3481.7414
 -10143619.79749  -7885328.98047  19704797.5634   19704794.3804
       657.8124
 04  9 14 16 17 44.9970000  0  6G 1G11G14G23G20G25
 -11664963.13749  -9071231.67246  19604961.3764   19604958.5284
      1540.0414
  -6031037.58649  -4685659.88745  20522738.3374   20522734.6224
      -208.4724
   7959229.62547   6192146.04742  22636433.9384   22636430.6384
     -1773.8994
  -8605150.92648  -6694502.39843  21977529.6034   21977524.1614
      3561.8574
 -16925086.52748 -13182028.35245  20787460.4704   20787456.5094
      3478.9654
 -10153364.10249  -7892921.94147  19702943.2434   19702939.7984
       649.6204
 04  9 14 16 17 59.9970000  0  6G 1G11G14G23G20G25
 -11687999.56649  -9089182.12546  19600577.4704   19600574.5954
      1535.7624
  -6027792.83649  -4683131.52345  20523355.4784   20523351.8844
      -216.3174
   7985838.00448   6212879.80142  22641497.5094   22641494.4664
     -1773.8924
  -8658542.93747  -6736106.55543  21967369.1184   21967364.0324
      3559.4674
 -16977229.05949 -13222658.89545  20777538.3214   20777534.0564
      3476.1694
 -10162985.51649  -7900419.14547  19701112.2044   19701108.8564
       641.4284
 04  9 14 16 18 14.9970000  0  6G 1G11G14G23G20G25
 -11710971.66849  -9107082.46946  19596206.3924   19596203.0834
      1531.4734
  -6024430.53149  -4680511.55545  20523995.3374   20523992.0754
      -224.1544
   8012446.27747   6233613.49642  22646559.5794   22646557.8604
     -1773.8854
  -8711899.05547  -6777682.74243  21957216.3374   21957210.5794
      3557.0744
 -17029329.41048 -13263256.56244  20767623.8214   20767619.7864
      3473.3574
 -10172484.09049  -7907820.63347  19699304.9464   19699301.7824
       633.2384
 04  9 14 16 18 29.9970000  0  6G 1G11G14G23G20G25
 -11733880.10249  -9124933.19546  19591847.0484   19591843.9704
      1527.2294
  -6020951.11749  -4677800.33245  20524657.3374   20524654.1734
      -231.9614
   8039053.71147   6254346.52742  22651623.7744   22651621.7244
     -1773.8294
  -8765219.60547  -6819231.22343  21947069.5714   21947064.1964
      3554.7034
 -17081387.82848 -13303821.56244  20757717.1884   20757713.3724
      3470.5614
 -10181860.53549  -7915126.95346  19697520.3844   19697517.1654
       625.0964
 04  9 14 16 18 44.9970000  0  6G 1G11G14G23G20G25
 -11756724.51648  -9142734.04746  19587499.9784   19587496.8844
      1522.9614
  -6017354.53149  -4674997.80145  20525342.0794   20525338.2744
      -239.7724
   8065660.81347   6275079.27342  22656687.3764   22656685.1424
     -1773.8074
  -8818504.14547  -6860751.62543  21936929.8844   21936924.3494
      3552.3034
 -17133403.57448 -13344353.30945  20747818.6884   20747814.9544
      3467.7164
 -10191114.37549  -7922337.73446  19695759.6814   19695756.4854
       616.9234
 04  9 14 16 18 59.9970000  0  6G 1G11G14G23G20G25
 -11779506.31249  -9160486.08646  19583164.7904   19583161.4744
      1518.7864
  -6013642.36349  -4672105.20745  20526048.1344   20526044.5054
      -247.4784
   8092266.12547   6295810.66842  22661750.4384   22661747.1924
     -1773.6874
  -8871753.86747  -6902244.91443  21926796.5564   21926791.1264
      3549.9824
 -17185377.63748 -13384852.56245  20737928.4154   20737924.8024
      3464.9384
 -10200246.89849  -7929453.98446  19694021.7284   19694018.7594
       608.8354
 04  9 14 16 19 14.9970000  0  6G 1G11G14G23G20G25
 -11802223.82049  -9178188.04746  19578841.7744   19578838.9074
      1514.5014
  -6009813.07849  -4669121.36345  20526777.2904   20526773.9384
      -255.2864
   8118871.20348   6316541.91042  22666813.6034   22666810.0914
     -1773.6724
  -8924967.12147  -6943709.78143  21916670.5874   21916665.2824
      3547.5504
 -17237308.17648 -13425317.91044  20728046.4464   20728042.5094
      3462.0364
 -10209256.60949  -7936474.52746  19692307.1184   19692304.0404
       600.6474
 04  9 14 16 19 29.9970000  0  6G 1G11G14G23G20G25
 -11824877.55149  -9195840.29346  19574530.6734   19574527.8294
      1510.2494
  -6005867.40249  -4666046.81245  20527528.0794   20527524.3064
      -263.0454
   8145475.56347   6337272.58642  22671874.9784   22671873.1224
     -1773.6244
  -8978144.30547  -6985146.53943  21906551.2674   21906545.8294
      3545.1464
 -17289195.46148 -13465749.55144  20718172.4384   20718168.8214
      3459.1524
 -10218144.08249  -7943399.83646  19690615.7514   19690612.7904
       592.4984
 04  9 14 16 19 44.9970000  0  6G 1G11G14G23G20G25
 -11847468.66049  -9213443.75846  19570232.0244   19570229.2084
      1506.0744
  -6001806.41849  -4662882.41845  20528300.8684   20528296.9154
      -270.7324
   8172078.08646   6358001.75442  22676936.6494   22676936.2204
     -1773.5024
  -9031286.43747  -7026555.97743  21896438.3994   21896432.9744
      3542.8094
 -17341040.37548 -13506148.18445  20708306.6264   20708302.9504
      3456.3284
 -10226910.54749  -7950230.84446  19688947.2514   19688944.4704
       584.4314
 04  9 14 16 19 59.9970000  0  6G 1G11G14G23G20G25
 -11869996.95749  -9230998.27746  19565944.7284   19565941.7084
      1501.8864
  -5997630.08649  -4659628.13745  20529095.7904   20529091.8494
      -278.4224
   8198678.80947   6378729.57442  22681999.4624   22681998.1424
     -1773.3824
  -9084393.15647  -7067937.83643  21886332.4384   21886327.4034
      3540.4484
 -17392842.34048 -13546513.33645  20698449.1814   20698445.3374
      3453.4644
 -10235555.93049  -7956967.50046  19687302.3064   19687299.7394
       576.3594
 04  9 14 16 20 14.9970000  0  6G 1G11G14G23G20G25
 -11892461.57848  -9248503.17646  19561670.0874   19561666.7284
      1497.6414
  -5993337.75849  -4656283.48445  20529912.5874   20529909.0994
      -286.1554
   8225278.70747   6399456.75042  22687061.3534   22687059.8494
     -1773.3274
  -9137463.59047  -7109291.39843  21876233.2594   21876228.0244
      3538.0294
 -17444600.16448 -13586844.10245  20688600.2124   20688596.3994
      3450.5224
 -10244079.36349  -7963609.14146  19685680.4464   19685677.7044
       568.2294
 04  9 14 16 20 29.9970000  0  6G 1G11G14G23G20G25
 -11914862.25049  -9265958.23446  19557407.1734   19557404.5014
      1493.3784
  -5988929.15249  -4652848.20745  20530751.6344   20530747.4814
      -293.9074
   8251878.06647   6420183.50042  22692123.5174   22692120.8374
     -1773.2914
  -9190497.31246  -7150616.36744  21866141.5564   21866136.3684
      3535.5824
 -17496313.43048 -13627140.14545  20678759.1814   20678755.3174
      3447.5514
 -10252480.56649  -7970155.53146  19684081.8844   19684078.5324
       560.0804
 04  9 14 16 20 44.9970000  0  6G 1G11G14G23G20G25
 -11937198.14548  -9283362.82846  19553156.8924   19553154.0524
      1489.0604
  -5984403.57449  -4649321.79345  20531612.4074   20531608.8564
      -301.7054
   8278477.73447   6440910.50042  22697184.7354   22697182.1464
     -1773.3114
  -9243493.34847  -7191911.96543  21856056.8134   21856051.4504
      3533.0694
 -17547980.80548 -13667400.43045  20668927.1184   20668923.9274
      3444.4924
 -10260758.72348  -7976606.03946  19682506.2204   19682503.1694
       551.8774
 04  9 14 16 20 59.9970000  0  6G 1G11G14G23G20G25
 -11959469.69548  -9300717.27346  19548918.8064   19548915.8604
      1484.7704
  -5979761.61749  -4645704.69945  20532495.7514   20532492.6654
      -309.4644
   8305077.19147   6461637.32442  22702246.1494   22702243.3414
     -1773.2974
  -9296451.88347  -7233178.34443  21845979.0634   21845973.6384
      3530.5694
 -17599602.42248 -13707625.06245  20659104.4784   20659100.7084
      3441.4414
 -10268914.31649  -7982961.04346  19680954.6964   19680951.4234
       543.7064
 04  9 14 16 21 14.9970000  0  6G 1G11G14G23G20G25
 -11981677.26648  -9318021.87146  19544692.8214   19544689.8414
      1480.5054
  -5975003.83649  -4641997.34445  20533401.3604   20533397.6144
      -317.1854
   8331676.05147   6482363.69942  22707308.4154   22707305.4274
     -1773.2574
  -9349373.32846  -7274415.80943  21835908.6494   21835902.9424
      3528.0964
 -17651178.32048 -13747814.05945  20649289.5174   20649285.6814
      3438.3934
 -10276947.71149  -7989220.82446  19679425.9934   19679422.7124
       535.5604
 04  9 14 16 21 29.9970000  0  6G 1G11G14G23G20G25
 -12003820.68748  -9335276.48846  19540478.9544   19540476.1344
      1476.2284
  -5970130.04749  -4638199.59845  20534329.0094   20534325.6884
      -324.9194
   8358274.47747   6503089.76242  22712369.5714   22712366.8064
     -1773.2284
  -9402257.42246  -7315624.18043  21825844.7904   21825839.4114
      3525.6064
 -17702708.08248 -13787967.11745  20639483.6264   20639480.1494
      3435.3174
 -10284858.76249  -7995385.28146  19677920.4464   19677917.4464
       527.4034
 04  9 14 16 21 44.9970000  0  6G 1G11G14G23G20G25
 -12025899.75448  -9352480.96546  19536277.2904   19536274.6384
      1471.9384
  -5965140.36749  -4634311.54345  20535278.2824   20535274.8884
      -332.6454
   8384872.71147   6523815.57442  22717432.0244   22717428.7714
     -1773.2164
  -9455103.87546  -7356803.21543  21815788.7824   21815783.5954
      3523.0974
 -17754191.33248 -13828083.92245  20629686.6034   20629683.2284
      3432.2174
 -10292647.41449  -8001454.36746  19676438.2044   19676435.0524
       519.2434
 04  9 14 16 21 59.9970000  0  6G 1G11G14G23G20G25
 -12047915.23048  -9369635.87146  19532088.0244   19532085.0834
      1467.6984
  -5960035.46149  -4630333.69945  20536249.6104   20536246.0014
      -340.3274
   8411470.04347   6544540.74242  22722492.7284   22722489.6184
     -1773.1554
  -9507913.19147  -7397953.30143  21805739.0014   21805734.0094
      3520.6214
 -17805628.35548 -13868164.71545  20619898.2984   20619894.7784
      3429.1354
 -10300314.55549  -8007428.75446  19674979.4384   19674975.9624
       511.1434
 04  9 14 16 22 14.9970000  0  6G 1G11G14G23G20G25
 -12069867.85248  -9386741.80546  19527910.7594   19527907.8564
      1463.5084
  -5954816.26249  -4626266.79345  20537243.0324   20537239.3414
      -347.9474
   8438065.57847   6565264.50442  22727554.3684   22727550.6694
     -1773.0364
  -9560686.09847  -7439075.02343  21795696.8064   21795691.5914
      3518.1944
 -17857019.59048 -13908209.82045  20610119.1104   20610115.7944
      3426.0824
 -10307860.83248  -8013308.96546  19673543.2284   19673540.0484
       503.0854
 04  9 14 16 22 29.9970000  0  6G 1G11G14G23G20G25
 -12091756.80949  -9403798.13346  19523745.4074   19523742.3884
      1459.2644
  -5949482.19149  -4622110.39145  20538258.1814   20538254.3064
      -355.6054
   8464660.17247   6585987.54742  22732615.0954   22732610.7554
     -1772.9734
  -9613421.66447  -7480167.65243  21785661.5174   21785656.1884
      3515.7044
 -17908363.85548 -13948218.33645  20600348.4784   20600344.5364
      3422.9514
 -10315285.56249  -8019094.46546  19672130.3764   19672127.5324
       494.9824
 04  9 14 16 22 44.9960000  0  6G 1G11G14G23G20G25
 -12113581.26248  -9420804.19546  19519592.3094   19519589.4304
      1454.9644
  -5944034.30949  -4617865.28145  20539294.2464   20539291.2274
      -363.1924
   8491251.34047   6606707.92642  22737674.5354   22737672.2274
     -1772.7454
  -9666116.87147  -7521228.82444  21775633.8794   21775628.7854
      3513.0144
 -17959658.09448 -13988187.85545  20590587.6134   20590583.8524
      3419.6164
 -10322588.96548  -8024785.43047  19670740.4494   19670737.5554
       486.8934
 04  9 14 16 22 59.9960000  0  6G 1G11G14G23G20G25
 -12135344.50848  -9437762.56646  19515450.8244   19515447.8444
      1450.8834
  -5938472.50449  -4613531.42245  20540352.7154   20540349.5984
      -370.7874
   8517842.29347   6627428.10242  22742734.9184   22742732.2464
     -1772.7304
  -9718779.01647  -7562264.23843  21765612.9964   21765607.5634
      3510.8104
 -18010909.31248 -14028123.87145  20580835.2234   20580830.7894
      3416.7484
 -10329772.51248  -8030382.99647  19669373.8164   19669370.5084
       478.9034
 04  9 14 16 23 14.9960000  0  6G 1G11G14G23G20G25
 -12157045.08249  -9454672.09846  19511321.6064   19511318.5744
      1446.7054
  -5932797.07049  -4609109.01645  20541432.9414   20541429.3054
      -378.3624
   8544431.30947   6648146.79742  22747794.9024   22747792.6564
     -1772.6014
  -9771404.37547  -7603270.97743  21755598.2464   21755593.2234
      3508.3574
 -18062113.55548 -14068023.28145  20571091.0984   20571087.0704
      3413.6164
 -10336835.46948  -8035886.60246  19668029.4344   19668026.4494
       470.8644
 04  9 14 16 23 29.9960000  0  6G 1G11G14G23G20G25
 -12178682.57848  -9471532.48446  19507204.0044   19507201.1094
      1442.5004
  -5927007.83649  -4604597.93045  20542534.4814   20542531.5164
      -385.9494
   8571018.75447   6668864.25842  22752854.2314   22752851.1954
     -1772.4964
  -9823992.55547  -7644248.78144  21745591.5744   21745586.0084
      3505.8794
 -18113270.21948 -14107885.60945  20561356.2934   20561352.1994
      3410.4444
 -10343777.74649  -8041296.15646  19666708.4964   19666705.2114
       462.8184
 04  9 14 16 23 44.9960000  0  6G 1G11G14G23G20G25
 -12200257.50448  -9488344.10946  19503098.2774   19503095.5474
      1438.3284
  -5921105.44949  -4599998.68745  20543657.7384   20543654.6914
      -393.4924
   8597604.03147   6689580.01642  22757913.7544   22757910.8164
     -1772.3524
  -9876543.92247  -7685197.87143  21735591.5354   21735585.7814
      3503.4244
 -18164379.52748 -14147711.04345  20551630.9104   20551626.7544
      3407.2874
 -10350599.75049  -8046612.01646  19665410.2234   19665407.1764
       454.8004
 04  9 14 16 23 59.9960000  0  6G 1G11G14G23G20G25
 -12221769.07049  -9505106.36746  19499004.6764   19499002.2194
      1434.1044
  -5915089.24249  -4595310.73445  20544802.3564   20544799.4264
      -401.0804
   8624188.02347   6710294.78542  22762972.3094   22762969.3754
     -1772.2664
  -9929057.60247  -7726117.60544  21725597.6604   21725592.6024
      3500.9124
 -18215440.44948 -14187498.78545  20541914.3634   20541909.7894
      3404.0614
 -10357300.88749  -8051833.67246  19664135.2624   19664132.0004
       446.7424
 04  9 14 16 24 14.9960000  0  6G 1G11G14G23G20G25
 -12243217.50849  -9521819.43446  19494923.1454   19494920.5274
      1429.8964
  -5908959.55549  -4590534.37145  20545969.0354   20545965.6804
      -408.6464
   8650770.56347   6731008.43042  22768030.9654   22768027.9264
     -1772.1694
  -9981533.69947  -7767008.05944  21715612.0664   21715607.2424
      3498.4074
 -18266452.82048 -14227248.67645  20532207.0434   20532203.0354
      3400.8254
 -10363881.37549  -8056961.32846  19662882.9414   19662879.6954
       438.6994
 04  9 14 16 24 29.9960000  0  6G 1G11G14G23G20G25
 -12264603.66849  -9538483.96946  19490853.5044   19490850.8524
      1425.7444
  -5902717.43449  -4585670.38745  20547156.8404   20547153.6994
      -416.1414
   8677350.73447   6751720.18842  22773088.0514   22773086.1684
     -1772.0114
 -10033972.83647  -7807869.70344  21705633.3484   21705628.0984
      3495.9424
 -18317417.18748 -14266961.16045  20522508.3094   20522504.8794
      3397.6244
 -10370342.15649  -8061995.69546  19661653.3484   19661650.4654
       430.7194
 04  9 14 16 24 44.9960000  0  6G 1G11G14G23G20G25
 -12285927.54749  -9555099.97346  19486795.8484   19486793.2034
      1421.5924
  -5896363.12549  -4580718.99245  20548366.0204   20548362.2314
      -423.6214
   8703928.50447   6772430.14542  22778145.9184   22778143.2734
     -1771.8514
 -10086374.97748  -7848702.52344  21695661.7314   21695655.9344
      3493.4764
 -18368333.26648 -14306636.03145  20512819.8094   20512815.8324
      3394.4054
 -10376683.45749  -8066936.96946  19660446.7774   19660443.3054
       422.7534
 04  9 14 16 24 59.9960000  0  6G 1G11G14G23G20G25
 -12307188.34449  -9571666.82046  19482749.7544   19482747.1884
      1417.3864
  -5889895.95749  -4575679.63745  20549596.8404   20549592.9454
      -431.1454
   8730504.54347   6793138.71942  22783204.2234   22783199.8484
     -1771.7364
 -10138739.24248  -7889505.84044  21685697.1994   21685691.4144
      3490.9514
 -18419200.00448 -14346272.44545  20503139.8094   20503135.9184
      3391.1164
 -10382904.51649  -8071784.54346  19659263.0434   19659259.7344
       414.7374
 04  9 14 16 25 14.9960000  0  6G 1G11G14G23G20G25
 -12328385.98448  -9588184.46946  19478716.5594   19478713.2504
      1413.1764
  -5883315.77749  -4570552.23445  20550849.0274   20550845.3244
      -438.6794
   8757079.01647   6813846.10542  22788260.1604   22788256.5004
     -1771.6324
 -10191065.42647  -7930279.47344  21675739.3164   21675734.2034
      3488.4124
 -18470016.90648 -14385870.01645  20493469.7854   20493466.2624
      3387.7934
 -10389005.12149  -8076538.26646  19658102.0354   19658098.6994
       406.7074
 04  9 14 16 25 29.9960000  0  6G 1G11G14G23G20G25
 -12349521.27049  -9604653.51646  19474694.3714   19474691.5784
      1409.0194
  -5876623.75449  -4565337.67245  20552122.5204   20552118.8754
      -446.1354
   8783651.11347   6834551.59442  22793316.8244   22793314.2274
     -1771.4734
 -10243354.17248  -7971023.93743  21665789.4734   21665783.6764
      3485.9164
 -18520784.51648 -14425429.18045  20483808.9104   20483805.1764
      3384.5074
 -10394986.32849  -8081198.94146  19656963.6374   19656960.3834
       398.7474
 04  9 14 16 25 44.9960000  0  6G 1G11G14G23G20G25
 -12370594.01249  -9621073.83646  19470684.4264   19470681.6174
      1404.8494
  -5869819.70749  -4560035.82445  20553417.1294   20553413.3524
      -453.6034
   8810220.97347   6855255.37142  22798372.4024   22798369.4264
     -1771.3244
 -10295605.28948  -8011739.08644  21655846.4344   21655840.9344
      3483.4084
 -18571502.28548 -14464949.50445  20474157.3564   20474153.8164
      3381.1854
 -10400847.93449  -8085766.41846  19655848.4814   19655844.8404
       390.7744
 04  9 14 16 25 59.9960000  0  6G 1G11G14G23G20G25
 -12391603.19148  -9637444.61346  19466686.4574   19466683.6024
      1400.6124
  -5862902.79749  -4554646.02745  20554733.6374   20554729.9304
      -461.1274
   8836789.78547   6875958.30542  22803428.5124   22803425.6064
     -1771.2544
 -10347817.55947  -8052423.95744  21645910.4654   21645905.0554
      3480.8184
 -18622168.87948 -14504429.95345  20464515.9494   20464512.3054
      3377.7734
 -10406588.95748  -8090239.94546  19654756.1914   19654752.9774
       382.7354
 04  9 14 16 26 14.9960000  0  6G 1G11G14G23G20G25
 -12412549.64548  -9653766.52746  19462700.3324   19462697.4494
      1396.4304
  -5855873.99649  -4549169.03545  20556071.1914   20556067.3444
      -468.5874
   8863356.54746   6896659.63742  22808483.8014   22808481.4304
     -1771.1174
 -10399991.69548  -8093079.12143  21635982.2314   21635976.5044
      3478.2764
 -18672784.79748 -14543870.93045  20454884.0044   20454880.4844
      3374.3954
 -10412210.23449  -8094620.16846  19653686.3484   19653682.9924
       374.7524
 04  9 14 16 26 29.9960000  0  6G 1G11G14G23G20G25
 -12433434.03948  -9670040.07846  19458726.2464   19458722.9734
      1392.2934
  -5848734.07849  -4543605.47345  20557429.6374   20557426.5784
      -475.9954
   8889920.78146   6917359.01242  22813538.8094   22813536.7074
     -1770.9494
 -10452128.22747  -8133704.98043  21626061.0594   21626055.5164
      3475.7694
 -18723350.32048 -14583272.62545  20445261.6604   20445258.0824
      3371.0354
 -10417712.63349  -8098907.74246  19652639.2774   19652635.9184
       366.8274
 04  9 14 16 26 44.9960000  0  6G 1G11G14G23G20G25
 -12454257.25848  -9686265.96146  19454763.4654   19454760.9494
      1388.2154
  -5841484.05949  -4537956.11745  20558809.4104   20558805.8014
      -483.3354
   8916481.46946   6938055.59442  22818593.4734   22818591.1374
     -1770.7124
 -10504228.04747  -8174302.21943  21616146.5274   21616141.2154
      3473.3214
 -18773866.04748 -14622635.52745  20435649.0594   20435645.4494
      3367.7154
 -10423096.99648  -8103103.35246  19651614.3634   19651611.0704
       358.9584
 04  9 14 16 26 59.9960000  0  6G 1G11G14G23G20G25
 -12475017.73849  -9702442.95746  19450813.3404   19450810.3634
      1384.0324
  -5834122.58248  -4532219.89845  20560210.0124   20560206.3484
      -490.7654
   8943040.09046   6958750.60242  22823647.4344   22823645.3134
     -1770.5754
 -10556289.44547  -8214869.52743  21606239.5744   21606233.8564
      3470.7604
 -18824330.17248 -14661958.20745  20426045.9494   20426042.2384
      3364.2754
 -10428361.84048  -8107205.82446  19650612.9814   19650609.2384
       350.9904
 04  9 14 16 27 14.9960000  0  6G 1G11G14G23G20G25
 -12495716.45748  -9718571.82446  19446874.3794   19446871.4144
      1379.9154
  -5826650.77349  -4526397.72345  20561632.0594   20561628.8134
      -498.1214
   8969595.73846   6979443.25842  22828701.0434   22828698.4494
     -1770.3774
 -10608313.26247  -8255407.53544  21596339.6214   21596334.1884
      3468.2544
 -18874743.38348 -14701241.22345  20416452.5594   20416449.0394
      3360.8814
 -10433508.30548  -8111216.05146  19649633.3324   19649629.4844
       343.0984
 04  9 14 16 27 29.9960000  0  6G 1G11G14G23G20G25
 -12516352.82448  -9734652.10546  19442947.3874   19442944.4534
      1375.7584
  -5819068.16449  -4520489.21145  20563075.1214   20563071.3714
      -505.5074
   8996148.96147   7000134.07442  22833754.3404   22833751.1414
     -1770.2154
 -10660298.73847  -8295915.67644  21586447.4344   21586441.5084
      3465.6984
 -18925104.73848 -14740483.82845  20406869.1454   20406865.7274
      3357.4244
 -10438535.69948  -8115133.50446  19648676.4884   19648673.2704
       335.1604
 04  9 14 16 27 44.9960000  0  6G 1G11G14G23G20G25
 -12536925.75848  -9750682.96146  19439032.2234   19439029.6064
      1371.5294
  -5811373.95749  -4514493.73445  20564539.1764   20564535.4304
      -512.9474
   9022700.96547   7020823.92642  22838806.5204   22838803.3134
     -1770.1344
 -10712244.66047  -8336393.02043  21576562.3634   21576557.1254
      3463.0614
 -18975412.82848 -14779684.94545  20397295.9734   20397292.2194
      3353.8734
 -10443443.12948  -8118957.47346  19647742.5984   19647739.1134
       327.1624
 04  9 14 16 27 59.9960000  0  6G 1G11G14G23G20G25
 -12557436.51249  -9766665.36746  19435129.3874   19435126.9024
      1367.3844
  -5803569.60249  -4508412.42645  20566024.3014   20566021.3324
      -520.2904
   9049250.45747   7041511.82842  22843858.5274   22843855.8564
     -1769.9664
 -10764152.33648  -8376840.53143  21566684.5824   21566678.8444
      3460.5124
 -19025668.57448 -14818845.25845  20387732.6374   20387728.6884
      3350.3834
 -10448232.07449  -8122689.11346  19646831.5904   19646828.1064
       319.2634
 04  9 14 16 28 14.9960000  0  6G 1G11G14G23G20G25
 -12577884.96949  -9782599.22346  19431238.2544   19431235.6604
      1363.2304
  -5795654.98449  -4502245.19945  20567530.6214   20567527.2384
      -527.6414
   9075797.57047   7062197.87942  22848910.1134   22848907.1604
     -1769.8084
 -10816021.47348  -8417258.02343  21556814.2934   21556808.1764
      3457.9424
 -19075871.58648 -14857964.48045  20378179.3794   20378175.1804
      3346.8674
 -10452902.42649  -8126328.34446  19645942.6914   19645939.2704
       311.3574
 04  9 14 16 28 29.9960000  0  6G 1G11G14G23G20G25
 -12598271.02749  -9798484.46946  19427358.8564   19427356.0824
      1359.0714
  -5787630.06249  -4495992.02345  20569057.7154   20569054.4144
      -534.9954
   9102342.26246   7082882.02042  22853961.1524   22853959.1454
     -1769.6464
 -10867851.80947  -8457645.28543  21546950.8634   21546946.1214
      3455.3564
 -19126021.43048 -14897042.27045  20368636.0984   20368632.4304
      3343.3234
 -10457454.12148  -8129875.11346  19645076.2074   19645072.8014
       303.4464
 04  9 14 16 28 44.9960000  0  6G 1G11G14G23G20G25
 -12618595.35548  -9814321.60246  19423490.7704   19423488.4344
      1354.9554
  -5779495.78949  -4489653.62545  20570605.4414   20570602.0594
      -542.2854
   9128884.07846   7103563.89842  22859013.2464   22859010.5664
     -1769.4544
 -10919643.93447  -8498002.77343  21537094.8324   21537090.0434
      3452.8084
 -19176118.35248 -14936078.82845  20359102.7544   20359099.2974
      3339.7954
 -10461887.82049  -8133329.94546  19644232.6374   19644229.5824
       295.5804
 04  9 14 16 28 59.9960000  0  6G 1G11G14G23G20G25
 -12638858.07048  -9830110.73046  19419635.3244   19419632.8594
      1350.8484
  -5771252.61349  -4483230.39545  20572173.9184   20572170.8834
      -549.5454
   9155422.74246   7124243.36742  22864062.7074   22864059.2154
     -1769.2444
 -10971397.87947  -8538330.48443  21527246.2624   21527241.3134
      3450.2634
 -19226162.21548 -14975074.03545  20349579.9494   20349576.2934
      3336.2584
 -10466203.84849  -8136693.07446  19643411.5434   19643408.4414
       287.7354
 04  9 14 16 29 14.9960000  0  6G 1G11G14G23G20G25
 -12659059.84048  -9845852.35946  19415790.9964   19415788.3444
      1346.7854
  -5762901.12149  -4476722.73445  20573763.1684   20573759.6174
      -556.7664
   9181957.72946   7144919.96942  22869112.4414   22869109.5434
     -1768.9994
 -11023114.12548  -8578628.84844  21517405.7774   21517400.1724
      3447.7504
 -19276153.33248 -15014028.15245  20340066.9104   20340063.4184
      3332.7414
 -10470402.76649  -8139964.95346  19642612.3164   19642609.0124
       279.9284
 04  9 14 16 29 29.9960000  0  6G 1G11G14G23G20G25
 -12679199.72349  -9861545.77046  19411958.5044   19411955.9654
      1342.6594
  -5754440.54749  -4470130.09445  20575373.3404   20575369.6094
      -564.0384
   9208489.91446   7165594.32842  22874161.9734   22874158.9024
     -1768.8124
 -11074791.66048  -8618897.04743  21507571.8094   21507566.4454
      3445.1694
 -19326090.51248 -15052940.22345  20330563.9264   20330560.4494
      3329.1454
 -10474483.65649  -8143144.87146  19641836.0594   19641832.6804
       272.0594
 04  9 14 16 29 44.9960000  0  6G 1G11G14G23G20G25
 -12699278.57449  -9877191.62546  19408137.5824   19408135.0514
      1338.5904
  -5745872.04349  -4463453.34045  20577003.8404   20577000.1994
      -571.2344
   9235018.30146   7186265.78142  22879209.1524   22879206.6024
     -1768.5594
 -11126431.25048  -8659135.66844  21497744.7544   21497739.7194
      3442.6394
 -19375974.27348 -15091810.68745  20321071.6064   20321067.8564
      3325.5844
 -10478447.68049  -8146233.72346  19641081.8954   19641078.6174
       264.2684
 04  9 14 16 29 59.9960000  0  6G 1G11G14G23G20G25
 -12719296.66849  -9892790.13746  19404328.4494   19404326.0704
      1334.5404
  -5737195.83249  -4456692.66445  20578655.1524   20578650.8754
      -578.4144
   9261542.91446   7206934.29342  22884257.1454   22884253.9774
     -1768.3084
 -11178032.87148  -8699344.71144  21487925.3404   21487920.2854
      3440.1084
 -19425804.58249 -15130639.48445  20311588.8874   20311585.3674
      3322.0214
 -10482295.12949  -8149231.72746  19640349.4734   19640346.3014
       256.4974
 04  9 14 16 30 14.9960000  0  6G 1G11G14G23G20G25
 -12739253.14149  -9908340.62946  19400530.7704   19400528.1254
      1330.4324
  -5728411.31249  -4449847.59845  20580326.4734   20580323.0704
      -585.6354
   9288064.50845   7227600.43442  22889302.5904   22889301.1064
     -1768.1064
 -11229595.74247  -8739523.55544  21478113.1134   21478108.2624
      3437.5254
 -19475580.12948 -15169425.62145  20302117.1914   20302113.6994
      3318.3704
 -10486025.22749  -8152138.29346  19639639.8324   19639636.3874
       248.6734
 04  9 14 16 30 29.9960000  0  6G 1G11G14G23G20G25
 -12759148.50449  -9923843.50846  19396744.8564   19396742.0744
      1326.3584
  -5719519.24649  -4442918.72745  20582018.5274   20582015.2584
      -592.8044
   9314582.41045   7248263.68042  22894349.9814   22894347.5434
     -1767.8604
 -11281120.40247  -8779672.62544  21468307.8874   21468303.4774
      3434.9774
 -19525301.30548 -15208169.38745  20292655.6994   20292652.0084
      3314.7454
 -10489638.58249  -8154953.89146  19638951.8794   19638949.0784
       240.8904
 04  9 14 16 30 44.9960000  0  6G 1G11G14G23G20G25
 -12778983.19149  -9939299.10946  19392970.7544   19392967.7774
      1322.3134
  -5710520.21948  -4435906.50845  20583731.0204   20583727.6064
      -599.9354
   9341096.30545   7268923.84442  22899395.3714   22899392.3404
     -1767.5934
 -11332606.96147  -8819792.01644  21458510.7074   21458506.0124
      3432.4374
 -19574968.13348 -15246870.80145  20283204.5664   20283201.1954
      3311.1224
 -10493135.78149  -8157678.98046  19638286.5354   19638283.1414
       233.1474
 04  9 14 16 30 59.9960000  0  6G 1G11G14G23G20G25
 -12798757.77349  -9954707.87146  19389207.4884   19389204.4384
      1318.3054
  -5701414.89549  -4428811.44945  20585463.7464   20585460.3244
      -607.0224
   9367605.65645   7289580.45342  22904440.2624   22904436.3714
     -1767.2904
 -11384055.88747  -8859882.07044  21448720.7934   21448715.7154
      3429.9284
 -19624580.94548 -15285530.13345  20273763.1294   20273759.6914
      3307.5214
 -10496517.43049  -8160314.03146  19637642.8874   19637639.7734
       225.4434
 04  9 14 16 31 14.9960000  0  6G 1G11G14G23G20G25
 -12818471.09049  -9970068.89546  19385456.4264   19385453.3204
      1314.2214
  -5692202.30548  -4421632.81245  20587216.8484   20587213.7974
      -614.1734
   9394111.53145   7310234.39842  22909483.3244   22909479.6484
     -1767.0584
 -11435465.99247  -8899941.87944  21438937.4654   21438932.6134
      3427.3404
 -19674138.12949 -15324146.12145  20264332.8094   20264329.2464
      3303.8124
 -10499782.50449  -8162858.24246  19637021.5124   19637018.2504
       217.6724
 04  9 14 16 31 29.9960000  0  6G 1G11G14G23G20G25
 -12838123.27349  -9985382.28946  19381716.6914   19381713.6064
      1310.1464
  -5682882.82849  -4414370.88745  20588990.3794   20588986.9734
      -621.2984
   9420613.85545   7330885.51642  22914527.1604   22914523.5514
     -1766.8224
 -11486837.30547  -8939971.45344  21429162.5204   21429157.0904
      3424.7544
 -19723639.48848 -15362718.60245  20254913.1764   20254909.2464
      3300.0914
 -10502931.12149  -8165311.70746  19636422.7314   19636419.3524
       209.9084
 04  9 14 16 31 44.9960000  0  6G 1G11G14G23G20G25
 -12857714.53149 -10000648.20746  19377988.4264   19377985.5004
      1306.0844
  -5673456.78948  -4407025.92645  20590784.1454   20590780.5824
      -628.4034
   9447112.41845   7351533.70742  22919569.4884   22919566.4964
     -1766.5714
 -11538169.96148  -8979970.92244  21419393.7934   21419388.4264
      3422.1774
 -19773084.96149 -15401247.54745  20245503.7934   20245500.2704
      3296.3654
 -10505963.59849  -8167674.68447  19635845.3794   19635842.1764
       202.1654
 04  9 14 16 31 59.9960000  0  6G 1G11G14G23G20G25
 -12877246.09849 -10015867.60946  19374271.9814   19374268.9884
      1302.1044
  -5663925.53548  -4399598.99245  20592597.7314   20592594.3674
      -635.4174
   9473605.98845   7372178.01642  22924610.3634   22924608.2074
     -1766.2384
 -11589464.89148  -9019940.97744  21409632.5824   21409627.5354
      3419.6624
 -19822475.44549 -15439733.62945  20236104.8484   20236101.4574
      3292.6994
 -10508881.25449  -8169948.17246  19635290.4494   19635286.9064
       194.5104
 04  9 14 16 32 14.9960000  0  6G 1G11G14G23G20G25
 -12896717.68049 -10031040.27046  19370566.5744   19370563.8094
      1298.1054
  -5654289.05548  -4392090.04745  20594431.6134   20594428.2734
      -642.4324
   9500094.98045   7392818.74642  22929651.9574   22929649.3564
     -1765.9334
 -11640721.89848  -9059881.49644  21399878.9264   21399873.7234
      3417.1344
 -19871810.37549 -15478176.42245  20226716.8634   20226713.1454
      3288.9954
 -10511684.07449  -8172132.18746  19634756.8874   19634753.5354
       186.8554
 04  9 14 16 32 29.9960000  0  6G 1G11G14G23G20G25
 -12916128.93449 -10046165.91846  19366872.4184   19366869.6564
      1294.0844
  -5644547.11348  -4384498.93745  20596285.5744   20596281.7814
      -649.4634
   9526579.52745   7413455.97342  22934691.4964   22934689.4844
     -1765.6364
 -11691940.50448  -9099792.07444  21390132.0514   21390126.5594
      3414.5744
 -19921089.00449 -15516575.35245  20217339.5204   20217335.7624
      3285.2424
 -10514371.72349  -8174226.45347  19634245.5744   19634242.2384
       179.1774
 04  9 14 16 32 44.9960000  0  6G 1G11G14G23G20G25
 -12935480.30549 -10061244.91446  19363189.9104   19363187.1334
      1290.0914
  -5634700.44148  -4376826.20745  20598158.9734   20598155.5744
      -656.4454
   9553059.40246   7434089.60942  22939730.9654   22939728.1804
     -1765.3254
 -11743120.98848  -9139672.96144  21380392.9264   21380387.3484
      3412.0324
 -19970311.60549 -15554930.61745  20207972.8014   20207969.0514
      3281.5074
 -10516944.70749  -8176231.37546  19633755.8874   19633752.4964
       171.5324
 04  9 14 16 32 59.9960000  0  6G 1G11G14G23G20G25
 -12954771.73848 -10076277.18746  19359518.8634   19359516.4104
      1286.0964
  -5624748.99248  -4369071.85245  20600052.8324   20600049.0084
      -663.4304
   9579534.65245   7454719.63742  22944768.3564   22944767.2934
     -1765.0174
 -11794263.13748  -9179523.96944  21370660.6684   21370655.6214
      3409.4774
 -20019477.65648 -15593241.82445  20198617.0124   20198612.9964
      3277.7374
 -10519403.04749  -8178146.96946  19633288.1844   19633284.8794
       163.8894
 04  9 14 16 33 14.9960000  0  6G 1G11G14G23G20G25
 -12974003.34449 -10091262.85946  19355858.9654   19355856.6724
      1282.1074
  -5614693.24648  -4361236.20344  20601966.4494   20601962.9774
      -670.3834
   9606005.02346   7475345.85542  22949806.6604   22949803.9814
     -1764.6914
 -11845367.07448  -9219345.20344  21360936.1994   21360930.3634
      3406.9294
 -20068586.91449 -15631508.77345  20189271.8244   20189268.0274
      3273.9514
 -10521746.99649  -8179973.41446  19632842.0354   19632838.6724
       156.2634
 04  9 14 16 33 29.9960000  0  6G 1G11G14G23G20G25
 -12993175.98048 -10106202.56246  19352210.7384   19352208.3914
      1278.1764
  -5604534.02048  -4353319.93444  20603899.6524   20603895.9654
      -677.2824
   9632469.80546   7495967.71142  22954842.9814   22954840.2814
     -1764.3194
 -11896433.43748  -9259137.15644  21351218.2384   21351212.9534
      3404.4244
 -20117639.85949 -15669731.84445  20179937.5514   20179933.6134
      3270.1964
 -10523977.37149  -8181711.36746  19632417.3564   19632414.4964
       148.6924
 04  9 14 16 33 44.9960000  0  6G 1G11G14G23G20G25
 -13012288.94149 -10121095.78146  19348573.7464   19348571.5664
      1274.1974
  -5594270.79348  -4345322.61344  20605852.6134   20605849.0864
      -684.2154
   9658929.63545   7516585.77342  22959877.9734   22959874.8754
     -1763.9894
 -11947461.52048  -9298899.29344  21341507.8564   21341502.8874
      3401.8724
 -20166635.67249 -15707910.40645  20170613.7624   20170609.9734
      3266.3874
 -10526093.70349  -8183360.46146  19632014.6684   19632011.8134
       141.0894
 04  9 14 16 33 59.9960000  0  6G 1G11G14G23G20G25
 -13031343.41849 -10135943.42246  19344947.6914   19344945.3404
      1270.2984
  -5583904.95748  -4337245.34044  20607824.9574   20607821.7274
      -691.0564
   9685383.44544   7537199.07042  22964910.5434   22964908.1484
     -1763.5874
 -11998452.26248  -9338632.32044  21331804.6914   21331799.1914
      3399.3834
 -20215575.07849 -15746045.01245  20161300.9024   20161297.1994
      3262.6274
 -10528097.19549  -8184921.62146  19631633.6764   19631630.0274
       133.5664
 04  9 14 16 34 14.9960000  0  6G 1G11G14G23G20G25
 -13050339.37549 -10150745.46146  19341333.0204   19341330.4264
      1266.3974
  -5573436.67648  -4329088.24644  20609817.1764   20609813.9534
      -697.8854
   9711831.23045   7557807.73442  22969943.7854   22969940.7274
     -1763.1864
 -12049405.53948  -9378336.17244  21322108.9734   21322102.8244
      3396.8854
 -20264457.68049 -15784135.34445  20151999.0514   20151994.9344
      3258.8404
 -10529987.87549  -8186394.87946  19631273.3794   19631270.4384
       126.0454
 04  9 14 16 34 29.9960000  0  6G 1G11G14G23G20G25
 -13069277.00849 -10165502.05546  19337729.4104   19337726.5864
      1262.5094
  -5562866.43048  -4320851.69544  20611828.4964   20611825.5394
      -704.6834
   9738272.69545   7578411.45742  22974975.4964   22974973.0274
     -1762.7644
 -12100321.48448  -9418010.89844  21312419.8324   21312414.5274
      3394.3964
 -20313283.47748 -15822181.41845  20142707.5274   20142703.8134
      3255.0534
 -10531766.10549  -8187780.51246  19630935.3014   19630932.2234
       118.5494
 04  9 14 16 34 44.9960000  0  6G 1G11G14G23G20G25
 -13088155.58249 -10180212.62946  19334136.9494   19334134.1294
      1258.5724
  -5552193.62548  -4312535.22744  20613859.3094   20613855.7234
      -711.5204
   9764708.85945   7599010.98442  22980006.7774   22980003.8984
     -1762.4114
 -12151199.35948  -9457655.99644  21302738.0744   21302732.5824
      3391.8584
 -20362051.39848 -15860182.39545  20133427.6294   20133423.7504
      3251.1954
 -10533431.29749  -8189078.06246  19630618.5204   19630615.3054
       111.0134
 04  9 14 16 34 59.9960000  0  6G 1G11G14G23G20G25
 -13106975.28949 -10194877.33646  19330555.7544   19330552.7344
      1254.6474
  -5541418.53547  -4304139.06644  20615909.9494   20615906.7894
      -718.3394
   9791139.27044   7619606.08641  22985035.4654   22985034.2194
     -1762.0274
 -12202039.10548  -9497271.36344  21293063.4264   21293058.1454
      3389.3164
 -20410761.22348 -15898138.10545  20124158.1214   20124154.5434
      3247.3224
 -10534983.64849  -8190287.68746  19630323.0984   19630319.6884
       103.4904
 04  9 14 16 35 14.9960000  0  6G 1G11G14G23G20G25
 -13125736.46549 -10209496.43446  19326985.4414   19326982.8094
      1250.7454
  -5530541.85248  -4295663.73845  20617979.7704   20617976.8444
      -725.1124
   9817563.65645   7640196.46142  22990065.1374   22990062.0004
     -1761.6264
 -12252840.96148  -9536857.21144  21283396.0124   21283390.9414
      3386.7904
 -20459413.03548 -15936048.60245  20114900.0044   20114896.3444
      3243.4544
 -10536423.68449  -8191409.78546  19630048.9184   19630045.6294
        96.0024
 04  9 14 16 35 29.9960000  0  6G 1G11G14G23G20G25
 -13144440.43049 -10224070.94546  19323426.4184   19323423.5314
      1246.9314
  -5519564.96548  -4287110.33645  20620068.7934   20620065.2424
      -731.7924
   9843980.67245   7660781.12142  22995091.6844   22995089.3874
     -1761.1344
 -12303606.17648  -9576414.50444  21273735.6294   21273730.2314
      3384.3484
 -20508007.75448 -15973914.60545  20105652.9104   20105649.1604
      3239.6484
 -10537752.80949  -8192445.46546  19629795.9654   19629792.3444
        88.6084
 04  9 14 16 35 44.9960000  0  6G 1G11G14G23G20G25
 -13163085.50849 -10238599.58246  19319877.9884   19319875.2074
      1243.0054
  -5508486.38348  -4278477.67645  20622176.9264   20622173.7704
      -738.5724
   9870392.24245   7681361.50442  23000118.2314   23000116.0004
     -1760.7714
 -12354333.04748  -9615941.93444  21264083.0124   21264077.7464
      3381.7914
 -20556543.47348 -16011734.64545  20096416.7074   20096413.2314
      3235.7154
 -10538969.40649  -8193393.46546  19629564.5124   19629561.0004
        81.1074
 04  9 14 16 35 59.9960000  0  6G 1G11G14G23G20G25
 -13181672.20749 -10253082.71946  19316341.4104   19316338.3404
      1239.1134
  -5497306.76248  -4269766.30544  20624304.4184   20624301.3524
      -745.3084
   9896797.66045   7701937.14542  23005142.7154   23005140.6094
     -1760.3614
 -12405021.84848  -9655439.70344  21254437.2314   21254431.9924
      3379.2534
 -20605020.25448 -16049508.74245  20087191.5274   20087188.3754
      3231.7854
 -10540074.14149  -8194254.29346  19629354.2544   19629350.8984
        73.6494
 04  9 14 16 36 14.9960000  0  6G 1G11G14G23G20G25
 -13200200.54349 -10267520.38746  19312815.5434   19312812.5274
      1235.2224
  -5486026.28548  -4260976.32445  20626450.9814   20626447.6094
      -752.0324
   9923197.07845   7722508.03142  23010167.0594   23010165.2624
     -1759.9614
 -12455672.49648  -9694907.71544  21244798.6374   21244793.0944
      3376.7104
 -20653437.87948 -16087236.76245  20077978.1914   20077974.6254
      3227.8424
 -10541067.12549  -8195028.04746  19629165.3714   19629161.7664
        66.1994
 04  9 14 16 36 29.9960000  0  6G 1G11G14G23G20G25
 -13218671.04349 -10281912.98446  19309300.5204   19309297.7734
      1231.3674
  -5474645.83649  -4252108.46145  20628616.4884   20628612.8484
      -758.6974
   9949589.66845   7743073.64842  23015188.5434   23015186.5234
     -1759.5064
 -12506285.48448  -9734346.40244  21235167.2934   21235162.3524
      3374.1994
 -20701796.49648 -16124918.80145  20068776.0124   20068772.4534
      3223.9084
 -10541949.06649  -8195715.27346  19628997.4654   19628993.8634
        58.7964
 04  9 14 16 36 44.9960000  0  6G 1G11G14G23G20G25
 -13237083.78949 -10296260.57847  19305796.7464   19305794.0664
      1227.5164
  -5463165.45348  -4243162.71945  20630801.2154   20630797.6484
      -765.3594
   9975975.79745   7763634.22342  23020209.8714   23020207.3594
     -1759.0754
 -12556860.68748  -9773755.64144  21225543.1524   21225538.0784
      3371.6804
 -20750095.91848 -16162554.70745  20059584.7464   20059581.4454
      3219.9614
 -10542720.08249  -8196316.06246  19628851.4344   19628847.6134
        51.4014
 04  9 14 16 36 59.9960000  0  5G 1G11G23G20G25
 -13255439.84849 -10310563.99247  19302303.7544   19302301.2544
      1223.7374
  -5451586.60948  -4234140.25045  20633004.7704   20633001.1994
      -771.9234
 -12607399.23848  -9813136.31244  21215925.9574   21215920.8524
      3369.2374
 -20798336.93449 -16200145.09845  20050405.0904   20050401.7194
      3216.0684
 -10543381.46949  -8196831.42246  19628725.0514   19628721.6994
        44.0924
 04  9 14 16 37 14.9960000  0  5G 1G11G23G20G25
 -13273738.32849 -10324822.54746  19298821.6684   19298818.7934
      1219.8994
  -5439908.57048  -4225040.47744  20635227.1294   20635223.2234
      -778.5364
 -12657900.08248  -9852487.61744  21206316.1064   21206310.6764
      3366.7234
 -20846518.25449 -16237688.98045  20041236.3794   20041232.5514
      3212.0884
 -10543932.51649  -8197260.80946  19628620.2704   19628616.8324
        36.7364
 04  9 14 16 37 29.9960000  0  5G 1G11G23G20G25
 -13291979.29349 -10339036.28546  19295350.2464   19295347.6804
      1216.0644
  -5428131.48449  -4215863.55144  20637467.8094   20637464.1214
      -785.1394
 -12708363.09048  -9891809.41444  21196713.1374   21196707.9144
      3364.2014
 -20894639.56249 -16275186.10545  20032078.9814   20032075.1064
      3208.0874
 -10544373.11349  -8197604.13346  19628536.5434   19628533.1094
        29.3734
 04  9 14 16 37 44.9960000  0  5G 1G11G23G20G25
 -13310161.83649 -10353204.50446  19291890.7384   19291888.0904
      1212.1704
  -5416254.67649  -4206608.90245  20639727.9104   20639724.5044
      -791.7874
 -12758787.27748  -9931100.98044  21187117.6294   21187112.6804
      3361.6134
 -20942699.60549 -16312635.48045  20022933.6844   20022929.9344
      3204.0034
 -10544702.43049  -8197860.74246  19628473.4104   19628470.1414
        21.9544
 04  9 14 16 37 59.9960000  0  5G 1G11G23G20G25
 -13328285.66449 -10367326.95746  19288441.6764   19288438.9844
      1208.2554
  -5404278.00049  -4197276.44145  20642007.4964   20642003.4964
      -798.4454
 -12809172.27348  -9970362.01244  21177530.0274   21177524.4104
      3359.0004
 -20990697.85249 -16350036.69945  20013799.7074   20013795.9924
      3199.8834
 -10544920.39149  -8198030.58246  19628432.2544   19628428.5474
        14.5314
 04  9 14 16 38 14.9960000  0  5G 1G11G23G20G25
 -13346349.74249 -10381402.86747  19285003.9344   19285001.7074
      1204.2724
  -5392200.60949  -4187865.50044  20644305.3714   20644301.4064
      -805.1594
 -12859516.93048 -10009591.60944  21167949.2464   21167944.0044
      3356.3104
 -21038632.92649 -16387388.69946  20004678.2774   20004674.2774
      3195.6724
 -10545026.16849  -8198113.01246  19628411.8874   19628408.4614
         7.0524
 04  9 14 16 38 29.9960000  0  5G 1G11G23G20G25
 -13364354.65249 -10395432.66847  19281578.2704   19281575.4414
      1200.3274
  -5380023.37548  -4178376.75044  20646622.7314   20646619.2074
      -811.8164
 -12909821.64148 -10048790.05544  21158376.3954   21158371.3634
      3353.6474
 -21086505.01649 -16424691.63346  19995568.5434   19995564.9024
      3191.4734
 -10545020.45349  -8198108.55146  19628413.0434   19628410.1094
        -0.3814
 04  9 14 16 38 44.9960000  0  5G 1G11G23G20G25
 -13382300.98449 -10409416.82447  19278162.6604   19278159.9774
      1196.4224
  -5367747.12948  -4168810.85945  20648958.8484   20648955.2344
      -818.4164
 -12960086.94548 -10087957.82844  21148811.4884   21148806.2584
      3351.0204
 -21134314.41449 -16461945.70345  19986470.5204   19986466.9924
      3187.2934
 -10544903.87549  -8198017.71546  19628435.4104   19628431.6804
        -7.7724
 04  9 14 16 38 59.9960000  0  5G 1G11G23G20G25
 -13400187.86349 -10423354.66047  19274759.1604   19274756.6804
      1192.4594
  -5355371.11748  -4159167.21145  20651313.7854   20651310.1214
      -825.0674
 -13010311.85948 -10127094.10544  21139253.9104   21139248.7274
      3348.3284
 -21182059.80148 -16499149.89846  19977385.2934   19977381.3564
      3183.0264
 -10544675.52749  -8197839.78546  19628478.8324   19628475.3834
       -15.2234
 04  9 14 16 39 14.9960000  0  5G 1G11G23G20G25
 -13418016.27749 -10437246.92646  19271366.5984   19271364.0204
      1188.5614
  -5342896.41848  -4149446.68444  20653687.3244   20653684.4384
      -831.6474
 -13060497.26648 -10166199.60544  21129704.4414   21129698.4264
      3345.6944
 -21229742.03949 -16536304.88746  19968311.3014   19968307.4384
      3178.8164
 -10544336.78949  -8197575.83646  19628543.3484   19628539.8754
       -22.5834
 04  9 14 16 39 29.9960000  0  5G 1G11G23G20G25
 -13435785.55949 -10451093.10546  19267985.0044   19267982.5864
      1184.6194
  -5330322.69948  -4139648.99645  20656080.5274   20656077.5594
      -838.2484
 -13110642.49648 -10205273.79744  21120161.7544   21120156.5234
      3343.0154
 -21277360.18049 -16573409.92245  19959249.6374   19959246.1454
      3174.5434
 -10543887.16049  -8197225.47346  19628628.7154   19628625.3014
       -29.9754
 04  9 14 16 39 44.9960000  0  5G 1G11G23G20G25
 -13453495.71549 -10464893.23447  19264615.0904   19264612.3564
      1180.6774
  -5317650.21548  -4129774.33644  20658491.7704   20658489.0824
      -844.8324
 -13160747.36748 -10244316.54744  21110627.4264   21110621.4924
      3340.3254
 -21324913.77348 -16610464.66845  19950200.4814   19950197.3014
      3170.2404
 -10543326.59049  -8196788.67246  19628735.4814   19628732.1254
       -37.3714
 04  9 14 16 39 59.9960000  0  5G 1G11G23G20G25
 -13471147.46949 -10478647.85246  19261255.9734   19261252.9534
      1176.7844
  -5304879.80948  -4119823.38344  20660921.4884   20660919.3324
      -851.3604
 -13210812.50048 -10283328.32444  21101100.5744   21101094.5864
      3337.6764
 -21372403.22749 -16647469.42645  19941163.5744   19941160.0554
      3165.9644
 -10542655.99249  -8196266.12946  19628863.0904   19628859.9614
       -44.7074
 04  9 14 16 40 14.9960000  0  5G 1G11G23G20G25
 -13488740.68449 -10492356.85246  19257908.2234   19257905.1914
      1172.8814
  -5292011.50848  -4109796.13744  20663370.6684   20663367.9574
      -857.8874
 -13260837.62149 -10322308.93744  21091580.7854   21091574.7464
      3335.0084
 -21419828.08249 -16684423.85545  19932139.0274   19932135.4614
      3161.6574
 -10541875.27749  -8195657.77346  19629011.8634   19629008.4144
       -52.0484
 04  9 14 16 40 29.9960000  0  5G 1G11G23G20G25
 -13506275.76649 -10506020.55146  19254571.2074   19254568.7074
      1169.0054
  -5279045.92648  -4099693.09444  20665837.6914   20665834.5824
      -864.3724
 -13310823.03548 -10361258.60544  21082068.8634   21082063.1214
      3332.3614
 -21467188.35249 -16721327.95746  19923126.7544   19923122.8794
      3157.3514
 -10540985.04349  -8194964.09046  19629181.1684   19629177.6914
       -59.3494
 04  9 14 16 40 44.9960000  0  5G 1G11G23G20G25
 -13523753.36349 -10519639.45746  19251245.5744   19251242.9574
      1165.1734
  -5265984.02348  -4089515.00444  20668323.5664   20668320.4694
      -870.7934
 -13360769.31648 -10400177.74244  21072564.4414   21072558.8094
      3329.7524
 -21514484.37149 -16758182.00045  19914126.6134   19914122.6684
      3153.0684
 -10539985.90649  -8194185.55546  19629371.2704   19629368.1454
       -66.6094
 04  9 14 16 40 59.9960000  0  5G 1G11G23G20G25
 -13541173.58249 -10533213.65246  19247930.4184   19247927.8404
      1161.3484
  -5252825.99248  -4079262.00444  20670827.4024   20670824.3284
      -877.2024
 -13410676.50848 -10439066.46144  21063067.2234   21063061.7974
      3327.1464
 -21561716.03149 -16794985.89145  19905138.5204   19905134.5704
      3148.7774
 -10538878.24249  -8193322.43746  19629581.8164   19629578.6994
       -73.8444
 04  9 14 16 41 14.9960000  0  5G 1G11G23G20G25
 -13558535.93449 -10546742.75046  19244626.3244   19244623.5744
      1157.4904
  -5239571.60548  -4068933.91844  20673349.8794   20673346.1804
      -883.6264
 -13460543.94548 -10477924.21544  21053577.8484   21053572.3874
      3324.4964
 -21608882.51249 -16831738.98446  19896162.9414   19896159.5704
      3144.4324
 -10537661.71549  -8192374.48846  19629813.5664   19629810.1484
       -81.1024
 04  9 14 16 41 29.9960000  0  5G 1G11G23G20G25
 -13575840.60249 -10560226.89847  19241333.4814   19241330.6374
      1153.6454
  -5226221.20748  -4058531.03144  20675890.6214   20675886.9734
      -890.0274
 -13510371.72748 -10516751.04344  21044096.1374   21044090.2814
      3321.8524
 -21655983.50448 -16868441.05546  19887199.8164   19887196.1914
      3140.0664
 -10536336.48049  -8191341.84846  19630065.8324   19630062.6094
       -88.3494
 04  9 14 16 41 44.9960000  0  5G 1G11G23G20G25
 -13593087.79349 -10573666.26646  19238051.6374   19238048.6844
      1149.8134
  -5212775.30148  -4048053.71144  20678449.1684   20678445.3834
      -896.3944
 -13560159.98049 -10555547.08244  21034621.7384   21034615.9184
      3319.2174
 -21703018.98449 -16905092.07446  19878249.7854   19878245.8914
      3135.6994
 -10534903.03949  -8190224.87946  19630338.3324   19630335.4574
       -95.5634
 04  9 14 16 41 59.9960000  0  5G 1G11G23G20G25
 -13610277.78948 -10587061.07446  19234780.4654   19234777.3674
      1146.0004
  -5199234.24648  -4037502.25444  20681025.8014   20681022.1094
      -902.7374
 -13609908.85548 -10594312.42644  21025154.6914   21025148.6374
      3316.5924
 -21749988.96148 -16941692.05546  19869311.1454   19869307.9414
      3131.3324
 -10533361.73849  -8189023.86346  19630631.6914   19630628.8284
      -102.7534
 04  9 14 16 42 14.9960000  0  5G 1G11G23G20G25
 -13627410.29749 -10600411.07447  19231519.9654   19231517.0004
      1142.1674
  -5185598.07848  -4026876.68044  20683620.8874   20683616.9184
      -909.0784
 -13659617.91449 -10633046.74644  21015695.3714   21015689.9304
      3313.9374
 -21796892.71549 -16978240.42246  19860385.6524   19860382.2734
      3126.9174
 -10531712.34449  -8187738.62546  19630945.3714   19630942.3564
      -109.9604
 04  9 14 16 42 29.9960000  0  5G 1G11G23G20G25
 -13644484.39149 -10613715.57446  19228270.8794   19228268.1454
      1138.2734
  -5171866.00848  -4016176.37944  20686234.0904   20686229.8284
      -915.4714
 -13709286.18449 -10671749.28144  21006243.5204   21006237.9344
      3311.2184
 -21843728.98848 -17014736.21946  19851473.0984   19851469.8834
      3122.4184
 -10529954.17249  -8186368.62546  19631280.2234   19631277.0234
      -117.2114
 04  9 14 16 42 44.9960000  0  5G 1G11G23G20G25
 -13661500.88749 -10626975.18446  19225032.9264   19225030.0664
      1134.4334
  -5158039.21548  -4005402.27744  20688864.9494   20688860.7734
      -921.7864
 -13758914.36348 -10710420.57844  20996799.6764   20996793.9454
      3308.5454
 -21890498.29748 -17051179.83246  19842573.3324   19842570.2154
      3117.9544
 -10528088.25049  -8184914.66046  19631635.2384   19631632.1604
      -124.3954
 04  9 14 16 42 59.9960000  0  5G 1G11G23G20G25
 -13678460.95348 -10640190.82047  19221805.6134   19221802.5664
      1130.6714
  -5144118.92248  -3994555.29344  20691513.8954   20691509.9494
      -928.0204
 -13808503.42648 -10749061.39844  20987363.3714   20987357.6994
      3305.9384
 -21937201.54348 -17087571.95346  19833685.8404   19833682.7114
      3113.5504
 -10526115.65649  -8183377.57046  19632010.7314   19632007.3524
      -131.5064
 04  9 14 16 43 14.9960000  0  5G 1G11G23G20G25
 -13695363.55949 -10653361.68447  19218589.1604   19218586.1644
      1126.8404
  -5130104.24648  -3983634.77344  20694180.8164   20694177.0434
      -934.3124
 -13858052.33248 -10787670.93044  20977933.7074   20977928.7704
      3303.2604
 -21983837.35248 -17123911.53946  19824811.3794   19824808.0514
      3109.0544
 -10524035.60249  -8181756.76246  19632406.7234   19632403.4654
      -138.6704
 04  9 14 16 43 29.9960000  0  5G 1G11G23G20G25
 -13712209.59049 -10666488.46547  19215383.5354   19215380.4694
      1123.0694
  -5115996.19948  -3972641.50844  20696865.5744   20696861.8094
      -940.5364
 -13907561.91848 -10826249.81244  20968512.6914   20968507.7974
      3300.6394
 -22030406.07448 -17160198.85246  19815949.9024   19815946.1604
      3104.5824
 -10521849.00849  -8180052.91846  19632822.5904   19632819.6604
      -145.7734
 04  9 14 16 43 44.9960000  0  5G 1G11G23G20G25
 -13728998.45349 -10679570.69146  19212188.7464   19212185.7774
      1119.2584
  -5101794.60948  -3961575.34444  20699568.0434   20699564.3094
      -946.7734
 -13957031.42248 -10864797.46944  20959099.5434   20959094.0204
      3297.9674
 -22076906.92248 -17196433.27046  19807101.2624   19807097.4304
      3100.0574
 -10519555.50449  -8178265.76646  19633258.9024   19633255.9884
      -152.9004
 04  9 14 16 43 59.9960000  0  5G 1G11G23G20G25
 -13745730.24649 -10692608.45346  19209004.4414   19209002.1064
      1115.4534
  -5087499.83648  -3950436.57444  20702288.3404   20702284.5594
      -952.9854
 -14006460.84048 -10903313.88744  20949693.0824   20949688.0204
      3295.2954
 -22123339.73848 -17232614.69545  19798265.4494   19798260.8634
      3095.5214
 -10517155.26249  -8176395.45746  19633715.4494   19633712.6024
      -160.0164
 04  9 14 16 44 14.9960000  0  5G 1G11G23G20G25
 -13762405.22349 -10705601.93447  19205831.3014   19205828.7034
      1111.6654
  -5073112.30548  -3939225.52044  20705026.1524   20705022.4534
      -959.1694
 -14055850.31648 -10941799.18044  20940295.0124   20940289.5354
      3292.6324
 -22169704.39848 -17268743.00045  19789442.6134   19789438.0984
      3090.9774
 -10514648.64849  -8174442.26246  19634192.9414   19634189.8204
      -167.1084
 04  9 14 16 44 29.9960000  0  5G 1G11G23G20G25
 -13779023.26649 -10718551.06246  19202669.0514   19202666.4184
      1107.8704
  -5058631.94948  -3927942.14144  20707781.7704   20707778.2704
      -965.3574
 -14105199.53948 -10980253.10944  20930904.2544   20930898.8284
      3289.9484
 -22216000.46148 -17304817.85945  19780632.2934   19780628.2314
      3086.4044
 -10512035.75449  -8172406.23446  19634689.9814   19634687.2704
      -174.1934
 04  9 14 16 44 44.9960000  0  5G 1G11G23G20G25
 -13795583.85249 -10731455.41447  19199517.7154   19199514.9614
      1104.0394
  -5044058.72748  -3916586.38744  20710555.3874   20710551.3874
      -971.5484
 -14154508.08649 -11018675.34844  20921520.6604   20921515.6914
      3287.2364
 -22262227.08248 -17340838.60545  19771835.7854   19771831.5314
      3081.7754
 -10509316.27749  -8170287.17246  19635207.5984   19635204.7664
      -181.2984
 04  9 14 16 44 59.9960000  0  5G 1G11G23G20G25
 -13812087.60249 -10744315.47747  19196377.0354   19196374.5594
      1100.2504
  -5029393.26648  -3905158.76644  20713345.8874   20713342.1724
      -977.6974
 -14203776.35248 -11057066.18744  20912145.1454   20912139.8874
      3284.5514
 -22308384.55548 -17376805.47346  19763052.0904   19763048.0984
      3077.1654
 -10506490.91449  -8168085.59046  19635745.0824   19635742.0234
      -188.3584
 04  9 14 16 45 14.9960000  0  5G 1G11G23G20G25
 -13828534.91048 -10757131.57046  19193247.6684   19193245.0314
      1096.4874
  -5014636.21148  -3893659.76644  20716153.7074   20716150.5354
      -983.8044
 -14253004.69948 -11095425.93044  20902777.5044   20902772.3404
      3281.8904
 -22354472.94148 -17412718.48845  19754281.7934   19754278.1134
      3072.5594
 -10503560.13749  -8165801.87147  19636302.8564   19636299.9734
      -195.3854
 04  9 14 16 45 29.9960000  0  5G 1G11G23G20G25
 -13844924.78549 -10769902.90246  19190128.5274   19190125.6914
      1092.6584
  -4999786.85548  -3882088.85544  20718979.4734   20718976.4774
      -989.9574
 -14302191.91048 -11133753.62544  20893417.4344   20893411.7314
      3279.1474
 -22400490.96148 -17448576.68445  19745525.1134   19745521.5434
      3067.8684
 -10500523.18449  -8163435.41846  19636880.9344   19636877.6254
      -202.4644
 04  9 14 16 45 44.9960000  0  5G 1G11G23G20G25
 -13861256.98049 -10782629.29746  19187020.3794   19187017.9614
      1088.8134
  -4984845.17248  -3870445.99644  20721822.6374   20721819.3984
      -996.1124
 -14351337.78148 -11172049.09844  20884065.3634   20884060.1954
      3276.3914
 -22446438.00048 -17484379.56646  19736781.2854   19736778.1484
      3063.1364
 -10497379.92649  -8160986.12547  19637478.9814   19637475.9064
      -209.5514
 04  9 14 16 45 59.9960000  0  5G 1G11G23G20G25
 -13877532.69949 -10795311.67246  19183923.3244   19183920.4844
      1085.0484
  -4969812.57848  -3858732.30144  20724683.5744   20724680.3984
     -1002.1734
 -14400443.49649 -11210313.27744  20874721.0744   20874715.4304
      3273.7144
 -22492314.87548 -17520127.77746  19728051.4654   19728048.0784
      3058.4584
 -10494131.82449  -8158455.13746  19638097.0124   19638093.9844
      -216.5404
 04  9 14 16 46 14.9960000  0  5G 1G11G23G20G25
 -13893751.42249 -10807949.64546  19180837.2774   19180834.3564
      1081.2484
  -4954688.74248  -3846947.51644  20727560.9654   20727558.1804
     -1008.2564
 -14449508.28948 -11248545.57844  20865383.9494   20865378.6604
      3270.9864
 -22538120.82048 -17555820.71546  19719335.0904   19719331.4574
      3053.7304
 -10490778.31249  -8155842.01246  19638735.1294   19638731.8324
      -223.5674
 04  9 14 16 46 29.9960000  0  5G 1G11G23G20G25
 -13909913.47749 -10820543.44546  19177761.4344   19177758.8204
      1077.4704
  -4939474.19548  -3835092.02344  20730456.1844   20730453.1804
     -1014.3034
 -14498532.35248 -11286746.13744  20856054.9814   20856049.5314
      3268.2714
 -22583855.78148 -17591458.34446  19710631.7854   19710628.4224
      3048.9974
 -10487319.74649  -8153147.02746  19639393.2384   19639390.4694
      -230.5714
 04  9 14 16 46 44.9960000  0  5G 1G11G23G20G25
 -13926018.45349 -10833092.78946  19174696.8874   19174694.3014
      1073.6654
  -4924168.88348  -3823165.82844  20733369.1844   20733365.7114
     -1020.3544
 -14547515.10948 -11324914.51244  20846733.9184   20846728.5554
      3265.5174
 -22629519.07048 -17627040.12146  19701942.6684   19701938.8324
      3044.2194
 -10483755.96949  -8150370.06646  19640071.4964   19640068.7154
      -237.5854
 04  9 14 16 46 59.9960000  0  5G 1G11G23G20G25
 -13942067.21948 -10845598.32046  19171642.8954   19171640.3094
      1069.9184
  -4908773.77048  -3811169.64544  20736298.8404   20736295.7584
     -1026.3414
 -14596457.36348 -11363051.32444  20837420.5664   20837414.8714
      3262.8174
 -22675111.18448 -17662566.44546  19693266.4964   19693262.8914
      3039.4744
 -10480087.98049  -8147511.89147  19640769.6454   19640766.5944
      -244.5334
 04  9 14 16 47 14.9960000  0  5G 1G11G23G20G25
 -13958059.71149 -10858060.00846  19168599.2854   19168596.9384
      1066.1664
  -4893289.04348  -3799103.63744  20739245.1134   20739242.2774
     -1032.3154
 -14645359.03149 -11401156.52044  20828114.9184   20828109.1724
      3260.1114
 -22720631.69948 -17698036.97746  19684604.6524   19684600.9454
      3034.7014
 -10476315.94149  -8144572.64847  19641487.4264   19641484.1604
      -251.4694
 04  9 14 16 47 29.9960000  0  5G 1G11G23G20G25
 -13973995.80549 -10870477.74646  19165567.0824   19165564.7074
      1062.4064
  -4877714.84848  -3786967.91444  20742208.8164   20742205.4844
     -1038.2804
 -14694219.94948 -11439229.96144  20818816.8324   20818810.8634
      3257.3954
 -22766080.28548 -17733451.45346  19675955.8014   19675951.8874
      3029.9064
 -10472439.89549  -8141552.34846  19642225.0664   19642221.7704
      -258.4034
 04  9 14 16 47 44.9960000  0  5G 1G11G23G20G25
 -13989875.64549 -10882851.64546  19162544.9964   19162542.5944
      1058.6564
  -4862051.52048  -3774762.73444  20745189.8404   20745186.5354
     -1044.2224
 -14743040.07448 -11477271.60544  20809526.3484   20809521.2194
      3254.6754
 -22811456.58648 -17768809.60546  19667320.8014   19667317.1484
      3025.0874
 -10468460.10249  -8138451.21146  19642982.1604   19642978.9884
      -265.3204
 04  9 14 16 47 59.9950000  0  5G 1G11G23G20G25
 -14005699.10249 -10895181.61346  19159533.9764   19159531.4294
      1054.8974
  -4846301.27748  -3762489.82444  20748186.5624   20748184.0074
     -1050.0164
 -14791817.00848 -11515279.59044  20800244.7334   20800239.3004
      3251.7964
 -22856758.23048 -17804109.59046  19658699.9914   19658696.4294
      3020.1104
 -10464377.98049  -8135270.33647  19643759.0624   19643755.6944
      -272.1414
 04  9 14 16 48 14.9950000  0  5G 1G11G23G20G25
 -14021467.87948 -10907468.96946  19156533.3744   19156530.5424
      1051.2524
  -4830461.71548  -3750147.33244  20751201.2184   20751197.5114
     -1055.9714
 -14840556.68748 -11553258.55544  20790969.9214   20790964.3044
      3249.3124
 -22901990.59448 -17839355.57446  19650092.5624   19650088.9294
      3015.4914
 -10460192.54349  -8132008.96547  19644555.3584   19644552.1284
      -279.0294
 04  9 14 16 48 29.9950000  0  5G 1G11G23G20G25
 -14037180.96548 -10919712.94146  19153543.4994   19153540.3584
      1047.5394
  -4814534.27048  -3737736.34444  20754232.1634   20754228.6014
     -1061.8304
 -14889255.75048 -11591205.86744  20781702.9374   20781696.7964
      3246.6044
 -22947150.27748 -17874544.94146  19641498.9684   19641495.3154
      3010.6464
 -10455904.41449  -8128667.56646  19645371.3434   19645368.2614
      -285.8754
 04  9 14 16 48 44.9950000  0  5G 1G11G23G20G25
 -14052838.48449 -10931913.60246  19150563.5774   19150560.9954
      1043.8354
  -4798519.20349  -3725257.09444  20757279.7024   20757276.4214
     -1067.6714
 -14937914.33648 -11629121.64844  20772443.2024   20772437.5074
      3243.9064
 -22992237.15248 -17909677.56246  19632919.4764   19632915.7144
      3005.7924
 -10451513.83249  -8125246.32846  19646206.9914   19646203.6244
      -292.7054
 04  9 14 16 48 59.9950000  0  5G 1G11G23G20G25
 -14068440.94949 -10944071.36746  19147594.5544   19147592.0814
      1040.1644
  -4782417.42248  -3712710.25844  20760343.8664   20760340.2494
     -1073.4524
 -14986532.84848 -11667006.19544  20763191.3904   20763185.8154
      3241.2344
 -23037251.41048 -17944753.60546  19624353.3744   19624349.9334
      3000.9514
 -10447021.50449  -8121745.82046  19647061.7734   19647058.3124
      -299.4894
 04  9 14 16 49 14.9950000  0  5G 1G11G23G20G25
 -14083988.52749 -10956186.37146  19144636.1014   19144633.4334
      1036.5054
  -4766229.33248  -3700096.18044  20763424.1014   20763420.8194
     -1079.2064
 -15035111.38348 -11704859.59444  20753947.1874   20753941.7964
      3238.5694
 -23082192.90648 -17979772.95746  19615801.4604   19615797.6514
      2996.1004
 -10442427.68449  -8118166.22346  19647936.3354   19647932.7734
      -306.2554
 04  9 14 16 49 29.9950000  0  5G 1G11G23G20G25
 -14099480.10548 -10968257.73446  19141688.2264   19141685.2964
      1032.7724
  -4749954.03148  -3687414.14544  20766521.3984   20766517.6124
     -1085.0204
 -15083648.69948 -11742680.86744  20744710.8044   20744705.6014
      3235.8214
 -23127060.12148 -18014734.41846  19607263.3904   19607259.9134
      2991.1484
 -10437731.37549  -8114506.76646  19648829.8194   19648826.3584
      -313.0874
 04  9 14 16 49 44.9950000  0  5G 1G11G23G20G25
 -14114917.93049 -10980287.21146  19138750.6404   19138747.4214
      1029.1884
  -4733593.92248  -3674666.01644  20769634.2414   20769630.9724
     -1090.6744
 -15132146.94549 -11780471.70344  20735482.1634   20735476.5894
      3233.2164
 -23171855.00448 -18049639.51246  19598739.3354   19598735.7924
      2986.3264
 -10432934.94549  -8110769.29347  19649742.6084   19649739.2024
      -319.7624
 04  9 14 16 49 59.9950000  0  6G 1G11G16G23G20G25
 -14130301.38748 -10992274.32046  19135823.0464   19135820.2414
      1025.5644
  -4717148.73048  -3661851.60244  20772763.9294   20772761.0264
     -1096.3464
   -152570.58257   -107778.76252  22740189.9834   22740188.2884

 -15180605.45349 -11818231.56645  20726260.9294   20726255.2374
      3230.5674
 -23216576.59848 -18084487.50846  19590229.0074   19590225.6594
      2981.4404
 -10428038.05149  -8106953.53146  19650674.5934   19650670.9954
      -326.4604
 04  9 14 16 50 14.9950000  0  6G 1G11G16G23G20G25
 -14145630.84049 -11004219.35946  19132906.3124   19132903.2304
      1021.9644
  -4700618.86748  -3648971.20344  20775909.2334   20775906.3514
     -1101.9914
   -213886.20347   -155557.11742  22728522.1554   22728520.7264
      4087.7084
 -15229024.37149 -11855960.58245  20717047.2024   20717041.8274
      3227.9284
 -23261224.95748 -18119278.43046  19581732.7884   19581729.1324
      2976.5574
 -10423041.27349  -8103059.94146  19651625.2884   19651621.7844
      -333.1184
 04  9 14 16 50 29.9950000  0  6G 1G11G16G23G20G25
 -14160907.18749 -11016123.00446  19129998.9524   19129996.2764
      1018.4234
  -4684005.32448  -3636025.59444  20779071.4914   20779067.5154
     -1107.5704
   -275192.08246   -203327.89542  22716855.5624   22716854.0694
      4087.0594
 -15277404.45348 -11893659.34045  20707840.5544   20707835.1444
      3225.3394
 -23305800.71948 -18154012.78146  19573250.0304   19573246.7304
      2971.7174
 -10417945.46149  -8099089.17646  19652594.9914   19652591.2964
      -339.7214
 04  9 14 16 50 44.9950000  0  6G 1G11G16G23G20G25
 -14176130.93749 -11027985.67646  19127102.1874   19127099.0974
      1014.9174
  -4667309.13348  -3623015.58244  20782248.1324   20782244.6634
     -1113.0794
   -336488.64847   -251091.38742  22705191.6324   22705189.9564
      4086.4384
 -15325746.30948 -11931328.30144  20698641.5154   20698635.8514
      3222.7904
 -23350303.91048 -18188690.59846  19564781.4214   19564777.8624
      2966.8794
 -10412751.32049  -8095041.79746  19653583.5624   19653580.0894
      -346.2764
 04  9 14 16 50 59.9950000  0  6G 1G11G16G23G20G25
 -14191302.75449 -11039807.87546  19124214.7104   19124212.1054
      1011.4544
  -4650531.22748  -3609941.91444  20785440.8274   20785437.3354
     -1118.5274
   -397775.91446   -298847.64842  22693528.5384   22693526.9954
      4085.8184
 -15374050.43049 -11968967.87945  20689449.5154   20689444.1554
      3220.2754
 -23394734.94548 -18223312.17646  19556326.3904   19556323.0384
      2962.0694
 -10407459.75449  -8090918.49646  19654590.0694   19654586.9764
      -352.7714
 04  9 14 16 51 14.9950000  0  6G 1G11G16G23G20G25
 -14206422.86749 -11051589.78546  19121337.5624   19121334.6404
      1008.0084
  -4633672.03548  -3596804.89544  20788649.2884   20788645.1484
     -1123.9464
   -459053.55547   -346596.40242  22681868.1874   22681866.7924
      4085.1764
 -15422316.87948 -12006578.08245  20680264.5304   20680259.2104
      3217.7634
 -23439093.75848 -18257877.49646  19547885.5074   19547881.9054
      2957.2544
 -10402071.07849  -8086719.53946  19655615.6634   19655612.2264
      -359.2454
 04  9 14 16 51 29.9950000  0  6G 1G11G16G23G20G25
 -14221491.21149 -11063331.34846  19118469.9604   19118467.5234
      1004.5564
  -4616731.71948  -3583604.64844  20791872.8664   20791868.3744
     -1129.3544
   -520321.14847   -394337.32442  22670209.6014   22670207.3124
      4084.5064
 -15470545.62148 -12044158.90245  20671086.6244   20671081.5304
      3215.2494
 -23483379.95349 -18292386.22746  19539458.3274   19539454.3084
      2952.4134
 -10396585.40649  -8082444.98846  19656659.6404   19656656.1444
      -365.7114
 04  9 14 16 51 44.9950000  0  6G 1G11G16G23G20G25
 -14236507.51648 -11075032.36346  19115612.7264   19115609.8744
      1001.0874
  -4599710.15648  -3570341.10244  20795111.9374   20795108.3004
     -1134.7714
   -581578.00447   -442069.89842  22658552.4374   22658550.7844
      4083.7904
 -15518736.25048 -12081710.03944  20661916.7734   20661911.0344
      3212.7094
 -23527593.02048 -18326837.96146  19531044.5304   19531040.8004
      2947.5384
 -10391002.64149  -8078094.78146  19657721.9294   19657718.3474
      -372.1844
 04  9 14 16 51 59.9950000  0  6G 1G11G16G23G20G25
 -14251471.80149 -11086692.85246  19112765.1484   19112762.4724
       997.6194
  -4582607.68048  -3557014.51244  20798366.3274   20798362.9644
     -1140.1654
   -642823.56647   -489793.67242  22646897.7884   22646895.3984
      4083.0384
 -15566888.52748 -12119231.25844  20652753.5304   20652747.4914
      3210.1524
 -23571732.53549 -18361232.38746  19522644.9524   19522641.1634
      2942.6344
 -10385323.05549  -8073669.14146  19658802.7184   19658799.4444
      -378.6394
 04  9 14 16 52 14.9950000  0  6G 1G11G16G23G20G25
 -14266383.97749 -11098312.73046  19109927.2334   19109924.7224
       994.1454
  -4565424.49249  -3543625.02744  20801636.1794   20801632.4724
     -1145.5464
   -704057.43447   -537508.30542  22635245.6944   22635243.1794
      4082.2584
 -15615002.35249 -12156722.54344  20643597.6554   20643592.0774
      3207.5884
 -23615798.04349 -18395569.15246  19514259.8514   19514256.3234
      2937.7014
 -10379546.59849  -8069167.99646  19659901.7574   19659898.5694
      -385.0974
 04  9 14 16 52 29.9950000  0  6G 1G11G16G23G20G25
 -14281244.73849 -11109892.54746  19107099.5234   19107096.8084
       990.7174
  -4548161.53148  -3530173.38744  20804920.9764   20804917.7614
     -1150.8644
   -765279.68447   -585213.91042  22623595.3194   22623592.9444
      4081.4834
 -15663078.35548 -12194184.35544  20634449.1404   20634443.4134
      3205.0674
 -23659789.98449 -18429848.58646  19505888.3664   19505884.9604
      2932.7964
 -10373674.07449  -8064592.00846  19661019.5384   19661015.8354
      -391.5024
 04  9 14 16 52 44.9950000  0  6G 1G11G16G23G20G25
 -14296053.93449 -11121432.18046  19104281.6874   19104278.8904
       987.2804
  -4530818.76649  -3516659.56244  20808221.4294   20808217.7414
     -1156.1844
   -826489.73047   -632910.00042  22611947.1014   22611944.4804
      4080.6704
 -15711116.29348 -12231616.49244  20625307.4524   20625302.1124
      3202.5294
 -23703707.77749 -18464070.23046  19497531.0154   19497527.4174
      2927.8534
 -10367705.39849  -8059941.10246  19662155.0774   19662152.0624
      -397.9124
 04  9 14 16 52 59.9950000  0  6G 1G11G16G23G20G25
 -14310810.78949 -11132931.03146  19101473.3124   19101470.5074
       983.7904
  -4513395.56248  -3503083.05944  20811537.4054   20811533.6244
     -1161.5474
   -887686.46947   -680595.69142  22600301.8514   22600299.4834
      4079.7834
 -15759115.24248 -12269018.25844  20616173.8584   20616168.1794
      3199.9304
 -23747550.44549 -18498233.34446  19489187.6484   19489184.2264
      2922.8454
 -10361640.20749  -8055214.98446  19663309.4764   19663305.7334
      -404.3464
 04  9 14 16 53 14.9950000  0  6G 1G11G16G23G20G25
 -14325516.61349 -11144390.12146  19098674.8664   19098672.1634
       980.3884
  -4495893.68448  -3489445.24244  20814867.7964   20814863.8664
     -1166.7924
   -948870.72746   -728271.71142  22588658.7104   22588656.6444
      4078.9514
 -15807076.48848 -12306390.66444  20607046.9054   20607041.7334
      3197.4164
 -23791318.88349 -18532338.61346  19480859.0154   19480855.6634
      2917.8964
 -10355479.98449  -8050414.80546  19664481.5464   19664478.3154
      -410.6824
 04  9 14 16 53 29.9950000  0  6G 1G11G16G23G20G25
 -14340170.55949 -11155808.77346  19095886.2804   19095883.6324
       976.9304
  -4478312.50848  -3475745.63344  20818213.4604   20818209.4134
     -1172.0784
  -1010041.13347   -775936.91042  22577018.8584   22577016.7764
      4078.0274
 -15854999.08248 -12343732.92244  20597927.7494   20597922.0424
      3194.8404
 -23835012.04749 -18566385.23046  19472544.4054   19472541.2304
      2912.8784
 -10349224.04749  -8045540.05546  19665672.1084   19665669.0424
      -417.0624
 04  9 14 16 53 44.9950000  0  6G 1G11G16G23G20G25
 -14354772.53149 -11167186.94146  19093107.4914   19093104.8784
       973.4654
  -4460652.17648  -3461984.35244  20821573.8274   20821570.3474
     -1177.3554
  -1071197.10247   -823590.87942  22565381.0074   22565379.1594
      4077.0654
 -15902882.78948 -12381044.88344  20588815.5934   20588810.0734
      3192.2474
 -23878629.50449 -18600372.85246  19464244.5544   19464241.0194
      2907.8304
 -10342872.29749  -8040590.64546  19666880.6794   19666877.5814
      -423.4504
 04  9 14 16 53 59.9950000  0  6G 1G11G16G23G20G25
 -14369322.88749 -11178524.88746  19090338.8664   19090335.9804
       970.0244
  -4442913.23848  -3448161.83644  20824949.3664   20824945.7804
     -1182.5964
  -1132338.64847   -871233.59042  22553745.7334   22553743.5734
      4076.1034
 -15950727.86748 -12418326.76244  20579711.1324   20579705.3554
      3189.6724
 -23922171.25849 -18634301.49646  19455959.0154   19455955.3824
      2902.7844
 -10336425.31249  -8035567.02346  19668107.2184   19668104.3584
      -429.7994
 04  9 14 16 54 14.9950000  0  6G 1G11G16G23G20G25
 -14383822.28549 -11189823.11746  19087579.7104   19087576.6634
       966.6274
  -4425096.69548  -3434278.82844  20828340.0774   20828336.5234
     -1187.7704
  -1193465.88347   -918865.16042  22542114.3984   22542111.0034
      4075.1494
 -15998534.91048 -12455578.98844  20570613.7104   20570607.9524
      3187.1364
 -23965637.57449 -18668171.34846  19447687.6484   19447683.6014
      2897.7544
 -10329883.92649  -8030469.84446  19669352.2494   19669349.1164
      -436.0924
 04  9 14 16 54 29.9950000  0  6G 1G11G16G23G20G25
 -14398269.67249 -11201080.82446  19084830.1164   19084827.7304
       963.1594
  -4407201.68748  -3420334.68744  20831745.0234   20831741.7104
     -1193.0014
  -1254577.30547   -966484.42242  22530484.6014   22530482.1204
      4074.0954
 -16046302.78949 -12492800.71144  20561523.8984   20561518.3624
      3184.5254
 -24009027.11349 -18701981.37546  19439430.7184   19439426.9404
      2892.6364
 -10323247.26249  -8025298.41846  19670615.2414   19670612.3664
      -442.4444
 04  9 14 16 54 44.9950000  0  6G 1G11G16G23G20G25
 -14412666.68049 -11212299.27346  19082090.7884   19082088.0734
       959.8014
  -4389230.16048  -3406330.91444  20835165.0384   20835161.6904
     -1198.1024
  -1315674.18447  -1014092.34042  22518858.1944   22518856.2804
      4073.1254
 -16094033.05949 -12529993.11744  20552440.9294   20552435.0344
      3182.0184
 -24052341.13749 -18735732.56246  19431188.4764   19431184.7414
      2887.6024
 -10316517.15649  -8020054.18446  19671895.8434   19671893.3514
      -448.6744
 04  9 14 16 54 59.9950000  0  6G 1G11G16G23G20G25
 -14427013.63349 -11223478.71946  19079360.5774   19079358.1514
       956.4644
  -4371182.52748  -3392267.83244  20838599.5774   20838596.4684
     -1203.1764
  -1376756.33247  -1061688.77042  22507234.5074   22507232.7304
      4072.1434
 -16141725.88749 -12567156.35944  20543365.4134   20543359.6984
      3179.5224
 -24095579.69949 -18769424.94946  19422960.0934   19422956.4174
      2882.5714
 -10309694.13349  -8014737.53946  19673194.2264   19673191.4094
      -454.8684
 04  9 14 16 55 14.9950000  0  6G 1G11G16G23G20G25
 -14441309.60249 -11234618.43446  19076640.2494   19076637.5304
       953.0654
  -4353057.93448  -3378144.80144  20842048.2334   20842045.2764
     -1208.3064
  -1437822.35947  -1109272.64842  22495613.8664   22495611.8234
      4071.0684
 -16189380.21148 -12604289.59444  20534296.8744   20534291.4914
      3176.9554
 -24138741.45749 -18803057.47746  19414746.7964   19414742.9134
      2877.4514
 -10302777.27349  -8009347.78946  19674510.5774   19674507.4764
      -461.1244
 04  9 14 16 55 29.9950000  0  6G 1G11G16G23G20G25
 -14455554.54749 -11245718.39546  19073929.4994   19073927.0194
       949.6634
  -4334857.00448  -3363962.27744  20845511.8434   20845508.4174
     -1213.3954
  -1498871.76647  -1156843.56642  22483997.2654   22483994.9294
      4069.9604
 -16236995.91048 -12641392.72744  20525235.7414   20525230.2614
      3174.3804
 -24181826.14549 -18836629.95746  19406547.8824   19406544.2104
      2872.3134
 -10295766.79349  -8003885.07846  19675844.5774   19675841.2964
      -467.3654
 04  9 14 16 55 44.9950000  0  6G 1G11G16G23G20G25
 -14469748.42249 -11256778.55946  19071228.4294   19071225.9334
       946.2584
  -4316579.83648  -3349720.34044  20848990.1324   20848987.2144
     -1218.4784
  -1559904.03947  -1204401.15242  22472382.2184   22472380.7494
      4068.8184
 -16284572.76649 -12678465.59044  20516182.8274   20516176.9404
      3171.7904
 -24224833.36349 -18870142.07046  19398363.9994   19398360.1514
      2867.1484
 -10288662.70749  -7998349.43046  19677196.3744   19677193.1324
      -473.6064
 04  9 14 16 55 59.9950000  0  6G 1G11G16G23G20G25
 -14483891.72749 -11267799.32046  19068537.1714   19068534.6204
       942.8874
  -4298227.15648  -3335419.57044  20852482.4524   20852479.1444
     -1223.5124
  -1620919.20747  -1251945.37142  22460771.6554   22460769.7144
      4067.6784
 -16332111.42648 -12715508.69144  20507135.8194   20507130.8154
      3169.2444
 -24267763.28149 -18903593.94145  19390194.4214   19390190.8584
      2861.9954
 -10281465.80549  -7992741.46146  19678565.9134   19678562.9874
      -479.7934
 04  9 14 16 56 14.9950000  0  6G 1G11G16G23G20G25
 -14497984.68749 -11278780.85246  19065855.2884   19065852.3154
       939.5314
  -4279799.38348  -3321060.28544  20855989.3824   20855985.6244
     -1228.5184
  -1681917.12947  -1299476.20742  22449164.4994   22449162.3784
      4066.5284
 -16379611.93749 -12752522.06644  20498097.1244   20498091.6054
      3166.7014
 -24310615.82449 -18936985.53146  19382040.0694   19382036.5074
      2856.8364
 -10274176.51249  -7987061.49646  19679953.1484   19679950.1794
      -485.9534
 04  9 14 16 56 29.9950000  0  6G 1G11G16G23G20G25
 -14512027.79349 -11289723.53146  19063182.9604   19063180.2964
       936.2074
  -4261297.20348  -3306643.02044  20859509.9604   20859507.1404
     -1233.4794
  -1742897.68747  -1346993.46142  22437559.6484   22437558.2064
      4065.3714
 -16427074.56648 -12789505.92244  20489065.1714   20489059.8864
      3164.1754
 -24353391.12149 -18970316.93046  19373900.0074   19373896.6554
      2851.6864
 -10266795.52749  -7981310.09046  19681357.7184   19681354.7334
      -492.0664
 04  9 14 16 56 44.9950000  0  6G 1G11G16G23G20G25
 -14526020.41049 -11300626.87546  19060520.4604   19060517.4134
       932.8414
  -4242720.48848  -3292167.66844  20863044.5154   20863041.6244
     -1238.4484
  -1803859.86746  -1394496.40242  22425959.3044   22425957.8554
      4064.1454
 -16474498.65648 -12826459.73444  20480040.4444   20480035.3784
      3161.6064
 -24396088.32849 -19003587.46946  19365775.5694   19365771.5624
      2846.4804
 -10259322.29749  -7975486.80546  19682779.8274   19682776.7184
      -498.2154
 04  9 14 16 56 59.9950000  0  6G 1G11G16G23G20G25
 -14539963.44549 -11311491.57046  19057867.0304   19057864.3274
       929.5364
  -4224070.10248  -3277634.91444  20866594.2104   20866590.4684
     -1243.3594
  -1864804.10946  -1441985.39542  22414361.4214   22414359.7024
      4062.9494
 -16521885.09448 -12863384.22744  20471023.3434   20471017.8704
      3159.0964
 -24438707.94149 -19036797.55546  19357665.2964   19357661.5974
      2841.3084
 -10251757.79749  -7969592.39146  19684219.4444   19684216.1904
      -504.3004
 04  9 14 16 57 14.9950000  0  6G 1G11G16G23G20G25
 -14553857.22349 -11322317.89846  19055223.1164   19055220.0544
       926.2524
  -4205346.75848  -3263045.31244  20870157.3194   20870154.0934
     -1248.2234
  -1925730.33247  -1489460.33242  22402768.0304   22402765.2224
      4061.7484
 -16569233.99648 -12900279.46144  20462013.1874   20462007.6794
      3156.5934
 -24481250.05149 -19069947.24646  19349569.6084   19349565.5234
      2836.1414
 -10244102.62149  -7963627.32046  19685676.0934   19685672.8044
      -510.3454
 04  9 14 16 57 29.9950000  0  6G 1G11G16G23G20G25
 -14567701.39849 -11333105.57847  19052588.5624   19052586.0234
       922.9454
  -4186550.30148  -3248398.74244  20873733.6324   20873730.4874
     -1253.0974
  -1986637.62947  -1536920.51642  22391177.2574   22391176.0344
      4060.4864
 -16616544.89848 -12937145.08645  20453010.3584   20453005.0584
      3154.0604
 -24523713.75449 -19103035.85246  19341488.8744   19341485.3154
      2830.9144
 -10236356.67649  -7957591.51646  19687149.9764   19687146.7454
      -516.3964
 04  9 14 16 57 44.9950000  0  6G 1G11G16G23G20G25
 -14581495.11349 -11343853.92646  19049963.6554   19049960.9484
       919.5814
  -4167680.24248  -3233694.81244  20877324.5854   20877321.1594
     -1258.0044
  -2047524.71547  -1584364.95742  22379591.2884   22379589.9914
      4059.1394
 -16663817.00848 -12973980.48445  20444014.6404   20444009.0114
      3151.4744
 -24566098.03549 -19136062.56246  19333423.5464   19333419.5154
      2825.6194
 -10228519.09849  -7951484.32046  19688641.4994   19688638.2064
      -522.5054
 04  9 14 16 57 59.9950000  0  6G 1G11G16G23G20G25
 -14595239.40249 -11354563.76246  19047348.6554   19047345.8194
       916.2864
  -4148737.78148  -3218934.48844  20880929.7734   20880925.8234
     -1262.8314
  -2108392.14847  -1631794.10242  22368008.7264   22368006.6594
      4057.8294
 -16711051.09448 -13010786.24245  20435026.5154   20435020.5464
      3148.9394
 -24608403.55949 -19169027.90646  19325373.0304   19325369.1484
      2820.3684
 -10220591.24249  -7945306.77746  19690150.2414   19690146.8234
      -528.5244
 04  9 14 16 58 14.9950000  0  6G 1G11G16G23G20G25
 -14608934.68449 -11365235.41046  19044742.2334   19044739.3944
       913.0194
  -4129723.60948  -3204118.26644  20884547.3904   20884544.6084
     -1267.6114
  -2169239.92247  -1679207.91042  22356429.8274   22356427.6514
      4056.5184
 -16758247.49248 -13047562.63745  20426045.0384   20426039.6014
      3146.4274
 -24650630.35549 -19201931.89846  19317337.7184   19317333.4604
      2815.1204
 -10212573.55949  -7939059.24246  19691675.9294   19691672.3744
      -534.5124
 04  9 14 16 58 29.9950000  0  6G 1G11G16G23G20G25
 -14622580.76249 -11375868.71547  19042145.7654   19042142.9764
       909.7394
  -4110637.84048  -3189246.24644  20888179.2964   20888175.9444
     -1272.3854
  -2230067.37147  -1726605.90642  22344854.2264   22344852.7104
      4055.1634
 -16805406.00849 -13084309.52045  20417071.3904   20417065.8154
      3143.9014
 -24692778.16449 -19234774.34446  19309317.0774   19309312.9994
      2809.8544
 -10204466.27049  -7932741.86746  19693218.4994   19693215.2614
      -540.4864
 04  9 14 16 58 44.9950000  0  6G 1G11G16G23G20G25
 -14636177.18049 -11386463.32847  19039557.9994   19039555.4914
       906.4284
  -4091480.22348  -3174318.25044  20891825.1014   20891822.0154
     -1277.1744
  -2290873.58247  -1773987.34842  22333283.8124   22333280.8584
      4053.7474
 -16852526.10249 -13121026.46945  20408104.5464   20408098.9524
      3141.3404
 -24734846.04749 -19267554.50846  19301311.7184   19301307.9374
      2804.5264
 -10196269.06649  -7926354.43746  19694778.4914   19694774.9404
      -546.4804
 04  9 14 16 58 59.9950000  0  6G 1G11G16G23G20G25
 -14649724.28149 -11397019.52346  19036980.4604   19036977.5774
       903.1404
  -4072251.39548  -3159334.76244  20895484.1714   20895480.7964
     -1281.9224
  -2351658.65647  -1821352.30942  22321716.4684   22321714.3664
      4052.3384
 -16899607.91849 -13157713.58245  20399145.2264   20399139.5234
      3138.7884
 -24776834.13749 -19300272.49646  19293321.6324   19293318.0504
      2799.2064
 -10187982.31249  -7919897.23846  19696355.5624   19696352.4874
      -552.4504
 04  9 14 16 59 14.9950000  0  6G 1G11G16G23G20G25
 -14663221.12949 -11407536.55546  19034412.1164   19034409.0304
       899.7904
  -4052950.68448  -3144295.27044  20899157.1404   20899153.8274
     -1286.7144
  -2412420.96146  -1868699.50042  22310153.2334   22310151.7964
      4050.8204
 -16946650.50449 -13194370.12545  20390192.6634   20390187.5384
      3136.1724
 -24818740.97749 -19332927.18046  19285347.4054   19285343.3004
      2793.7894
 -10179605.23049  -7913369.64146  19697949.7804   19697946.3944
      -558.4724
 04  9 14 16 59 29.9950000  0  6G 1G11G16G23G20G25
 -14676668.73049 -11418015.19946  19031853.0384   19031849.8004
       896.5074
  -4033579.31648  -3129200.71944  20902843.6634   20902840.5384
     -1291.4244
  -2473161.15646  -1916029.50442  22298594.9684   22298592.9134
      4049.3464
 -16993654.80948 -13230996.84844  20381248.4604   20381242.7694
      3133.6204
 -24860567.32849 -19365519.13346  19277387.8514   19277383.9014
      2788.4234
 -10171139.09049  -7906772.66046  19699560.7334   19699557.2024
      -564.4094
 04  9 14 16 59 44.9950000  0  6G 1G11G16G23G20G25
 -14690066.01249 -11428454.63746  19029303.4914   19029300.7844
       893.1524
  -4014136.51248  -3114050.50444  20906543.1324   20906540.2534
     -1296.1874
  -2533877.66046  -1963341.05942  22287041.1164   22287039.1754
      4047.7674
 -17040619.63349 -13267592.80945  20372311.5624   20372305.8624
      3130.9884
 -24902311.84049 -19398047.32046  19269444.3274   19269440.3584
      2782.9674
 -10162582.93449  -7900105.52346  19701188.7264   19701185.8474
      -570.4104
 04  9 14 16 59 59.9950000  0  6G 1G11G16G23G20G25
 -14703413.26649 -11438855.09846  19026763.9134   19026760.9834
       889.8174
  -3994622.82449  -3098845.04344  20910256.4994   20910253.4484
     -1300.9124
  -2594570.36747  -2010634.05542  22275491.7264   22275489.5264
      4046.1804
 -17087545.13349 -13304158.12945  20363382.1244   20363376.1324
      3128.3674
 -24943974.55549 -19430511.77346  19261516.0544   19261512.3234
      2777.5144
 -10153937.34049  -7893368.70746  19702834.0464   19702830.8004
      -576.3734
 04  9 14 17  0 14.9950000  0  6G 1G11G16G23G20G25
 -14716710.96949 -11449216.94546  19024233.1554   19024230.3904
       886.5144
  -3975038.98848  -3083584.91844  20913983.2414   20913980.2694
     -1305.5894
  -2655239.17647  -2057908.41842  22263946.2414   22263944.6244
      4044.5874
 -17134431.71149 -13340693.10245  20354459.9294   20354453.8944
      3125.7724
 -24985555.55949 -19462912.54746  19253603.3824   19253599.9834
      2772.0674
 -10145203.06249  -7886562.78546  19704496.0694   19704493.1984
      -582.2854
 04  9 14 17  0 29.9950000  0  6G 1G11G16G23G20G25
 -14729959.69149 -11459540.62546  19021712.0774   19021709.4254
       883.2484
  -3955385.94948  -3068270.86343  20917723.0234   20917719.9874
     -1310.2034
  -2715884.28147  -2105164.28542  22252406.6404   22252404.4564
      4043.0074
 -17181279.83649 -13377198.12945  20345544.4834   20345539.1984
      3123.2084
 -25027055.09849 -19495249.85546  19245706.5234   19245702.5424
      2766.6364
 -10136380.64849  -7879688.17646  19706175.1244   19706171.9874
      -588.1614
 04  9 14 17  0 44.9950000  0  6G 1G11G16G23G20G25
 -14743159.03949 -11469825.83646  19019200.1244   19019197.8274
       879.9574
  -3935663.35248  -3052902.63344  20921476.0304   20921472.8004
     -1314.8404
  -2776504.79347  -2152401.02342  22240870.6324   22240869.1944
      4041.3674
 -17228089.13749 -13413672.90245  20336637.1714   20336631.0344
      3120.6204
 -25068472.42649 -19527523.09046  19237824.6324   19237821.5304
      2761.1554
 -10127469.93449  -7872744.77346  19707870.6944   19707867.2184
      -594.0484
 04  9 14 17  0 59.9950000  0  6G 1G11G16G23G20G25
 -14756309.68749 -11480073.09846  19016697.7964   19016695.3044
       876.7104
  -3915872.30148  -3037481.05944  20925242.3514   20925239.5774
     -1319.4034
  -2837100.86747  -2199618.70342  22229339.4054   22229337.4254
      4039.7384
 -17274860.12949 -13450117.82444  20327736.8124   20327731.2224
      3118.0664
 -25109807.96949 -19559732.59846  19229958.8584   19229955.3864
      2755.7034
 -10118471.69549  -7865733.16046  19709583.1164   19709579.7414
      -599.8834
 04  9 14 17  1 14.9950000  0  6G 1G11G16G23G20G25
 -14769411.96149 -11490282.66446  19014204.5464   19014201.9444
       873.4854
  -3896013.33248  -3022006.55143  20929021.1714   20929017.9444
     -1323.9314
  -2897672.43747  -2246817.27742  22217813.0384   22217810.8664
      4038.1054
 -17321592.99649 -13486533.03144  20318843.9134   20318838.2184
      3115.5244
 -25151061.64549 -19591878.31246  19222108.3514   19222104.8584
      2750.2454
 -10109386.49249  -7858653.79746  19711311.9134   19711308.8554
      -605.6804
 04  9 14 17  1 29.9950000  0  6G 1G11G16G23G20G25
 -14782466.15649 -11500454.76246  19011720.1484   19011717.8044
       870.2804
  -3876086.98048  -3006479.53943  20932813.2334   20932809.8824
     -1328.4234
  -2958219.41047  -2293996.70742  22206291.6714   22206288.9134
      4036.4654
 -17368287.90648 -13522918.66445  20309958.2104   20309952.6014
      3112.9944
 -25192233.52049 -19623960.28946  19214274.1714   19214270.4014
      2744.7924
 -10100214.90249  -7851507.10246  19713057.2264   19713053.8904
      -611.4394
 04  9 14 17  1 44.9950000  0  6G 1G11G16G23G20G25
 -14795471.57049 -11510588.85246  19009245.4764   19009243.2334
       867.0284
  -3856092.78548  -2990899.66443  20936617.5384   20936614.6514
     -1332.9464
  -3018740.62147  -2341156.05142  22194774.4914   22194771.7694
      4034.7474
 -17414944.13349 -13559274.15244  20301079.6404   20301073.9174
      3110.4154
 -25233322.53149 -19655977.69946  19206455.2184   19206451.6164
      2739.2674
 -10090956.32849  -7844292.63746  19714818.7654   19714815.7104
      -617.2384
 04  9 14 17  1 59.9950000  0  6G 1G11G16G23G20G25
 -14808428.02749 -11520684.78946  19006780.0464   19006777.4684
       863.7644
  -3836030.87148  -2975267.02744  20940435.0464   20940432.7224
     -1337.4614
  -3079235.38346  -2388294.77742  22183262.0234   22183259.7884
      4032.9844
 -17461561.44949 -13595599.31644  20292208.8744   20292202.8554
      3107.8214
 -25274328.17249 -19687930.14146  19198651.9214   19198648.5194
      2733.7094
 -10081610.85549  -7837010.44946  19716597.3434   19716594.3004
      -623.0324
 04  9 14 17  2 14.9950000  0  6G 1G11G16G23G20G25
 -14821335.75849 -11530742.75846  19004323.7024   19004321.0894
       860.5154
  -3815901.73448  -2959582.01644  20944266.3354   20944263.4684
     -1341.9424
  -3139703.48046  -2435412.74642  22171755.5854   22171753.3704
      4031.2074
 -17508139.93449 -13631894.23045  20283345.2884   20283338.9684
      3105.2324
 -25315250.33249 -19719817.53946  19190864.7654   19190861.1244
      2728.1444
 -10072178.77049  -7829660.78146  19718392.3434   19718389.1244
      -628.8064
 04  9 14 17  2 29.9950000  0  6G 1G11G16G23G20G25
 -14834194.95749 -11540762.91846  19001876.5544   19001874.3984
       857.2804
  -3795706.00848  -2943845.10244  20948109.2024   20948106.0854
     -1346.3824
  -3200144.65646  -2482509.72342  22160253.7264   22160251.2734
      4029.4124
 -17554679.71949 -13668158.98845  20274488.8044   20274482.9564
      3102.6524
 -25356088.93749 -19751639.82446  19183093.2884   19183089.8044
      2722.5744
 -10062660.70749  -7822244.11746  19720203.7494   19720200.5074
      -634.5374
 04  9 14 17  2 44.9950000  0  6G 1G11G16G23G20G25
 -14847004.54349 -11550744.40646  18999439.0694   18999436.2534
       853.9724
  -3775442.77748  -2928055.59044  20951965.3274   20951962.0814
     -1350.8824
  -3260557.46146  -2529584.61342  22148757.8904   22148755.9994
      4027.5204
 -17601179.53149 -13704392.59845  20265640.3664   20265634.3154
      3099.9884
 -25396842.69949 -19783396.00446  19175338.1554   19175334.2024
      2716.9174
 -10053055.59849  -7814759.62146  19722031.1874   19722028.3624
      -640.3414
 04  9 14 17  2 59.9950000  0  6G 1G11G16G23G20G25
 -14859764.34849 -11560687.11346  18997010.9524   18997008.0894
       850.6544
  -3755112.00448  -2912213.44544  20955834.2494   20955831.2414
     -1355.3854
  -3320941.08646  -2576636.72342  22137266.9134   22137264.6984
      4025.5754
 -17647639.23849 -13740594.96145  20256799.4374   20256793.2224
      3097.3144
 -25437511.07849 -19815085.64846  19167598.9914   19167595.2924
      2711.2254
 -10043363.38349  -7807207.25846  19723875.5544   19723872.3704
      -646.1484
 04  9 14 17  3 14.9950000  0  6G 1G11G16G23G20G25
 -14872476.43049 -11570592.62946  18994591.6404   18994589.0154
       847.4724
  -3734716.10948  -2896320.56644  20959715.6944   20959712.6324
     -1359.7264
  -3381297.19147  -2623667.43042  22125782.0154   22125779.3584
      4023.7404
 -17694060.82049 -13776767.60545  20247965.6714   20247959.0894
      3094.7724
 -25478095.76649 -19846710.07446  19159876.0464   19159872.4994
      2705.6464
 -10033586.37149  -7799588.81646  19725736.3274   19725733.1444
      -651.8014
 04  9 14 17  3 29.9950000  0  6G 1G11G16G23G20G25
 -14885140.21149 -11580460.51246  18992181.8664   18992178.9954
       844.2524
  -3714254.65248  -2880376.59044  20963609.1714   20963606.2964
     -1364.0974
  -3441624.74647  -2670675.87542  22114301.7184   22114299.5384
      4021.8374
 -17740443.48449 -13812909.93045  20239139.2024   20239133.1284
      3092.1784
 -25518595.81649 -19878268.55146  19152169.5544   19152165.6904
      2700.0034
 -10023724.26249  -7791904.05146  19727612.9374   19727609.8234
      -657.4744
 04  9 14 17  3 44.9950000  0  6G 1G11G16G23G20G25
 -14897756.37949 -11590291.28946  18989781.0464   18989778.0584
       841.0784
  -3693728.49248  -2864382.19944  20967515.3824   20967511.8864
     -1368.4114
  -3501923.97347  -2717662.27042  22102827.8984   22102825.1244
      4019.9484
 -17786787.88349 -13849022.44945  20230320.7654   20230314.2964
      3089.6274
 -25559011.63749 -19909761.39546  19144478.2494   19144474.8194
      2694.3884
 -10013777.66849  -7784153.46546  19729505.5694   19729502.5584
      -663.1064
 04  9 14 17  3 59.9950000  0  6G 1G11G16G23G20G25
 -14910323.45349 -11600083.82446  18987389.4684   18987386.6674
       837.8054
  -3673136.81248  -2848336.77044  20971433.7184   20971430.4094
     -1372.7794
  -3562193.13347  -2764625.19942  22091358.6714   22091355.9604
      4017.9444
 -17833092.44949 -13885103.92645  20221508.8664   20221502.1404
      3086.9714
 -25599341.55149 -19941187.30146  19136803.6244   19136800.0034
      2688.6614
 -10003745.45349  -7776336.16446  19731414.8664   19731411.6874
      -668.8144
 04  9 14 17  4 14.9950000  0  6G 1G11G16G23G20G25
 -14922842.91449 -11609839.25046  18985007.3434   18985004.2884
       834.6314
  -3652481.37948  -2832241.64144  20975363.9214   20975361.4254
     -1377.0294
  -3622433.03947  -2811565.34842  22079895.3584   22079892.9834
      4015.9944
 -17879358.50449 -13921155.38745  20212704.9524   20212698.5974
      3084.4044
 -25639586.60949 -19972547.08646  19129145.2264   19129141.7694
      2683.0044
  -9993629.30949  -7768453.46146  19733339.7264   19733336.4524
      -674.4104
 04  9 14 17  4 29.9950000  0  6G 1G11G16G23G20G25
 -14935313.28149 -11619556.42246  18982634.7414   18982631.5384
       831.3584
  -3631760.75448  -2816095.73044  20979307.5074   20979304.2494
     -1381.3754
  -3682641.85547  -2858481.27042  22068438.1084   22068435.9254
      4013.9214
 -17925584.55549 -13957175.68445  20203908.2414   20203902.0504
      3081.7374
 -25679745.02049 -20003839.34446  19121503.5234   19121500.1944
      2677.2274
  -9983428.00449  -7760504.39146  19735281.3744   19735277.8824
      -680.0874
 04  9 14 17  4 44.9950000  0  6G 1G11G16G23G20G25
 -14947736.00849 -11629236.47346  18980270.4994   18980267.3984
       828.1824
  -3610976.67248  -2799900.36344  20983262.5854   20983259.4174
     -1385.6054
  -3742820.57047  -2905373.75442  22056986.2654   22056984.3194
      4011.9144
 -17971771.98449 -13993165.87145  20195119.0694   20195112.9444
      3079.1624
 -25719818.01649 -20035065.06246  19113877.9374   19113874.4444
      2671.5334
  -9973143.07449  -7752490.17646  19737238.2964   19737234.6484
      -685.6624
 04  9 14 17  4 59.9950000  0  6G 1G11G16G23G20G25
 -14960110.53949 -11638878.96146  18977915.7964   18977913.0154
       824.9694
  -3590128.94148  -2783655.39544  20987229.5384   20987226.3744
     -1389.8494
  -3802968.09847  -2952241.91042  22045540.5384   22045538.3984
      4009.8354
 -18017920.13748 -14029125.46545  20186337.1244   20186331.8394
      3076.5434
 -25759804.53149 -20066223.38346  19106268.5694   19106265.1124
      2665.7684
  -9962774.13749  -7744410.48046  19739211.5384   19739208.1084
      -691.2624
 04  9 14 17  5 14.9950000  0  6G 1G11G16G23G20G25
 -14972437.15249 -11648484.12146  18975569.9134   18975567.1054
       821.7744
  -3569217.91448  -2767361.10243  20991209.0854   20991205.7184
     -1394.0684
  -3863084.13747  -2999085.59442  22034100.5074   22034097.6754
      4007.7364
 -18064029.10948 -14065054.53144  20177563.0464   20177557.1904
      3073.9324
 -25799704.65649 -20097314.39146  19098675.9914   19098672.4374
      2660.0084
  -9952321.76249  -7736265.77746  19741200.6244   19741196.9644
      -696.8254
 04  9 14 17  5 29.9950000  0  6G 1G11G16G23G20G25
 -14984716.24249 -11658052.23846  18973232.9994   18973230.3154
       818.6064
  -3548244.32848  -2751018.07444  20995199.9994   20995196.8514
     -1398.2394
  -3923168.83647  -3045904.82842  22022667.1554   22022664.1634
      4005.6474
 -18110099.28148 -14100953.35245  20168796.1554   20168790.1244
      3071.3454
 -25839518.44149 -20128338.10946  19091099.6014   19091096.0344
      2654.2524
  -9941786.44149  -7728056.43746  19743205.3514   19743202.0264
      -702.3554
 04  9 14 17  5 44.9950000  0  6G 1G11G16G23G20G25
 -14996946.50049 -11667582.31246  18970905.7654   18970903.2654
       815.3514
  -3527207.35248  -2734625.63744  20999202.9214   20999199.8084
     -1402.4654
  -3983220.34847  -3092698.20742  22011239.7264   22011237.4334
      4003.4344
 -18156129.25848 -14136820.84845  20160036.9524   20160031.5384
      3068.6654
 -25879244.35249 -20159293.36346  19083539.9604   19083536.3584
      2648.3944
  -9931167.18749  -7719781.70346  19745226.2494   19745222.1594
      -707.9504
 04  9 14 17  5 59.9950000  0  6G 1G11G16G23G20G25
 -15009129.77349 -11677075.77346  18968587.5384   18968584.9644
       812.2184
  -3506108.95348  -2718185.35543  21003217.7654   21003214.4254
     -1406.5604
  -4043240.08647  -3139466.82442  21999817.5854   21999816.7694
      4001.3164
 -18202120.78149 -14172658.38745  20151284.5774   20151279.0234
      3066.1024
 -25918883.84849 -20190181.27746  19075996.8514   19075993.0344
      2642.6334
  -9920466.03549  -7711443.14846  19747262.2654   19747258.7964
      -713.4104
 04  9 14 17  6 14.9950000  0  6G 1G11G16G23G20G25
 -15021265.57849 -11686532.24246  18966278.0544   18966275.3904
       809.0544
  -3484948.94948  -2701697.05944  21007244.3664   21007241.4484
     -1410.6674
  -4103227.18047  -3186209.98842  21988403.0154   21988401.5344
      3999.1404
 -18248073.21148 -14208465.46545  20142540.4764   20142535.1364
      3063.4954
 -25958436.21149 -20221001.29746  19068470.4214   19068466.6594
      2636.8244
  -9909682.60949  -7703040.48046  19749314.0854   19749311.0304
      -718.8954
 04  9 14 17  6 29.9950000  0  6G 1G11G16G23G20G25
 -15033354.23049 -11695951.97346  18963977.8824   18963975.1634
       805.9104
  -3463727.89548  -2685161.19944  21011282.9294   21011279.7884
     -1414.7374
  -4163181.41047  -3232927.55942  21976993.9134   21976991.9604
      3996.9494
 -18293986.83649 -14244242.30545  20133803.4294   20133798.1404
      3060.9084
 -25997901.43049 -20251753.41846  19060960.4374   19060956.6594
      2631.0154
  -9898817.43049  -7694574.11346  19751381.8124   19751378.4484
      -724.3454
 04  9 14 17  6 44.9950000  0  6G 1G11G16G23G20G25
 -15045394.39849 -11705333.91846  18961686.5624   18961683.8944
       802.6784
  -3442444.82448  -2668576.99644  21015332.8514   21015329.7694
     -1418.8714
  -4223101.03546  -3279618.13342  21965591.0544   21965589.7144
      3994.6424
 -18339860.37948 -14279987.91445  20125073.8274   20125068.5114
      3058.2364
 -26037277.96149 -20282436.41846  19053467.1014   19053463.7304
      2625.1024
  -9887869.24649  -7686043.07846  19753464.9684   19753461.7224
      -729.8794
 04  9 14 17  6 59.9950000  0  6G 1G11G16G23G20G25
 -15057386.97749 -11714678.78546  18959404.6164   18959401.7224
       799.5054
  -3421100.92648  -2651945.41043  21019394.0854   21019390.9954
     -1422.9274
  -4282986.53546  -3326282.11342  21954195.0544   21954193.4684
      3992.3674
 -18385694.50049 -14315702.80945  20116351.7734   20116345.9764
      3055.6084
 -26076566.24649 -20313050.66446  19045990.7964   19045987.1834
      2619.2194
  -9876839.34049  -7677448.35246  19755563.9834   19755560.8274
      -735.3274
 04  9 14 17  7 14.9950000  0  6G 1G11G16G23G20G25
 -15069331.71149 -11723986.37546  18957131.8584   18957128.7144
       796.3164
  -3399696.13748  -2635266.36743  21023468.0854   21023464.4684
     -1426.9864
  -4342837.17245  -3372918.91842  21942806.1164   21942803.8864
      3990.0424
 -18431488.92649 -14351386.75845  20107637.7264   20107631.9374
      3052.9624
 -26115765.87549 -20343595.83246  19038531.7104   19038527.6514
      2613.3094
  -9865727.59049  -7668789.85246  19757678.6084   19757675.3044
      -740.7834
 04  9 14 17  7 29.9950000  0  6G 1G11G16G23G20G25
 -15081229.50049 -11733257.38746  18954867.6084   18954864.6204
       793.1864
  -3378231.73048  -2618540.86743  21027552.0384   21027549.1674
     -1430.9604
  -4402653.47346  -3419528.99242  21931423.5774   21931421.4374
      3987.7534
 -18477244.45349 -14387040.41045  20098930.5854   20098924.8354
      3050.3684
 -26154877.38749 -20374072.33246  19031088.8194   19031085.1874
      2607.4344
  -9854535.14149  -7660068.47346  19759808.4294   19759805.2614
      -746.1634
 04  9 14 17  7 44.9950000  0  6G 1G11G16G23G20G25
 -15093080.48449 -11742491.92646  18952612.5544   18952609.5234
       790.0664
  -3356708.00048  -2601769.16043  21031648.2414   21031645.0934
     -1434.9154
  -4462434.97346  -3466111.93042  21920047.3664   21920045.3004
      3985.4334
 -18522961.10249 -14422663.75445  20090231.4764   20090225.6874
      3047.7774
 -26193900.46549 -20404479.93046  19023663.0464   19023659.1714
      2601.5394
  -9843262.25449  -7651284.41446  19761953.5544   19761950.6364
      -751.5264
 04  9 14 17  7 59.9950000  0  6G 1G11G16G23G20G25
 -15104885.64149 -11751690.75046  18950366.0854   18950362.7924
       787.0104
  -3335126.25848  -2584952.23443  21035754.9374   21035752.2064
     -1438.7834
  -4522182.25047  -3512668.21542  21908678.4444   21908676.3944
      3983.1524
 -18568639.82449 -14458257.57045  20081538.6634   20081533.0154
      3045.2484
 -26232835.81649 -20434819.16046  19016253.8434   19016249.9214
      2595.6904
  -9831910.05949  -7642438.55946  19764113.9294   19764110.8354
      -756.8134
 04  9 14 17  8 14.9950000  0  6G 1G11G16G23G20G25
 -15116643.71949 -11760852.89146  18948128.4994   18948125.3044
       783.8724
  -3313485.56248  -2568089.37143  21039873.3744   21039870.0114
     -1442.7134
  -4581893.60946  -3559196.52042  21897315.7804   21897313.7964
      3980.7574
 -18614279.18049 -14493820.68745  20072853.8434   20072848.1674
      3042.6244
 -26271681.96549 -20465088.88346  19008861.5694   19008857.9054
      2589.7434
  -9820477.54749  -7633530.11346  19766289.4374   19766286.3124
      -762.1674
 04  9 14 17  8 29.9950000  0  6G 1G11G16G23G20G25
 -15128354.37949 -11769978.07846  18945900.0464   18945897.4334
       780.7114
  -3291785.89148  -2551180.54743  21044003.2414   21043998.9834
     -1446.6454
  -4641568.20747  -3605696.17242  21885959.8274   21885958.1284
      3978.3074
 -18659878.80149 -14529352.86345  20064176.6014   20064170.9054
      3039.9754
 -26310438.31649 -20495288.64146  19001486.4054   19001482.6674
      2583.7574
  -9808964.75049  -7624559.10946  19768480.2964   19768477.3044
      -767.5204
 04  9 14 17  8 44.9950000  0  6G 1G11G16G23G20G25
 -15140018.34849 -11779066.89146  18943680.2804   18943677.6754
       777.5984
  -3270028.19148  -2534226.50444  21048143.0624   21048140.0504
     -1450.5134
  -4701206.39547  -3652167.46942  21874611.4054   21874609.1514
      3975.8794
 -18705439.30949 -14564854.54345  20055506.6324   20055500.8084
      3037.3674
 -26349105.22749 -20525418.70346  18994128.5854   18994125.0264
      2577.7944
  -9797372.37149  -7615526.10246  19770686.0774   19770682.9294
      -772.8254
 04  9 14 17  8 59.9950000  0  6G 1G11G16G23G20G25
 -15151634.82449 -11788118.69546  18941470.0464   18941467.4994
       774.4324
  -3248211.94548  -2517226.86343  21052294.1714   21052292.1324
     -1454.4164
  -4760806.90647  -3698609.38743  21863269.5774   21863267.6054
      3973.3674
 -18750959.78149 -14600325.04345  20046844.3194   20046838.6244
      3034.6984
 -26387681.60249 -20555478.21546  18986787.4214   18986784.0074
      2571.7584
  -9785699.97349  -7606430.73046  19772907.4764   19772904.0624
      -778.1604
 04  9 14 17  9 14.9950000  0  6G 1G11G16G23G20G25
 -15163204.36349 -11797133.91846  18939268.3124   18939265.3124
       771.3034
  -3226338.05148  -2500182.29743  21056456.7574   21056454.4684
     -1458.2604
  -4820369.85947  -3745022.05943  21851935.5464   21851933.2804
      3970.8644
 -18796440.75449 -14635764.73845  20038189.6084   20038184.0894
      3032.0654
 -26426167.73049 -20585467.41046  18979463.9834   18979460.4214
      2565.7424
  -9773948.25849  -7597273.55946  19775143.6324   19775140.3154
      -783.4484
 04  9 14 17  9 29.9950000  0  6G 1G11G16G23G20G25
 -15174727.00849 -11806112.59846  18937075.5544   18937072.8554
       768.1764
  -3204406.78148  -2483093.00443  21060630.1084   21060626.8394
     -1462.0854
  -4879894.86348  -3791405.14543  21840608.2964   21840606.1874
      3968.3344
 -18841882.10949 -14671173.57845  20029542.2334   20029536.5974
      3029.4244
 -26464563.31649 -20615386.05546  18972157.8514   18972153.7734
      2559.7064
  -9762117.32449  -7588054.64846  19777395.1714   19777392.2694
      -788.7294
 04  9 14 17  9 44.9950000  0  6G 1G11G16G23G20G25
 -15186202.72349 -11815054.71546  18934892.0304   18934889.1794
       765.0484
  -3182418.36748  -2465959.20343  21064814.4604   21064811.8124
     -1465.8944
  -4939381.32848  -3837758.20743  21829288.6014   21829286.0344
      3965.7644
 -18887283.81649 -14706551.52745  20020902.5154   20020897.2144
      3026.7804
 -26502867.97349 -20645233.84046  18964868.3124   18964864.5654
      2553.6444
  -9750207.42649  -7578774.22346  19779661.7264   19779658.5464
      -793.9934
 04  9 14 17  9 59.9950000  0  6G 1G11G16G23G20G25
 -15197631.21549 -11823960.03546  18932716.8744   18932714.0894
       761.8994
  -3160372.72348  -2448780.80143  21069009.4994   21069006.7304
     -1469.7104
  -4998828.63347  -3884080.76243  21817975.6874   21817973.5344
      3963.1544
 -18932645.41848 -14741898.21945  20012270.5154   20012265.0424
      3024.1074
 -26541081.18049 -20675010.36346  18957596.9054   18957592.8584
      2547.5474
  -9738218.53949  -7569432.23846  19781942.8124   19781939.7144
      -799.2594
 04  9 14 17 10 14.9950000  0  6G 1G11G16G23G20G25
 -15209012.55949 -11832828.62146  18930551.3984   18930548.7104
       758.7564
  -3138270.32048  -2431558.17243  21073215.3124   21073212.6794
     -1473.4934
  -5058236.30547  -3930372.42242  21806670.8434   21806668.4444
      3960.5114
 -18977966.91849 -14777213.66445  20003646.0774   20003640.1984
      3021.4334
 -26579202.69549 -20704715.43746  18950342.4294   18950338.4804
      2541.4344
  -9726150.78949  -7560028.80146  19784239.2264   19784236.0504
      -804.5174
 04  9 14 17 10 29.9950000  0  6G 1G11G16G23G20G25
 -15220346.22749 -11841660.05546  18928394.4764   18928391.9334
       755.5784
  -3116110.87147  -2414291.10243  21077431.7734   21077430.0034
     -1477.2974
  -5117603.37947  -3976632.48042  21795373.0304   21795371.8084
      3957.8054
 -19023247.73849 -14812497.40645  19995029.5074   19995023.8784
      3018.7214
 -26617231.77049 -20734348.48446  18943105.6634   18943101.9294
      2535.2724
  -9714003.89149  -7550563.69546  19786550.7884   19786547.8124
      -809.7934
 04  9 14 17 10 44.9950000  0  6G 1G11G16G23G20G25
 -15231633.09849 -11850455.02346  18926246.7804   18926244.1484
       752.4584
  -3093895.53948  -2396980.46943  21081659.6944   21081657.2334
     -1481.0224
  -5176930.37547  -4022861.25842  21784084.2414   21784082.5584
      3955.1334
 -19068488.67249 -14847750.08645  19986420.5774   19986414.8434
      3016.0624
 -26655168.87149 -20763909.85946  18935886.4684   18935882.7064
      2529.1404
  -9701778.91849  -7541037.75046  19788877.5774   19788874.1204
      -814.9984
 04  9 14 17 10 59.9950000  0  6G 1G11G16G23G20G25
 -15242873.18049 -11859213.52746  18924107.7804   18924104.9014
       749.3394
  -3071624.68747  -2379626.59443  21085897.7024   21085895.5074
     -1484.7234
  -5236216.73047  -4069058.41842  21772802.2574   21772799.8474
      3952.4244
 -19113689.59849 -14882971.57045  19977819.0544   19977812.9834
      3013.3954
 -26693013.70749 -20793399.33646  18928684.7494   18928680.7494
      2522.9894
  -9689476.22349  -7531451.24646  19791217.8124   19791215.1794
      -820.1804
 04  9 14 17 11 14.9950000  0  6G 1G11G16G23G20G25
 -15254065.02749 -11867934.45346  18921978.1014   18921975.3394
       746.1234
  -3049297.25848  -2362228.61743  21090146.7024   21090144.1554
     -1488.4954
  -5295460.69946  -4115222.54742  21761528.2024   21761525.2654
      3949.5984
 -19158849.11349 -14918160.80545  19969225.3744   19969219.3314
      3010.6344
 -26730764.65249 -20822815.66046  18921501.0624   18921497.0234
      2516.7304
  -9677094.43749  -7521803.10246  19793574.5304   19793571.1124
      -825.4524
 04  9 14 17 11 29.9950000  0  6G 1G11G16G23G20G25
 -15265208.22349 -11876617.46146  18919857.3984   18919854.4254
       742.8804
  -3026912.93748  -2344786.32443  21094406.3354   21094403.3624
     -1492.2884
  -5354661.38346  -4161352.91442  21750262.4054   21750259.9954
      3946.7124
 -19203966.54749 -14953317.24645  19960639.6794   19960634.0584
      3007.8294
 -26768420.89149 -20852158.18446  18914334.9764   18914331.5934
      2510.4164
  -9664633.38749  -7512093.20746  19795945.8044   19795942.5424
      -830.7374
 04  9 14 17 11 44.9950000  0  6G 1G11G16G23G20G25
 -15276303.23849 -11885262.93446  18917746.2804   18917743.3824
       739.6684
  -3004472.50848  -2327300.28543  21098676.2414   21098673.9054
     -1496.0294
  -5413818.69546  -4207449.48442  21739004.7264   21739003.4334
      3943.8214
 -19249042.34049 -14988441.22745  19952062.4764   19952056.2654
      3005.0534
 -26805982.62549 -20881427.07046  18907187.4914   18907184.1084
      2504.1164
  -9652093.84449  -7502322.14546  19798331.8744   19798328.6164
      -835.9704
 04  9 14 17 11 59.9940000  0  6G 1G11G16G23G20G25
 -15287346.79349 -11893868.30946  18915645.0184   18915642.0224
       736.2374
  -2981975.16048  -2309769.91043  21102957.5654   21102955.3464
     -1499.8234
  -5472925.60546  -4253506.80142  21727757.3154   21727755.1474
      3940.4614
 -19294070.85549 -15023528.37145  19943493.4944   19943487.6044
      3001.9014
 -26843444.44949 -20910618.09846  18900058.4474   18900055.2014
      2497.4554
  -9639474.21549  -7492488.67246  19800733.4944   19800730.3304
      -841.3094
 04  9 14 17 12 14.9940000  0  6G 1G11G16G23G20G25
 -15298340.16849 -11902434.57046  18913552.6824   18913549.8974
       732.8924
  -2959418.04348  -2292192.96943  21107250.6354   21107247.7174
     -1503.8084
  -5531989.71146  -4299530.71542  21716517.8384   21716515.2174
      3937.6074
 -19339057.82049 -15058583.13745  19934932.9554   19934927.1904
      2999.1314
 -26880810.91449 -20939734.81646  18892948.3304   18892944.4634
      2491.0984
  -9626772.89849  -7482591.54346  19803150.5804   19803147.0844
      -846.7544
 04  9 14 17 12 29.9940000  0  6G 1G11G16G23G20G25
 -15309282.67649 -11910961.20746  18911470.5574   18911467.9084
       729.5014
  -2936803.13748  -2274570.98443  21111553.4714   21111550.7564
     -1507.6604
  -5591006.39146  -4345517.74242  21705286.9004   21705284.6114
      3934.4454
 -19384000.23049 -15093603.19145  19926380.6274   19926375.0494
      2996.1614
 -26918079.36349 -20968775.16846  18885856.1434   18885852.4284
      2484.5634
  -9613990.90249  -7472631.55146  19805582.8464   19805579.6584
      -852.1334
 04  9 14 17 12 44.9940000  0  6G 1G11G16G23G20G25
 -15320174.10249 -11919448.03946  18909397.9554   18909395.3464
       726.0954
  -2914130.42648  -2256903.96943  21115868.4084   21115865.1354
     -1511.5144
  -5649975.06247  -4391467.34442  21694065.7294   21694063.3504
      3931.2454
 -19428897.72349 -15128588.24245  19917836.7684   19917831.6074
      2993.1664
 -26955249.19549 -20997738.67646  18878782.9004   18878779.3424
      2477.9894
  -9601128.31649  -7462608.76246  19808030.5884   19808027.3544
      -857.5064
 04  9 14 17 12 59.9940000  0  6G 1G11G16G23G20G25
 -15331014.65649 -11927895.21546  18907335.1504   18907332.2834
       722.7044
  -2891400.41048  -2239192.28143  21120193.6194   21120190.7404
     -1515.3344
  -5708895.48447  -4437379.34042  21682853.9474   21682851.0294
      3928.0284
 -19473750.52749 -15163538.46945  19909301.6584   19909296.3304
      2990.1874
 -26992320.30149 -21026625.26246  18871728.8074   18871725.1074
      2471.4074
  -9588185.52349  -7452523.47346  19810493.2914   19810490.4514
      -862.8534
 04  9 14 17 13 14.9940000  0  6G 1G11G16G23G20G25
 -15341804.69149 -11936303.03946  18905281.9404   18905279.3974
       719.3364
  -2868613.75448  -2221436.45343  21124529.9474   21124527.1394
     -1519.1104
  -5767767.53147  -4483253.64142  21671650.8614   21671648.6234
      3924.8034
 -19518558.88348 -15198454.05145  19900775.1114   19900769.1974
      2987.2244
 -27029292.81249 -21055435.00046  18864693.2214   18864689.3894
      2464.8344
  -9575162.99649  -7442376.06246  19812971.3224   19812967.9674
      -868.1684
 04  9 14 17 13 29.9940000  0  6G 1G11G16G23G20G25
 -15352544.08249 -11944671.39846  18903238.1504   18903235.4554
       715.9594
  -2845770.39148  -2203636.45744  21128876.8614   21128874.5064
     -1522.8914
  -5826590.62147  -4529089.80543  21660457.4864   21660455.0614
      3921.5394
 -19563322.47749 -15233334.77345  19892256.7444   19892251.2294
      2984.2404
 -27066166.27749 -21084167.57046  18857676.1664   18857672.4004
      2458.2314
  -9562060.89549  -7432166.64146  19815464.5654   19815461.6154
      -873.4734
 04  9 14 17 13 44.9940000  0  6G 1G11G16G23G20G25
 -15363231.44549 -11952999.21146  18901204.1044   18901201.8184
       712.4914
  -2822869.38748  -2185791.54743  21133234.7364   21133231.7134
     -1526.7344
  -5885362.99248  -4574886.43443  21649273.6194   21649270.4324
      3918.1584
 -19608039.84849 -15268179.46945  19883747.3774   19883741.6354
      2981.1584
 -27102939.09849 -21112821.71946  18850678.5414   18850674.8544
      2451.5214
  -9548877.94149  -7421894.21146  19817973.2754   19817970.1624
      -878.8644
 04  9 14 17 13 59.9940000  0  6G 1G11G16G23G20G25
 -15373867.41449 -11961286.98046  18899180.5414   18899177.8154
       709.0654
  -2799911.87148  -2167902.59043  21137603.5724   21137600.5224
     -1530.5014
  -5944084.85248  -4620643.68743  21638099.5574   21638096.2014
      3914.7914
 -19652711.70349 -15302988.69545  19875246.3934   19875240.5224
      2978.1244
 -27139611.58249 -21141397.68446  18843700.1354   18843696.1744
      2444.8324
  -9535615.10949  -7411559.55546  19820497.1904   19820494.0224
      -884.1894
 04  9 14 17 14 14.9940000  0  6G 1G11G16G23G20G25
 -15384453.41849 -11969535.81647  18897166.1044   18897163.3814
       705.7344
  -2776899.38748  -2149970.81643  21141982.5334   21141979.8304
     -1534.1664
  -6002757.20748  -4666362.39543  21626934.2444   21626931.0024
      3911.4904
 -19697339.29749 -15337763.43745  19866754.2994   19866748.4434
      2975.1734
 -27176184.87549 -21169896.34846  18836740.4864   18836736.9754
      2438.2204
  -9522273.93449  -7401163.84446  19823036.0024   19823032.6434
      -889.4124
 04  9 14 17 14 29.9940000  0  6G 1G11G16G23G20G25
 -15394988.54349 -11977745.00846  18895161.3384   18895158.6744
       702.3424
  -2753831.25048  -2131995.66843  21146372.4554   21146369.5224
     -1537.8764
  -6061378.57847  -4712041.35943  21615778.6354   21615775.9474
      3908.0914
 -19741921.63349 -15372502.91045  19858270.5964   19858264.4984
      2972.1564
 -27212657.66849 -21198316.71146  18829800.2994   18829795.8734
      2431.5204
  -9508853.64849  -7390706.48446  19825589.6274   19825586.2444
      -894.6864
 04  9 14 17 14 44.9940000  0  6G 1G11G16G23G20G25
 -15405472.93749 -11985914.67646  18893166.2214   18893163.6584
       698.9604
  -2730707.95748  -2113977.53943  21150772.2294   21150769.5654
     -1541.5534
  -6119948.70747  -4757680.39843  21604633.4084   21604630.6904
      3904.6754
 -19786458.69149 -15407207.11745  19849795.3694   19849789.3344
      2969.1374
 -27249029.95349 -21226658.75846  18822878.7914   18822874.6434
      2424.8194
  -9495354.72349  -7380187.84446  19828158.6044   19828155.0964
      -899.9284
 04  9 14 17 14 59.9940000  0  6G 1G11G16G23G20G25
 -15415906.37949 -11994044.62146  18891181.0654   18891178.0964
       695.5634
  -2707529.59048  -2095916.52043  21155183.0184   21155180.0764
     -1545.2244
  -6178466.86747  -4803278.96143  21593497.6354   21593495.5144
      3901.2114
 -19830950.28949 -15441875.88345  19841329.0104   19841322.9514
      2966.1074
 -27285301.11349 -21254921.99646  18815976.7134   18815972.3694
      2418.0774
  -9481777.23849  -7369607.99246  19830742.2524   19830738.7174
      -905.1664
 04  9 14 17 15 14.9940000  0  6G 1G11G16G23G20G25
 -15426289.32449 -12002135.24646  18889204.9714   18889202.0574
       692.1964
  -2684296.98848  -2077813.20343  21159604.3934   21159601.0374
     -1548.8404
  -6236933.31246  -4848837.18742  21582371.5654   21582369.2444
      3897.7634
 -19875396.76249 -15476509.49645  19832870.9164   19832864.9284
      2963.0984
 -27321471.39549 -21283106.63346  18809093.6824   18809089.6864
      2411.3524
  -9468121.74649  -7358967.36346  19833341.0654   19833337.4004
      -910.3664
